﻿<?xml version="1.0" encoding="utf-8"?><gpx creator="Garmin Desktop App" version="1.1" xsi:schemaLocation="http://www.topografix.com/GPX/1/1 http://www.topografix.com/GPX/1/1/gpx.xsd http://www.garmin.com/xmlschemas/WaypointExtension/v1 http://www8.garmin.com/xmlschemas/WaypointExtensionv1.xsd http://www.garmin.com/xmlschemas/TrackPointExtension/v1 http://www.garmin.com/xmlschemas/TrackPointExtensionv1.xsd http://www.garmin.com/xmlschemas/GpxExtensions/v3 http://www8.garmin.com/xmlschemas/GpxExtensionsv3.xsd http://www.garmin.com/xmlschemas/ActivityExtension/v1 http://www8.garmin.com/xmlschemas/ActivityExtensionv1.xsd http://www.garmin.com/xmlschemas/AdventuresExtensions/v1 http://www8.garmin.com/xmlschemas/AdventuresExtensionv1.xsd http://www.garmin.com/xmlschemas/PressureExtension/v1 http://www.garmin.com/xmlschemas/PressureExtensionv1.xsd http://www.garmin.com/xmlschemas/TripExtensions/v1 http://www.garmin.com/xmlschemas/TripExtensionsv1.xsd http://www.garmin.com/xmlschemas/TripMetaDataExtensions/v1 http://www.garmin.com/xmlschemas/TripMetaDataExtensionsv1.xsd http://www.garmin.com/xmlschemas/ViaPointTransportationModeExtensions/v1 http://www.garmin.com/xmlschemas/ViaPointTransportationModeExtensionsv1.xsd http://www.garmin.com/xmlschemas/CreationTimeExtension/v1 http://www.garmin.com/xmlschemas/CreationTimeExtensionsv1.xsd http://www.garmin.com/xmlschemas/AccelerationExtension/v1 http://www.garmin.com/xmlschemas/AccelerationExtensionv1.xsd http://www.garmin.com/xmlschemas/PowerExtension/v1 http://www.garmin.com/xmlschemas/PowerExtensionv1.xsd http://www.garmin.com/xmlschemas/VideoExtension/v1 http://www.garmin.com/xmlschemas/VideoExtensionv1.xsd" xmlns="http://www.topografix.com/GPX/1/1" xmlns:xsi="http://www.w3.org/2001/XMLSchema-instance" xmlns:wptx1="http://www.garmin.com/xmlschemas/WaypointExtension/v1" xmlns:gpxtrx="http://www.garmin.com/xmlschemas/GpxExtensions/v3" xmlns:gpxtpx="http://www.garmin.com/xmlschemas/TrackPointExtension/v1" xmlns:gpxx="http://www.garmin.com/xmlschemas/GpxExtensions/v3" xmlns:trp="http://www.garmin.com/xmlschemas/TripExtensions/v1" xmlns:adv="http://www.garmin.com/xmlschemas/AdventuresExtensions/v1" xmlns:prs="http://www.garmin.com/xmlschemas/PressureExtension/v1" xmlns:tmd="http://www.garmin.com/xmlschemas/TripMetaDataExtensions/v1" xmlns:vptm="http://www.garmin.com/xmlschemas/ViaPointTransportationModeExtensions/v1" xmlns:ctx="http://www.garmin.com/xmlschemas/CreationTimeExtension/v1" xmlns:gpxacc="http://www.garmin.com/xmlschemas/AccelerationExtension/v1" xmlns:gpxpx="http://www.garmin.com/xmlschemas/PowerExtension/v1" xmlns:vidx1="http://www.garmin.com/xmlschemas/VideoExtension/v1">

  <metadata>
    <link href="http://www.garmin.com">
      <text>Garmin International</text>
    </link>
    <time>2017-07-01T09:53:55Z</time>
    <bounds maxlat="61.207923972979188" maxlon="10.929671991616488" minlat="59.927722960710526" minlon="10.295422011986375" />
  </metadata>

  <trk>
    <name>Track vom: 01 Jul 2017 06:39</name>
    <extensions>
      <gpxx:TrackExtension>
        <gpxx:DisplayColor>DarkGray</gpxx:DisplayColor>
      </gpxx:TrackExtension>
    </extensions>
    <trkseg>
      <trkpt lat="61.206344990059733" lon="10.295422011986375">
        <ele>228.93000000000001</ele>
        <time>2017-07-01T04:39:28Z</time>
      </trkpt>
      <trkpt lat="61.206334009766579" lon="10.295451013371348">
        <ele>232.78</ele>
        <time>2017-07-01T04:39:30Z</time>
      </trkpt>
      <trkpt lat="61.206343984231353" lon="10.295538017526269">
        <ele>235.66</ele>
        <time>2017-07-01T04:39:33Z</time>
      </trkpt>
      <trkpt lat="61.206181040033698" lon="10.295872036367655">
        <ele>234.22</ele>
        <time>2017-07-01T04:39:45Z</time>
      </trkpt>
      <trkpt lat="61.205982975661755" lon="10.296146040782332">
        <ele>234.22</ele>
        <time>2017-07-01T04:39:57Z</time>
      </trkpt>
      <trkpt lat="61.206028992310166" lon="10.296420967206359">
        <ele>236.13999999999999</ele>
        <time>2017-07-01T04:40:01Z</time>
      </trkpt>
      <trkpt lat="61.206414978951216" lon="10.2970249671489">
        <ele>245.75</ele>
        <time>2017-07-01T04:40:15Z</time>
      </trkpt>
      <trkpt lat="61.206454038619995" lon="10.297048017382622">
        <ele>246.22999999999999</ele>
        <time>2017-07-01T04:40:16Z</time>
      </trkpt>
      <trkpt lat="61.207011016085744" lon="10.297785960137844">
        <ele>259.69</ele>
        <time>2017-07-01T04:40:29Z</time>
      </trkpt>
      <trkpt lat="61.20711101219058" lon="10.297857038676739">
        <ele>258.73000000000002</ele>
        <time>2017-07-01T04:40:31Z</time>
      </trkpt>
      <trkpt lat="61.207208996638656" lon="10.297926021739841">
        <ele>259.69</ele>
        <time>2017-07-01T04:40:33Z</time>
      </trkpt>
      <trkpt lat="61.20725903660059" lon="10.297945970669389">
        <ele>259.69</ele>
        <time>2017-07-01T04:40:34Z</time>
      </trkpt>
      <trkpt lat="61.207307986915112" lon="10.297969020903111">
        <ele>260.17000000000002</ele>
        <time>2017-07-01T04:40:35Z</time>
      </trkpt>
      <trkpt lat="61.207892959937453" lon="10.297911018133163">
        <ele>268.82999999999998</ele>
        <time>2017-07-01T04:40:48Z</time>
      </trkpt>
      <trkpt lat="61.207923972979188" lon="10.298041021451354">
        <ele>267.86000000000001</ele>
        <time>2017-07-01T04:40:58Z</time>
      </trkpt>
      <trkpt lat="61.207917015999556" lon="10.298107992857695">
        <ele>268.35000000000002</ele>
        <time>2017-07-01T04:40:59Z</time>
      </trkpt>
      <trkpt lat="61.207894971594214" lon="10.298200026154518">
        <ele>267.38</ele>
        <time>2017-07-01T04:41:00Z</time>
      </trkpt>
      <trkpt lat="61.207849960774183" lon="10.298276972025633">
        <ele>266.89999999999998</ele>
        <time>2017-07-01T04:41:01Z</time>
      </trkpt>
      <trkpt lat="61.207788018509746" lon="10.298346960917115">
        <ele>266.89999999999998</ele>
        <time>2017-07-01T04:41:02Z</time>
      </trkpt>
      <trkpt lat="61.20771300047636" lon="10.298389960080385">
        <ele>266.89999999999998</ele>
        <time>2017-07-01T04:41:03Z</time>
      </trkpt>
      <trkpt lat="61.207630019634962" lon="10.298433965072036">
        <ele>266.89999999999998</ele>
        <time>2017-07-01T04:41:04Z</time>
      </trkpt>
      <trkpt lat="61.206567026674747" lon="10.299353962764144">
        <ele>264.01999999999998</ele>
        <time>2017-07-01T04:41:14Z</time>
      </trkpt>
      <trkpt lat="61.204100986942649" lon="10.301673989742994">
        <ele>263.54000000000002</ele>
        <time>2017-07-01T04:41:33Z</time>
      </trkpt>
      <trkpt lat="61.202357970178127" lon="10.303518008440733">
        <ele>263.54000000000002</ele>
        <time>2017-07-01T04:41:46Z</time>
      </trkpt>
      <trkpt lat="61.200747974216938" lon="10.305471997708082">
        <ele>263.54000000000002</ele>
        <time>2017-07-01T04:41:58Z</time>
      </trkpt>
      <trkpt lat="61.198679991066456" lon="10.30780803412199">
        <ele>264.5</ele>
        <time>2017-07-01T04:42:13Z</time>
      </trkpt>
      <trkpt lat="61.196773024275899" lon="10.309463040903211">
        <ele>265.94</ele>
        <time>2017-07-01T04:42:26Z</time>
      </trkpt>
      <trkpt lat="61.195199992507696" lon="10.311451982706785">
        <ele>262.10000000000002</ele>
        <time>2017-07-01T04:42:37Z</time>
      </trkpt>
      <trkpt lat="61.192736970260739" lon="10.314430994912982">
        <ele>259.20999999999998</ele>
        <time>2017-07-01T04:42:53Z</time>
      </trkpt>
      <trkpt lat="61.190707962960005" lon="10.317026032134891">
        <ele>255.84999999999999</ele>
        <time>2017-07-01T04:43:07Z</time>
      </trkpt>
      <trkpt lat="61.18925797753036" lon="10.317728016525507">
        <ele>255.37</ele>
        <time>2017-07-01T04:43:16Z</time>
      </trkpt>
      <trkpt lat="61.187177002429962" lon="10.318773994222283">
        <ele>252</ele>
        <time>2017-07-01T04:43:29Z</time>
      </trkpt>
      <trkpt lat="61.185542028397322" lon="10.320524973794818">
        <ele>250.56</ele>
        <time>2017-07-01T04:43:39Z</time>
      </trkpt>
      <trkpt lat="61.182611966505647" lon="10.323700960725546">
        <ele>248.63999999999999</ele>
        <time>2017-07-01T04:43:55Z</time>
      </trkpt>
      <trkpt lat="61.18085503578186" lon="10.324333962053061">
        <ele>249.59999999999999</ele>
        <time>2017-07-01T04:44:04Z</time>
      </trkpt>
      <trkpt lat="61.178982015699148" lon="10.32551396638155">
        <ele>247.68000000000001</ele>
        <time>2017-07-01T04:44:14Z</time>
      </trkpt>
      <trkpt lat="61.176929958164692" lon="10.327463010326028">
        <ele>243.83000000000001</ele>
        <time>2017-07-01T04:44:25Z</time>
      </trkpt>
      <trkpt lat="61.175107983872294" lon="10.32925296574831">
        <ele>239.99000000000001</ele>
        <time>2017-07-01T04:44:35Z</time>
      </trkpt>
      <trkpt lat="61.173488013446331" lon="10.331956967711449">
        <ele>236.62</ele>
        <time>2017-07-01T04:44:45Z</time>
      </trkpt>
      <trkpt lat="61.171606024727225" lon="10.334625011309981">
        <ele>231.81</ele>
        <time>2017-07-01T04:44:56Z</time>
      </trkpt>
      <trkpt lat="61.169024985283613" lon="10.33958600834012">
        <ele>223.16</ele>
        <time>2017-07-01T04:45:13Z</time>
      </trkpt>
      <trkpt lat="61.167487995699048" lon="10.342239970341325">
        <ele>218.84</ele>
        <time>2017-07-01T04:45:23Z</time>
      </trkpt>
      <trkpt lat="61.166853988543153" lon="10.344852022826672">
        <ele>215.94999999999999</ele>
        <time>2017-07-01T04:45:30Z</time>
      </trkpt>
      <trkpt lat="61.165597960352898" lon="10.35163901746273">
        <ele>207.30000000000001</ele>
        <time>2017-07-01T04:45:47Z</time>
      </trkpt>
      <trkpt lat="61.164631024003029" lon="10.353804985061288">
        <ele>203.94</ele>
        <time>2017-07-01T04:45:54Z</time>
      </trkpt>
      <trkpt lat="61.163627039641142" lon="10.356463976204395">
        <ele>200.56999999999999</ele>
        <time>2017-07-01T04:46:02Z</time>
      </trkpt>
      <trkpt lat="61.162976017221808" lon="10.360004995018244">
        <ele>197.21000000000001</ele>
        <time>2017-07-01T04:46:11Z</time>
      </trkpt>
      <trkpt lat="61.162280989810824" lon="10.363676017150283">
        <ele>193.36000000000001</ele>
        <time>2017-07-01T04:46:21Z</time>
      </trkpt>
      <trkpt lat="61.161472974345088" lon="10.368421012535691">
        <ele>185.19</ele>
        <time>2017-07-01T04:46:33Z</time>
      </trkpt>
      <trkpt lat="61.160578038543463" lon="10.373946027830243">
        <ele>177.02000000000001</ele>
        <time>2017-07-01T04:46:47Z</time>
      </trkpt>
      <trkpt lat="61.159880999475718" lon="10.376899978145957">
        <ele>173.16999999999999</ele>
        <time>2017-07-01T04:46:55Z</time>
      </trkpt>
      <trkpt lat="61.159724006429315" lon="10.379209024831653">
        <ele>171.72999999999999</ele>
        <time>2017-07-01T04:47:01Z</time>
      </trkpt>
      <trkpt lat="61.159568019211292" lon="10.384341012686491">
        <ele>159.72</ele>
        <time>2017-07-01T04:47:14Z</time>
      </trkpt>
      <trkpt lat="61.158578032627702" lon="10.389566961675882">
        <ele>144.34</ele>
        <time>2017-07-01T04:47:28Z</time>
      </trkpt>
      <trkpt lat="61.157893985509872" lon="10.39151600562036">
        <ele>138.56999999999999</ele>
        <time>2017-07-01T04:47:34Z</time>
      </trkpt>
      <trkpt lat="61.157089993357658" lon="10.39265301078558">
        <ele>135.68000000000001</ele>
        <time>2017-07-01T04:47:40Z</time>
      </trkpt>
      <trkpt lat="61.1569859739393" lon="10.392813021317124">
        <ele>135.68000000000001</ele>
        <time>2017-07-01T04:47:41Z</time>
      </trkpt>
      <trkpt lat="61.156896958127618" lon="10.392986023798585">
        <ele>135.19999999999999</ele>
        <time>2017-07-01T04:47:42Z</time>
      </trkpt>
      <trkpt lat="61.156646003946662" lon="10.393495978787541">
        <ele>134.72</ele>
        <time>2017-07-01T04:47:45Z</time>
      </trkpt>
      <trkpt lat="61.156553970649838" lon="10.393608966842294">
        <ele>134.72</ele>
        <time>2017-07-01T04:47:46Z</time>
      </trkpt>
      <trkpt lat="61.156452968716621" lon="10.393697982653975">
        <ele>134.72</ele>
        <time>2017-07-01T04:47:47Z</time>
      </trkpt>
      <trkpt lat="61.156244007870555" lon="10.393889006227255">
        <ele>135.19999999999999</ele>
        <time>2017-07-01T04:47:49Z</time>
      </trkpt>
      <trkpt lat="61.156140994280577" lon="10.394032001495361">
        <ele>134.72</ele>
        <time>2017-07-01T04:47:50Z</time>
      </trkpt>
      <trkpt lat="61.15582499653101" lon="10.394543968141079">
        <ele>134.72</ele>
        <time>2017-07-01T04:47:53Z</time>
      </trkpt>
      <trkpt lat="61.155729023739696" lon="10.394769022241235">
        <ele>134.72</ele>
        <time>2017-07-01T04:47:54Z</time>
      </trkpt>
      <trkpt lat="61.155640007928014" lon="10.395016958937049">
        <ele>134.72</ele>
        <time>2017-07-01T04:47:55Z</time>
      </trkpt>
      <trkpt lat="61.154808020219207" lon="10.396702978760004">
        <ele>135.19999999999999</ele>
        <time>2017-07-01T04:48:02Z</time>
      </trkpt>
      <trkpt lat="61.153004989027977" lon="10.400051968172193">
        <ele>136.63999999999999</ele>
        <time>2017-07-01T04:48:15Z</time>
      </trkpt>
      <trkpt lat="61.152514982968569" lon="10.40219496935606">
        <ele>136.63999999999999</ele>
        <time>2017-07-01T04:48:21Z</time>
      </trkpt>
      <trkpt lat="61.152510037645698" lon="10.404628990218043">
        <ele>137.13</ele>
        <time>2017-07-01T04:48:27Z</time>
      </trkpt>
      <trkpt lat="61.152803990989923" lon="10.408582985401154">
        <ele>137.61000000000001</ele>
        <time>2017-07-01T04:48:37Z</time>
      </trkpt>
      <trkpt lat="61.152656972408295" lon="10.409754021093249">
        <ele>138.56999999999999</ele>
        <time>2017-07-01T04:48:40Z</time>
      </trkpt>
      <trkpt lat="61.152577009052038" lon="10.410110000520945">
        <ele>138.56999999999999</ele>
        <time>2017-07-01T04:48:41Z</time>
      </trkpt>
      <trkpt lat="61.152485981583595" lon="10.410452987998724">
        <ele>139.05000000000001</ele>
        <time>2017-07-01T04:48:42Z</time>
      </trkpt>
      <trkpt lat="61.152381962165236" lon="10.41076697409153">
        <ele>140.00999999999999</ele>
        <time>2017-07-01T04:48:43Z</time>
      </trkpt>
      <trkpt lat="61.152265034615993" lon="10.411066962406039">
        <ele>140.49000000000001</ele>
        <time>2017-07-01T04:48:44Z</time>
      </trkpt>
      <trkpt lat="61.152131007984281" lon="10.411339038982987">
        <ele>140.97</ele>
        <time>2017-07-01T04:48:45Z</time>
      </trkpt>
      <trkpt lat="61.151990024372935" lon="10.411598039790988">
        <ele>141.93000000000001</ele>
        <time>2017-07-01T04:48:46Z</time>
      </trkpt>
      <trkpt lat="61.151837976649404" lon="10.411828961223364">
        <ele>142.88999999999999</ele>
        <time>2017-07-01T04:48:47Z</time>
      </trkpt>
      <trkpt lat="61.151675032451749" lon="10.412020990625024">
        <ele>143.84999999999999</ele>
        <time>2017-07-01T04:48:48Z</time>
      </trkpt>
      <trkpt lat="61.151503035798669" lon="10.412193993106484">
        <ele>144.81999999999999</ele>
        <time>2017-07-01T04:48:49Z</time>
      </trkpt>
      <trkpt lat="61.151327015832067" lon="10.412339000031352">
        <ele>145.78</ele>
        <time>2017-07-01T04:48:50Z</time>
      </trkpt>
      <trkpt lat="61.151144038885832" lon="10.412451988086104">
        <ele>146.74000000000001</ele>
        <time>2017-07-01T04:48:51Z</time>
      </trkpt>
      <trkpt lat="61.150956032797694" lon="10.412529017776251">
        <ele>147.69999999999999</ele>
        <time>2017-07-01T04:48:52Z</time>
      </trkpt>
      <trkpt lat="61.150761991739273" lon="10.412567993625998">
        <ele>148.66</ele>
        <time>2017-07-01T04:48:53Z</time>
      </trkpt>
      <trkpt lat="61.150573985651135" lon="10.412591965869069">
        <ele>149.62</ele>
        <time>2017-07-01T04:48:54Z</time>
      </trkpt>
      <trkpt lat="61.150386985391378" lon="10.412584003061056">
        <ele>151.06</ele>
        <time>2017-07-01T04:48:55Z</time>
      </trkpt>
      <trkpt lat="61.148957032710314" lon="10.412890026345849">
        <ele>155.87</ele>
        <time>2017-07-01T04:49:03Z</time>
      </trkpt>
      <trkpt lat="61.148523017764091" lon="10.413265032693744">
        <ele>156.34999999999999</ele>
        <time>2017-07-01T04:49:07Z</time>
      </trkpt>
      <trkpt lat="61.148428972810507" lon="10.41327802464366">
        <ele>156.83000000000001</ele>
        <time>2017-07-01T04:49:08Z</time>
      </trkpt>
      <trkpt lat="61.148136025294662" lon="10.413298979401588">
        <ele>157.78999999999999</ele>
        <time>2017-07-01T04:49:11Z</time>
      </trkpt>
      <trkpt lat="61.148032005876303" lon="10.413375003263354">
        <ele>158.75</ele>
        <time>2017-07-01T04:49:12Z</time>
      </trkpt>
      <trkpt lat="61.147935027256608" lon="10.413498971611261">
        <ele>159.24000000000001</ele>
        <time>2017-07-01T04:49:13Z</time>
      </trkpt>
      <trkpt lat="61.147722965106368" lon="10.413770964369178">
        <ele>160.19999999999999</ele>
        <time>2017-07-01T04:49:15Z</time>
      </trkpt>
      <trkpt lat="61.147592039778829" lon="10.413865009322762">
        <ele>160.68000000000001</ele>
        <time>2017-07-01T04:49:16Z</time>
      </trkpt>
      <trkpt lat="61.14744602702558" lon="10.41392401792109">
        <ele>161.16</ele>
        <time>2017-07-01T04:49:17Z</time>
      </trkpt>
      <trkpt lat="61.145868971943855" lon="10.414515025913715">
        <ele>161.63999999999999</ele>
        <time>2017-07-01T04:49:26Z</time>
      </trkpt>
      <trkpt lat="61.143539976328611" lon="10.415782034397125">
        <ele>163.08000000000001</ele>
        <time>2017-07-01T04:49:37Z</time>
      </trkpt>
      <trkpt lat="61.140357032418251" lon="10.418027965351939">
        <ele>164.03999999999999</ele>
        <time>2017-07-01T04:49:51Z</time>
      </trkpt>
      <trkpt lat="61.138137001544237" lon="10.420417981222272">
        <ele>164.03999999999999</ele>
        <time>2017-07-01T04:50:02Z</time>
      </trkpt>
      <trkpt lat="61.135390000417829" lon="10.42443098500371">
        <ele>165</ele>
        <time>2017-07-01T04:50:17Z</time>
      </trkpt>
      <trkpt lat="61.133455038070679" lon="10.427512004971504">
        <ele>161.63999999999999</ele>
        <time>2017-07-01T04:50:29Z</time>
      </trkpt>
      <trkpt lat="61.130634024739265" lon="10.431918036192656">
        <ele>155.38999999999999</ele>
        <time>2017-07-01T04:50:47Z</time>
      </trkpt>
      <trkpt lat="61.127778980880976" lon="10.436236979439855">
        <ele>147.69999999999999</ele>
        <time>2017-07-01T04:51:05Z</time>
      </trkpt>
      <trkpt lat="61.124643981456757" lon="10.440552989020944">
        <ele>138.09</ele>
        <time>2017-07-01T04:51:24Z</time>
      </trkpt>
      <trkpt lat="61.119891023263335" lon="10.44535799883306">
        <ele>141.93000000000001</ele>
        <time>2017-07-01T04:51:51Z</time>
      </trkpt>
      <trkpt lat="61.117838965728879" lon="10.446067024022341">
        <ele>138.09</ele>
        <time>2017-07-01T04:52:02Z</time>
      </trkpt>
      <trkpt lat="61.115550035610795" lon="10.445756977424026">
        <ele>140.00999999999999</ele>
        <time>2017-07-01T04:52:14Z</time>
      </trkpt>
      <trkpt lat="61.113521028310061" lon="10.444720974192023">
        <ele>139.53</ele>
        <time>2017-07-01T04:52:25Z</time>
      </trkpt>
      <trkpt lat="61.110235992819071" lon="10.442513013258576">
        <ele>139.05000000000001</ele>
        <time>2017-07-01T04:52:43Z</time>
      </trkpt>
      <trkpt lat="61.108476966619492" lon="10.442398013547063">
        <ele>138.09</ele>
        <time>2017-07-01T04:52:52Z</time>
      </trkpt>
      <trkpt lat="61.105993995442986" lon="10.442676041275263">
        <ele>136.16</ele>
        <time>2017-07-01T04:53:05Z</time>
      </trkpt>
      <trkpt lat="61.104508973658085" lon="10.441722013056278">
        <ele>134.72</ele>
        <time>2017-07-01T04:53:13Z</time>
      </trkpt>
      <trkpt lat="61.102621033787727" lon="10.439857039600611">
        <ele>134.72</ele>
        <time>2017-07-01T04:53:23Z</time>
      </trkpt>
      <trkpt lat="61.101107010617852" lon="10.439417995512486">
        <ele>135.68000000000001</ele>
        <time>2017-07-01T04:53:30Z</time>
      </trkpt>
      <trkpt lat="61.098794024437666" lon="10.43867502361536">
        <ele>137.61000000000001</ele>
        <time>2017-07-01T04:53:41Z</time>
      </trkpt>
      <trkpt lat="61.097045978531241" lon="10.436777025461197">
        <ele>136.63999999999999</ele>
        <time>2017-07-01T04:53:50Z</time>
      </trkpt>
      <trkpt lat="61.095401030033827" lon="10.435361992567778">
        <ele>135.19999999999999</ele>
        <time>2017-07-01T04:53:58Z</time>
      </trkpt>
      <trkpt lat="61.093460032716393" lon="10.434691021218896">
        <ele>137.13</ele>
        <time>2017-07-01T04:54:07Z</time>
      </trkpt>
      <trkpt lat="61.091492967680097" lon="10.433014975860715">
        <ele>135.68000000000001</ele>
        <time>2017-07-01T04:54:17Z</time>
      </trkpt>
      <trkpt lat="61.088716965168715" lon="10.430886978283525">
        <ele>136.63999999999999</ele>
        <time>2017-07-01T04:54:31Z</time>
      </trkpt>
      <trkpt lat="61.087041003629565" lon="10.43102896772325">
        <ele>135.68000000000001</ele>
        <time>2017-07-01T04:54:39Z</time>
      </trkpt>
      <trkpt lat="61.083808019757271" lon="10.431328034028411">
        <ele>135.68000000000001</ele>
        <time>2017-07-01T04:54:54Z</time>
      </trkpt>
      <trkpt lat="61.080360040068626" lon="10.430410970002413">
        <ele>134.72</ele>
        <time>2017-07-01T04:55:10Z</time>
      </trkpt>
      <trkpt lat="61.077841026708484" lon="10.430131014436483">
        <ele>135.68000000000001</ele>
        <time>2017-07-01T04:55:22Z</time>
      </trkpt>
      <trkpt lat="61.074904007837176" lon="10.431269025430083">
        <ele>135.19999999999999</ele>
        <time>2017-07-01T04:55:36Z</time>
      </trkpt>
      <trkpt lat="61.072560008615255" lon="10.431518973782659">
        <ele>134.72</ele>
        <time>2017-07-01T04:55:47Z</time>
      </trkpt>
      <trkpt lat="61.069816024973989" lon="10.430743983015418">
        <ele>135.68000000000001</ele>
        <time>2017-07-01T04:56:00Z</time>
      </trkpt>
      <trkpt lat="61.067090984433889" lon="10.43051297776401">
        <ele>136.63999999999999</ele>
        <time>2017-07-01T04:56:13Z</time>
      </trkpt>
      <trkpt lat="61.06208698824048" lon="10.430691009387374">
        <ele>140.49000000000001</ele>
        <time>2017-07-01T04:56:37Z</time>
      </trkpt>
      <trkpt lat="61.058750990778208" lon="10.4312629904598">
        <ele>140.97</ele>
        <time>2017-07-01T04:56:53Z</time>
      </trkpt>
      <trkpt lat="61.057312991470098" lon="10.432105036452413">
        <ele>141.44999999999999</ele>
        <time>2017-07-01T04:57:00Z</time>
      </trkpt>
      <trkpt lat="61.055348021909595" lon="10.43373104184866">
        <ele>143.37</ele>
        <time>2017-07-01T04:57:11Z</time>
      </trkpt>
      <trkpt lat="61.053864005953074" lon="10.434317020699382">
        <ele>142.88999999999999</ele>
        <time>2017-07-01T04:57:19Z</time>
      </trkpt>
      <trkpt lat="61.050806036219001" lon="10.435332991182804">
        <ele>139.05000000000001</ele>
        <time>2017-07-01T04:57:34Z</time>
      </trkpt>
      <trkpt lat="61.049091015011072" lon="10.435755020007491">
        <ele>138.09</ele>
        <time>2017-07-01T04:57:43Z</time>
      </trkpt>
      <trkpt lat="61.047802967950702" lon="10.435067033395171">
        <ele>136.63999999999999</ele>
        <time>2017-07-01T04:57:50Z</time>
      </trkpt>
      <trkpt lat="61.045946041122079" lon="10.434110993519425">
        <ele>138.09</ele>
        <time>2017-07-01T04:58:00Z</time>
      </trkpt>
      <trkpt lat="61.043299958109856" lon="10.434454986825585">
        <ele>133.75999999999999</ele>
        <time>2017-07-01T04:58:13Z</time>
      </trkpt>
      <trkpt lat="61.041970001533628" lon="10.435678996145725">
        <ele>135.19999999999999</ele>
        <time>2017-07-01T04:58:20Z</time>
      </trkpt>
      <trkpt lat="61.039430033415556" lon="10.438832016661763">
        <ele>142.41</ele>
        <time>2017-07-01T04:58:35Z</time>
      </trkpt>
      <trkpt lat="61.037558019161224" lon="10.440015038475394">
        <ele>141.44999999999999</ele>
        <time>2017-07-01T04:58:45Z</time>
      </trkpt>
      <trkpt lat="61.033701002597809" lon="10.441491007804871">
        <ele>136.16</ele>
        <time>2017-07-01T04:59:04Z</time>
      </trkpt>
      <trkpt lat="61.02927996776998" lon="10.443877000361681">
        <ele>142.41</ele>
        <time>2017-07-01T04:59:26Z</time>
      </trkpt>
      <trkpt lat="61.027271999046206" lon="10.445925034582615">
        <ele>144.34</ele>
        <time>2017-07-01T04:59:37Z</time>
      </trkpt>
      <trkpt lat="61.025630990043283" lon="10.448531974107027">
        <ele>143.84999999999999</ele>
        <time>2017-07-01T04:59:47Z</time>
      </trkpt>
      <trkpt lat="61.022793967276812" lon="10.453278981149197">
        <ele>152.50999999999999</ele>
        <time>2017-07-01T05:00:05Z</time>
      </trkpt>
      <trkpt lat="61.020016958937049" lon="10.456610033288598">
        <ele>158.27000000000001</ele>
        <time>2017-07-01T05:00:21Z</time>
      </trkpt>
      <trkpt lat="61.01804000325501" lon="10.459707984700799">
        <ele>160.68000000000001</ele>
        <time>2017-07-01T05:00:33Z</time>
      </trkpt>
      <trkpt lat="61.01640896871686" lon="10.463532982394099">
        <ele>164.03999999999999</ele>
        <time>2017-07-01T05:00:45Z</time>
      </trkpt>
      <trkpt lat="61.014255993068218" lon="10.470018982887268">
        <ele>170.77000000000001</ele>
        <time>2017-07-01T05:01:04Z</time>
      </trkpt>
      <trkpt lat="61.01200302131474" lon="10.475646005943418">
        <ele>170.28999999999999</ele>
        <time>2017-07-01T05:01:21Z</time>
      </trkpt>
      <trkpt lat="61.009471016004682" lon="10.480503989383578">
        <ele>166.44999999999999</ele>
        <time>2017-07-01T05:01:37Z</time>
      </trkpt>
      <trkpt lat="61.007286021485925" lon="10.484235025942326">
        <ele>163.08000000000001</ele>
        <time>2017-07-01T05:01:50Z</time>
      </trkpt>
      <trkpt lat="61.00437699817121" lon="10.489630959928036">
        <ele>161.63999999999999</ele>
        <time>2017-07-01T05:02:08Z</time>
      </trkpt>
      <trkpt lat="61.002648985013366" lon="10.493821995332837">
        <ele>155.87</ele>
        <time>2017-07-01T05:02:20Z</time>
      </trkpt>
      <trkpt lat="61.000606985762715" lon="10.498807970434427">
        <ele>144.34</ele>
        <time>2017-07-01T05:02:35Z</time>
      </trkpt>
      <trkpt lat="60.998842008411884" lon="10.501793017610908">
        <ele>143.37</ele>
        <time>2017-07-01T05:02:46Z</time>
      </trkpt>
      <trkpt lat="60.997174009680748" lon="10.505047040060163">
        <ele>147.69999999999999</ele>
        <time>2017-07-01T05:02:57Z</time>
      </trkpt>
      <trkpt lat="60.99621101282537" lon="10.508421007543802">
        <ele>152.50999999999999</ele>
        <time>2017-07-01T05:03:06Z</time>
      </trkpt>
      <trkpt lat="60.994589030742645" lon="10.514527978375554">
        <ele>158.27000000000001</ele>
        <time>2017-07-01T05:03:22Z</time>
      </trkpt>
      <trkpt lat="60.992490034550428" lon="10.520113008096814">
        <ele>163.56</ele>
        <time>2017-07-01T05:03:38Z</time>
      </trkpt>
      <trkpt lat="60.991275999695063" lon="10.52420899271965">
        <ele>168.84999999999999</ele>
        <time>2017-07-01T05:03:49Z</time>
      </trkpt>
      <trkpt lat="60.990519030019641" lon="10.529070999473333">
        <ele>173.16999999999999</ele>
        <time>2017-07-01T05:04:01Z</time>
      </trkpt>
      <trkpt lat="60.989648988470435" lon="10.538120018318295">
        <ele>181.34999999999999</ele>
        <time>2017-07-01T05:04:23Z</time>
      </trkpt>
      <trkpt lat="60.988714993000031" lon="10.546110989525914">
        <ele>180.38</ele>
        <time>2017-07-01T05:04:42Z</time>
      </trkpt>
      <trkpt lat="60.987511016428471" lon="10.552330026403069">
        <ele>174.62</ele>
        <time>2017-07-01T05:04:57Z</time>
      </trkpt>
      <trkpt lat="60.985919963568449" lon="10.558038018643856">
        <ele>169.81</ele>
        <time>2017-07-01T05:05:12Z</time>
      </trkpt>
      <trkpt lat="60.983285028487444" lon="10.566426962614059">
        <ele>178.94</ele>
        <time>2017-07-01T05:05:34Z</time>
      </trkpt>
      <trkpt lat="60.981518961489201" lon="10.572905000299215">
        <ele>187.59</ele>
        <time>2017-07-01T05:05:50Z</time>
      </trkpt>
      <trkpt lat="60.979702016338706" lon="10.579445986077189">
        <ele>184.71000000000001</ele>
        <time>2017-07-01T05:06:06Z</time>
      </trkpt>
      <trkpt lat="60.978338029235601" lon="10.582045968621969">
        <ele>181.34999999999999</ele>
        <time>2017-07-01T05:06:14Z</time>
      </trkpt>
      <trkpt lat="60.975806023925543" lon="10.586381005123258">
        <ele>174.62</ele>
        <time>2017-07-01T05:06:28Z</time>
      </trkpt>
      <trkpt lat="60.974083039909601" lon="10.590389985591173">
        <ele>168.37</ele>
        <time>2017-07-01T05:06:39Z</time>
      </trkpt>
      <trkpt lat="60.971792014315724" lon="10.595031967386603">
        <ele>159.72</ele>
        <time>2017-07-01T05:06:53Z</time>
      </trkpt>
      <trkpt lat="60.96862499602139" lon="10.600360007956624">
        <ele>143.84999999999999</ele>
        <time>2017-07-01T05:07:11Z</time>
      </trkpt>
      <trkpt lat="60.967016005888581" lon="10.604410981759429">
        <ele>136.63999999999999</ele>
        <time>2017-07-01T05:07:22Z</time>
      </trkpt>
      <trkpt lat="60.965953012928367" lon="10.608575027436018">
        <ele>132.31999999999999</ele>
        <time>2017-07-01T05:07:32Z</time>
      </trkpt>
      <trkpt lat="60.964698996394873" lon="10.614913003519177">
        <ele>131.84</ele>
        <time>2017-07-01T05:07:47Z</time>
      </trkpt>
      <trkpt lat="60.963674979284406" lon="10.617855973541737">
        <ele>132.31999999999999</ele>
        <time>2017-07-01T05:07:55Z</time>
      </trkpt>
      <trkpt lat="60.96224301494658" lon="10.620265016332269">
        <ele>131.36000000000001</ele>
        <time>2017-07-01T05:08:03Z</time>
      </trkpt>
      <trkpt lat="60.960378963500261" lon="10.62200702726841">
        <ele>130.40000000000001</ele>
        <time>2017-07-01T05:08:12Z</time>
      </trkpt>
      <trkpt lat="60.957833966240287" lon="10.623318962752819">
        <ele>131.36000000000001</ele>
        <time>2017-07-01T05:08:24Z</time>
      </trkpt>
      <trkpt lat="60.954878004267812" lon="10.624957038089633">
        <ele>130.88</ele>
        <time>2017-07-01T05:08:38Z</time>
      </trkpt>
      <trkpt lat="60.953178992494941" lon="10.627002976834774">
        <ele>129.91999999999999</ele>
        <time>2017-07-01T05:08:47Z</time>
      </trkpt>
      <trkpt lat="60.951998988166451" lon="10.629778979346156">
        <ele>129.91999999999999</ele>
        <time>2017-07-01T05:08:55Z</time>
      </trkpt>
      <trkpt lat="60.951254004612565" lon="10.633188989013433">
        <ele>129.91999999999999</ele>
        <time>2017-07-01T05:09:03Z</time>
      </trkpt>
      <trkpt lat="60.950262006372213" lon="10.637722006067634">
        <ele>129.91999999999999</ele>
        <time>2017-07-01T05:09:14Z</time>
      </trkpt>
      <trkpt lat="60.949163977056742" lon="10.639836005866528">
        <ele>130.40000000000001</ele>
        <time>2017-07-01T05:09:21Z</time>
      </trkpt>
      <trkpt lat="60.947740981355309" lon="10.641054986044765">
        <ele>130.88</ele>
        <time>2017-07-01T05:09:28Z</time>
      </trkpt>
      <trkpt lat="60.945719014853239" lon="10.641507022082806">
        <ele>130.40000000000001</ele>
        <time>2017-07-01T05:09:37Z</time>
      </trkpt>
      <trkpt lat="60.943909026682377" lon="10.641997028142214">
        <ele>130.40000000000001</ele>
        <time>2017-07-01T05:09:46Z</time>
      </trkpt>
      <trkpt lat="60.943620018661022" lon="10.642040027305484">
        <ele>129.43000000000001</ele>
        <time>2017-07-01T05:09:51Z</time>
      </trkpt>
      <trkpt lat="60.943599985912442" lon="10.642059976235032">
        <ele>129.91999999999999</ele>
        <time>2017-07-01T05:10:04Z</time>
      </trkpt>
      <trkpt lat="60.943554975092411" lon="10.64211898483336">
        <ele>129.91999999999999</ele>
        <time>2017-07-01T05:10:35Z</time>
      </trkpt>
      <trkpt lat="60.943498983979225" lon="10.642168018966913">
        <ele>129.91999999999999</ele>
        <time>2017-07-01T05:10:36Z</time>
      </trkpt>
      <trkpt lat="60.942775039002299" lon="10.64259197562933">
        <ele>130.40000000000001</ele>
        <time>2017-07-01T05:10:43Z</time>
      </trkpt>
      <trkpt lat="60.941621018573642" lon="10.643326984718442">
        <ele>131.36000000000001</ele>
        <time>2017-07-01T05:10:51Z</time>
      </trkpt>
      <trkpt lat="60.940295001491904" lon="10.644311020150781">
        <ele>131.36000000000001</ele>
        <time>2017-07-01T05:10:59Z</time>
      </trkpt>
      <trkpt lat="60.938349980860949" lon="10.646181022748351">
        <ele>131.36000000000001</ele>
        <time>2017-07-01T05:11:09Z</time>
      </trkpt>
      <trkpt lat="60.936088962480426" lon="10.649028019979596">
        <ele>131.84</ele>
        <time>2017-07-01T05:11:21Z</time>
      </trkpt>
      <trkpt lat="60.933772036805749" lon="10.652393018826842">
        <ele>134.72</ele>
        <time>2017-07-01T05:11:35Z</time>
      </trkpt>
      <trkpt lat="60.931836990639567" lon="10.654061017557979">
        <ele>133.75999999999999</ele>
        <time>2017-07-01T05:11:45Z</time>
      </trkpt>
      <trkpt lat="60.930324979126453" lon="10.654713967815042">
        <ele>132.31999999999999</ele>
        <time>2017-07-01T05:11:53Z</time>
      </trkpt>
      <trkpt lat="60.929755009710789" lon="10.65503197722137">
        <ele>131.36000000000001</ele>
        <time>2017-07-01T05:11:57Z</time>
      </trkpt>
      <trkpt lat="60.929641015827656" lon="10.655041029676795">
        <ele>131.36000000000001</ele>
        <time>2017-07-01T05:11:58Z</time>
      </trkpt>
      <trkpt lat="60.929530961439013" lon="10.655001970008016">
        <ele>131.36000000000001</ele>
        <time>2017-07-01T05:11:59Z</time>
      </trkpt>
      <trkpt lat="60.929199038073421" lon="10.654910020530224">
        <ele>130.88</ele>
        <time>2017-07-01T05:12:02Z</time>
      </trkpt>
      <trkpt lat="60.929082026705146" lon="10.654958970844746">
        <ele>130.88</ele>
        <time>2017-07-01T05:12:03Z</time>
      </trkpt>
      <trkpt lat="60.928823025897145" lon="10.655102971941233">
        <ele>130.40000000000001</ele>
        <time>2017-07-01T05:12:05Z</time>
      </trkpt>
      <trkpt lat="60.928672989830375" lon="10.655148988589644">
        <ele>130.40000000000001</ele>
        <time>2017-07-01T05:12:06Z</time>
      </trkpt>
      <trkpt lat="60.927254017442465" lon="10.65544000826776">
        <ele>131.36000000000001</ele>
        <time>2017-07-01T05:12:14Z</time>
      </trkpt>
      <trkpt lat="60.925196008756757" lon="10.656408034265041">
        <ele>130.88</ele>
        <time>2017-07-01T05:12:24Z</time>
      </trkpt>
      <trkpt lat="60.923016965389252" lon="10.658157002180815">
        <ele>134.24000000000001</ele>
        <time>2017-07-01T05:12:35Z</time>
      </trkpt>
      <trkpt lat="60.92041396535933" lon="10.660028010606766">
        <ele>134.24000000000001</ele>
        <time>2017-07-01T05:12:48Z</time>
      </trkpt>
      <trkpt lat="60.918936990201473" lon="10.661802962422371">
        <ele>138.09</ele>
        <time>2017-07-01T05:12:56Z</time>
      </trkpt>
      <trkpt lat="60.917455991730094" lon="10.662446022033691">
        <ele>140.97</ele>
        <time>2017-07-01T05:13:03Z</time>
      </trkpt>
      <trkpt lat="60.915979016572237" lon="10.661857025697827">
        <ele>140.00999999999999</ele>
        <time>2017-07-01T05:13:10Z</time>
      </trkpt>
      <trkpt lat="60.914297020062804" lon="10.660971980541945">
        <ele>139.53</ele>
        <time>2017-07-01T05:13:19Z</time>
      </trkpt>
      <trkpt lat="60.912798000499606" lon="10.661332989111543">
        <ele>140.00999999999999</ele>
        <time>2017-07-01T05:13:27Z</time>
      </trkpt>
      <trkpt lat="60.909158997237682" lon="10.663028983399272">
        <ele>145.30000000000001</ele>
        <time>2017-07-01T05:13:47Z</time>
      </trkpt>
      <trkpt lat="60.907068969681859" lon="10.662857992574573">
        <ele>143.84999999999999</ele>
        <time>2017-07-01T05:13:58Z</time>
      </trkpt>
      <trkpt lat="60.904946001246572" lon="10.663117999210954">
        <ele>143.84999999999999</ele>
        <time>2017-07-01T05:14:09Z</time>
      </trkpt>
      <trkpt lat="60.902136974036694" lon="10.664092982187867">
        <ele>144.81999999999999</ele>
        <time>2017-07-01T05:14:24Z</time>
      </trkpt>
      <trkpt lat="60.90062202885747" lon="10.663438020274043">
        <ele>146.25999999999999</ele>
        <time>2017-07-01T05:14:32Z</time>
      </trkpt>
      <trkpt lat="60.898771975189447" lon="10.662326999008656">
        <ele>147.22</ele>
        <time>2017-07-01T05:14:41Z</time>
      </trkpt>
      <trkpt lat="60.897180000320077" lon="10.662613995373249">
        <ele>144.34</ele>
        <time>2017-07-01T05:14:48Z</time>
      </trkpt>
      <trkpt lat="60.895695984363556" lon="10.664069009944797">
        <ele>141.44999999999999</ele>
        <time>2017-07-01T05:14:55Z</time>
      </trkpt>
      <trkpt lat="60.893907034769654" lon="10.667153969407082">
        <ele>135.68000000000001</ele>
        <time>2017-07-01T05:15:05Z</time>
      </trkpt>
      <trkpt lat="60.892403991892934" lon="10.669010980054736">
        <ele>132.31999999999999</ele>
        <time>2017-07-01T05:15:13Z</time>
      </trkpt>
      <trkpt lat="60.890169041231275" lon="10.670326016843319">
        <ele>133.75999999999999</ele>
        <time>2017-07-01T05:15:24Z</time>
      </trkpt>
      <trkpt lat="60.886837989091873" lon="10.672360975295305">
        <ele>141.93000000000001</ele>
        <time>2017-07-01T05:15:41Z</time>
      </trkpt>
      <trkpt lat="60.885141994804144" lon="10.674405992031097">
        <ele>146.25999999999999</ele>
        <time>2017-07-01T05:15:51Z</time>
      </trkpt>
      <trkpt lat="60.884003983810544" lon="10.676914025098085">
        <ele>147.69999999999999</ele>
        <time>2017-07-01T05:15:59Z</time>
      </trkpt>
      <trkpt lat="60.883403001353145" lon="10.67973998375237">
        <ele>149.13999999999999</ele>
        <time>2017-07-01T05:16:06Z</time>
      </trkpt>
      <trkpt lat="60.882945014163852" lon="10.684074014425278">
        <ele>149.13999999999999</ele>
        <time>2017-07-01T05:16:16Z</time>
      </trkpt>
      <trkpt lat="60.882224002853036" lon="10.686718001961708">
        <ele>148.66</ele>
        <time>2017-07-01T05:16:23Z</time>
      </trkpt>
      <trkpt lat="60.8810930326581" lon="10.688748015090823">
        <ele>148.66</ele>
        <time>2017-07-01T05:16:30Z</time>
      </trkpt>
      <trkpt lat="60.878745010122657" lon="10.691347997635603">
        <ele>147.22</ele>
        <time>2017-07-01T05:16:42Z</time>
      </trkpt>
      <trkpt lat="60.875424016267061" lon="10.694990018382668">
        <ele>144.34</ele>
        <time>2017-07-01T05:16:59Z</time>
      </trkpt>
      <trkpt lat="60.873629031702876" lon="10.696249986067414">
        <ele>140.49000000000001</ele>
        <time>2017-07-01T05:17:08Z</time>
      </trkpt>
      <trkpt lat="60.870787985622883" lon="10.697694020345807">
        <ele>135.19999999999999</ele>
        <time>2017-07-01T05:17:24Z</time>
      </trkpt>
      <trkpt lat="60.86839796975255" lon="10.697723021730781">
        <ele>133.75999999999999</ele>
        <time>2017-07-01T05:17:37Z</time>
      </trkpt>
      <trkpt lat="60.866577001288533" lon="10.69881702773273">
        <ele>134.24000000000001</ele>
        <time>2017-07-01T05:17:47Z</time>
      </trkpt>
      <trkpt lat="60.864719990640879" lon="10.699810031801462">
        <ele>138.56999999999999</ele>
        <time>2017-07-01T05:17:57Z</time>
      </trkpt>
      <trkpt lat="60.863046040758491" lon="10.699519012123346">
        <ele>143.84999999999999</ele>
        <time>2017-07-01T05:18:05Z</time>
      </trkpt>
      <trkpt lat="60.859658997505903" lon="10.698788026347756">
        <ele>158.27000000000001</ele>
        <time>2017-07-01T05:18:21Z</time>
      </trkpt>
      <trkpt lat="60.857369983568788" lon="10.698272036388516">
        <ele>168.84999999999999</ele>
        <time>2017-07-01T05:18:32Z</time>
      </trkpt>
      <trkpt lat="60.855850009247661" lon="10.69673496298492">
        <ele>176.06</ele>
        <time>2017-07-01T05:18:40Z</time>
      </trkpt>
      <trkpt lat="60.854420978575945" lon="10.694099022075534">
        <ele>179.90000000000001</ele>
        <time>2017-07-01T05:18:49Z</time>
      </trkpt>
      <trkpt lat="60.853189006447792" lon="10.692615006119013">
        <ele>180.87</ele>
        <time>2017-07-01T05:18:56Z</time>
      </trkpt>
      <trkpt lat="60.850092982873321" lon="10.69043998606503">
        <ele>183.75</ele>
        <time>2017-07-01T05:19:12Z</time>
      </trkpt>
      <trkpt lat="60.845272969454527" lon="10.687070963904262">
        <ele>188.08000000000001</ele>
        <time>2017-07-01T05:19:36Z</time>
      </trkpt>
      <trkpt lat="60.842649014666677" lon="10.684781027957797">
        <ele>196.72999999999999</ele>
        <time>2017-07-01T05:19:49Z</time>
      </trkpt>
      <trkpt lat="60.840977998450398" lon="10.682546999305487">
        <ele>200.09</ele>
        <time>2017-07-01T05:19:58Z</time>
      </trkpt>
      <trkpt lat="60.839644018560648" lon="10.682108039036393">
        <ele>200.09</ele>
        <time>2017-07-01T05:20:04Z</time>
      </trkpt>
      <trkpt lat="60.837375959381461" lon="10.682586980983615">
        <ele>200.09</ele>
        <time>2017-07-01T05:20:14Z</time>
      </trkpt>
      <trkpt lat="60.835356004536152" lon="10.682206023484468">
        <ele>198.65000000000001</ele>
        <time>2017-07-01T05:20:23Z</time>
      </trkpt>
      <trkpt lat="60.832920977845788" lon="10.680734999477863">
        <ele>192.88</ele>
        <time>2017-07-01T05:20:34Z</time>
      </trkpt>
      <trkpt lat="60.829410972073674" lon="10.677820025011897">
        <ele>185.66999999999999</ele>
        <time>2017-07-01T05:20:50Z</time>
      </trkpt>
      <trkpt lat="60.826790034770966" lon="10.675953961908817">
        <ele>180.38</ele>
        <time>2017-07-01T05:21:02Z</time>
      </trkpt>
      <trkpt lat="60.824294993653893" lon="10.67509800195694">
        <ele>176.06</ele>
        <time>2017-07-01T05:21:13Z</time>
      </trkpt>
      <trkpt lat="60.822435971349478" lon="10.673451041802764">
        <ele>170.28999999999999</ele>
        <time>2017-07-01T05:21:22Z</time>
      </trkpt>
      <trkpt lat="60.82072296179831" lon="10.672550993040204">
        <ele>165</ele>
        <time>2017-07-01T05:21:30Z</time>
      </trkpt>
      <trkpt lat="60.818914985284209" lon="10.6727359816432">
        <ele>158.75</ele>
        <time>2017-07-01T05:21:38Z</time>
      </trkpt>
      <trkpt lat="60.817161994054914" lon="10.674010030925274">
        <ele>151.06</ele>
        <time>2017-07-01T05:21:46Z</time>
      </trkpt>
      <trkpt lat="60.815617041662335" lon="10.676197037100792">
        <ele>144.81999999999999</ele>
        <time>2017-07-01T05:21:54Z</time>
      </trkpt>
      <trkpt lat="60.813568001613021" lon="10.679183006286621">
        <ele>136.16</ele>
        <time>2017-07-01T05:22:05Z</time>
      </trkpt>
      <trkpt lat="60.811815010383725" lon="10.680115995928645">
        <ele>130.88</ele>
        <time>2017-07-01T05:22:13Z</time>
      </trkpt>
      <trkpt lat="60.810411041602492" lon="10.681536979973316">
        <ele>128.47</ele>
        <time>2017-07-01T05:22:20Z</time>
      </trkpt>
      <trkpt lat="60.808959966525435" lon="10.684356987476349">
        <ele>128.94999999999999</ele>
        <time>2017-07-01T05:22:29Z</time>
      </trkpt>
      <trkpt lat="60.807629004120827" lon="10.68603596650064">
        <ele>130.40000000000001</ele>
        <time>2017-07-01T05:22:36Z</time>
      </trkpt>
      <trkpt lat="60.80611003562808" lon="10.686577018350363">
        <ele>129.91999999999999</ele>
        <time>2017-07-01T05:22:43Z</time>
      </trkpt>
      <trkpt lat="60.804366013035178" lon="10.68616496399045">
        <ele>128.94999999999999</ele>
        <time>2017-07-01T05:22:51Z</time>
      </trkpt>
      <trkpt lat="60.803160024806857" lon="10.68663602694869">
        <ele>129.43000000000001</ele>
        <time>2017-07-01T05:22:57Z</time>
      </trkpt>
      <trkpt lat="60.802140031009912" lon="10.688085006549954">
        <ele>130.40000000000001</ele>
        <time>2017-07-01T05:23:03Z</time>
      </trkpt>
      <trkpt lat="60.801485991105437" lon="10.690219039097428">
        <ele>130.88</ele>
        <time>2017-07-01T05:23:09Z</time>
      </trkpt>
      <trkpt lat="60.801035966724157" lon="10.692701004445553">
        <ele>129.91999999999999</ele>
        <time>2017-07-01T05:23:17Z</time>
      </trkpt>
      <trkpt lat="60.800230968743563" lon="10.694631021469831">
        <ele>129.43000000000001</ele>
        <time>2017-07-01T05:23:25Z</time>
      </trkpt>
      <trkpt lat="60.799179039895535" lon="10.695795016363263">
        <ele>129.43000000000001</ele>
        <time>2017-07-01T05:23:33Z</time>
      </trkpt>
      <trkpt lat="60.798821970820427" lon="10.695978999137878">
        <ele>129.43000000000001</ele>
        <time>2017-07-01T05:23:36Z</time>
      </trkpt>
      <trkpt lat="60.798710994422436" lon="10.69598201662302">
        <ele>129.43000000000001</ele>
        <time>2017-07-01T05:23:37Z</time>
      </trkpt>
      <trkpt lat="60.798609992489219" lon="10.695945974439383">
        <ele>128.94999999999999</ele>
        <time>2017-07-01T05:23:38Z</time>
      </trkpt>
      <trkpt lat="60.798417963087559" lon="10.695945974439383">
        <ele>129.43000000000001</ele>
        <time>2017-07-01T05:23:40Z</time>
      </trkpt>
      <trkpt lat="60.798325007781386" lon="10.696005988866091">
        <ele>129.43000000000001</ele>
        <time>2017-07-01T05:23:41Z</time>
      </trkpt>
      <trkpt lat="60.797994006425142" lon="10.696136998012662">
        <ele>128.94999999999999</ele>
        <time>2017-07-01T05:23:44Z</time>
      </trkpt>
      <trkpt lat="60.796749964356422" lon="10.696222996339202">
        <ele>130.40000000000001</ele>
        <time>2017-07-01T05:23:52Z</time>
      </trkpt>
      <trkpt lat="60.795629974454641" lon="10.696403039619327">
        <ele>132.31999999999999</ele>
        <time>2017-07-01T05:24:00Z</time>
      </trkpt>
      <trkpt lat="60.795514974743128" lon="10.696475962176919">
        <ele>132.31999999999999</ele>
        <time>2017-07-01T05:24:01Z</time>
      </trkpt>
      <trkpt lat="60.794542003422976" lon="10.697134025394917">
        <ele>132.80000000000001</ele>
        <time>2017-07-01T05:24:08Z</time>
      </trkpt>
      <trkpt lat="60.793659975752234" lon="10.697321025654674">
        <ele>131.36000000000001</ele>
        <time>2017-07-01T05:24:14Z</time>
      </trkpt>
      <trkpt lat="60.793527960777283" lon="10.697281965985894">
        <ele>130.88</ele>
        <time>2017-07-01T05:24:15Z</time>
      </trkpt>
      <trkpt lat="60.793404998257756" lon="10.697219017893076">
        <ele>129.91999999999999</ele>
        <time>2017-07-01T05:24:16Z</time>
      </trkpt>
      <trkpt lat="60.79328203573823" lon="10.697143999859691">
        <ele>129.91999999999999</ele>
        <time>2017-07-01T05:24:17Z</time>
      </trkpt>
      <trkpt lat="60.793162006884813" lon="10.697050038725138">
        <ele>129.43000000000001</ele>
        <time>2017-07-01T05:24:18Z</time>
      </trkpt>
      <trkpt lat="60.793051030486822" lon="10.696940990164876">
        <ele>129.43000000000001</ele>
        <time>2017-07-01T05:24:19Z</time>
      </trkpt>
      <trkpt lat="60.792775014415383" lon="10.696569001302123">
        <ele>129.91999999999999</ele>
        <time>2017-07-01T05:24:22Z</time>
      </trkpt>
      <trkpt lat="60.792707959190011" lon="10.696419971063733">
        <ele>129.91999999999999</ele>
        <time>2017-07-01T05:24:23Z</time>
      </trkpt>
      <trkpt lat="60.792649034410715" lon="10.696245962753892">
        <ele>130.40000000000001</ele>
        <time>2017-07-01T05:24:24Z</time>
      </trkpt>
      <trkpt lat="60.791279012337327" lon="10.691712023690343">
        <ele>140.49000000000001</ele>
        <time>2017-07-01T05:24:42Z</time>
      </trkpt>
      <trkpt lat="60.791134005412459" lon="10.691533992066979">
        <ele>142.41</ele>
        <time>2017-07-01T05:24:43Z</time>
      </trkpt>
      <trkpt lat="60.790966032072902" lon="10.691394014284015">
        <ele>142.88999999999999</ele>
        <time>2017-07-01T05:24:44Z</time>
      </trkpt>
      <trkpt lat="60.790837034583092" lon="10.691258981823921">
        <ele>142.88999999999999</ele>
        <time>2017-07-01T05:24:45Z</time>
      </trkpt>
      <trkpt lat="60.790686998516321" lon="10.691153034567833">
        <ele>142.41</ele>
        <time>2017-07-01T05:24:46Z</time>
      </trkpt>
      <trkpt lat="60.790418023243546" lon="10.690884981304407">
        <ele>142.88999999999999</ele>
        <time>2017-07-01T05:24:48Z</time>
      </trkpt>
      <trkpt lat="60.790291037410498" lon="10.690709967166185">
        <ele>142.41</ele>
        <time>2017-07-01T05:24:49Z</time>
      </trkpt>
      <trkpt lat="60.790166985243559" lon="10.690513998270035">
        <ele>141.93000000000001</ele>
        <time>2017-07-01T05:24:50Z</time>
      </trkpt>
      <trkpt lat="60.790076041594148" lon="10.690250974148512">
        <ele>141.93000000000001</ele>
        <time>2017-07-01T05:24:51Z</time>
      </trkpt>
      <trkpt lat="60.789990965276957" lon="10.68996598944068">
        <ele>142.41</ele>
        <time>2017-07-01T05:24:52Z</time>
      </trkpt>
      <trkpt lat="60.78993103466928" lon="10.689632976427674">
        <ele>142.88999999999999</ele>
        <time>2017-07-01T05:24:53Z</time>
      </trkpt>
      <trkpt lat="60.789899015799165" lon="10.689282026141882">
        <ele>143.37</ele>
        <time>2017-07-01T05:24:54Z</time>
      </trkpt>
      <trkpt lat="60.789887029677629" lon="10.688941972330213">
        <ele>143.84999999999999</ele>
        <time>2017-07-01T05:24:55Z</time>
      </trkpt>
      <trkpt lat="60.789909996092319" lon="10.688588004559278">
        <ele>144.81999999999999</ele>
        <time>2017-07-01T05:24:56Z</time>
      </trkpt>
      <trkpt lat="60.789961041882634" lon="10.68824702873826">
        <ele>145.30000000000001</ele>
        <time>2017-07-01T05:24:57Z</time>
      </trkpt>
      <trkpt lat="60.790026001632214" lon="10.687938993796706">
        <ele>145.78</ele>
        <time>2017-07-01T05:24:58Z</time>
      </trkpt>
      <trkpt lat="60.790110994130373" lon="10.687655014917254">
        <ele>146.25999999999999</ele>
        <time>2017-07-01T05:24:59Z</time>
      </trkpt>
      <trkpt lat="60.790214007720351" lon="10.687385033816099">
        <ele>147.22</ele>
        <time>2017-07-01T05:25:00Z</time>
      </trkpt>
      <trkpt lat="60.790329007431865" lon="10.687136007472873">
        <ele>147.69999999999999</ele>
        <time>2017-07-01T05:25:01Z</time>
      </trkpt>
      <trkpt lat="60.791208017617464" lon="10.685062995180488">
        <ele>158.27000000000001</ele>
        <time>2017-07-01T05:25:09Z</time>
      </trkpt>
      <trkpt lat="60.791282029822469" lon="10.684767030179501">
        <ele>159.24000000000001</ele>
        <time>2017-07-01T05:25:10Z</time>
      </trkpt>
      <trkpt lat="60.791335003450513" lon="10.684447009116411">
        <ele>159.72</ele>
        <time>2017-07-01T05:25:11Z</time>
      </trkpt>
      <trkpt lat="60.791371967643499" lon="10.684111984446645">
        <ele>160.68000000000001</ele>
        <time>2017-07-01T05:25:12Z</time>
      </trkpt>
      <trkpt lat="60.791390994563699" lon="10.683768996968865">
        <ele>161.63999999999999</ele>
        <time>2017-07-01T05:25:13Z</time>
      </trkpt>
      <trkpt lat="60.791398035362363" lon="10.683417962864041">
        <ele>162.59999999999999</ele>
        <time>2017-07-01T05:25:14Z</time>
      </trkpt>
      <trkpt lat="60.791379008442163" lon="10.683071035891771">
        <ele>164.03999999999999</ele>
        <time>2017-07-01T05:25:15Z</time>
      </trkpt>
      <trkpt lat="60.791342966258526" lon="10.68272695876658">
        <ele>165.47999999999999</ele>
        <time>2017-07-01T05:25:16Z</time>
      </trkpt>
      <trkpt lat="60.791279012337327" lon="10.682377014309168">
        <ele>165.96000000000001</ele>
        <time>2017-07-01T05:25:17Z</time>
      </trkpt>
      <trkpt lat="60.791199970990419" lon="10.682042995467782">
        <ele>166.93000000000001</ele>
        <time>2017-07-01T05:25:18Z</time>
      </trkpt>
      <trkpt lat="60.791099974885583" lon="10.681724986061454">
        <ele>167.41</ele>
        <time>2017-07-01T05:25:19Z</time>
      </trkpt>
      <trkpt lat="60.790983969345689" lon="10.681435978040099">
        <ele>167.88999999999999</ele>
        <time>2017-07-01T05:25:20Z</time>
      </trkpt>
      <trkpt lat="60.790851032361388" lon="10.681160967797041">
        <ele>168.37</ele>
        <time>2017-07-01T05:25:21Z</time>
      </trkpt>
      <trkpt lat="60.790704013779759" lon="10.680912025272846">
        <ele>168.84999999999999</ele>
        <time>2017-07-01T05:25:22Z</time>
      </trkpt>
      <trkpt lat="60.790545009076595" lon="10.680675990879536">
        <ele>168.84999999999999</ele>
        <time>2017-07-01T05:25:23Z</time>
      </trkpt>
      <trkpt lat="60.788656985387206" lon="10.677453987300396">
        <ele>177.5</ele>
        <time>2017-07-01T05:25:35Z</time>
      </trkpt>
      <trkpt lat="60.788531005382538" lon="10.677121980115771">
        <ele>177.97999999999999</ele>
        <time>2017-07-01T05:25:36Z</time>
      </trkpt>
      <trkpt lat="60.788419023156166" lon="10.67677203565836">
        <ele>178.46000000000001</ele>
        <time>2017-07-01T05:25:37Z</time>
      </trkpt>
      <trkpt lat="60.788336964324117" lon="10.676398035138845">
        <ele>179.41999999999999</ele>
        <time>2017-07-01T05:25:38Z</time>
      </trkpt>
      <trkpt lat="60.788273010402918" lon="10.676010958850384">
        <ele>179.90000000000001</ele>
        <time>2017-07-01T05:25:39Z</time>
      </trkpt>
      <trkpt lat="60.788229005411267" lon="10.675618015229702">
        <ele>180.38</ele>
        <time>2017-07-01T05:25:40Z</time>
      </trkpt>
      <trkpt lat="60.788201009854674" lon="10.675217024981976">
        <ele>180.38</ele>
        <time>2017-07-01T05:25:41Z</time>
      </trkpt>
      <trkpt lat="60.788182988762856" lon="10.674814023077488">
        <ele>180.87</ele>
        <time>2017-07-01T05:25:42Z</time>
      </trkpt>
      <trkpt lat="60.787924993783236" lon="10.670388964936137">
        <ele>182.31</ele>
        <time>2017-07-01T05:25:53Z</time>
      </trkpt>
      <trkpt lat="60.787301966920495" lon="10.668006995692849">
        <ele>183.75</ele>
        <time>2017-07-01T05:26:00Z</time>
      </trkpt>
      <trkpt lat="60.785888023674488" lon="10.664682984352112">
        <ele>188.56</ele>
        <time>2017-07-01T05:26:11Z</time>
      </trkpt>
      <trkpt lat="60.784878004342318" lon="10.661589978262782">
        <ele>193.36000000000001</ele>
        <time>2017-07-01T05:26:20Z</time>
      </trkpt>
      <trkpt lat="60.784662002697587" lon="10.659345975145698">
        <ele>196.25</ele>
        <time>2017-07-01T05:26:26Z</time>
      </trkpt>
      <trkpt lat="60.784553037956357" lon="10.655398014932871">
        <ele>202.97999999999999</ele>
        <time>2017-07-01T05:26:37Z</time>
      </trkpt>
      <trkpt lat="60.784496963024139" lon="10.655062990263104">
        <ele>203.94</ele>
        <time>2017-07-01T05:26:38Z</time>
      </trkpt>
      <trkpt lat="60.783936968073249" lon="10.652879001572728">
        <ele>203.94</ele>
        <time>2017-07-01T05:26:46Z</time>
      </trkpt>
      <trkpt lat="60.783823980018497" lon="10.652444986626506">
        <ele>203.46000000000001</ele>
        <time>2017-07-01T05:26:48Z</time>
      </trkpt>
      <trkpt lat="60.783795984461904" lon="10.652229990810156">
        <ele>203.46000000000001</ele>
        <time>2017-07-01T05:26:49Z</time>
      </trkpt>
      <trkpt lat="60.783685008063912" lon="10.651700003072619">
        <ele>203.46000000000001</ele>
        <time>2017-07-01T05:26:52Z</time>
      </trkpt>
      <trkpt lat="60.783613007515669" lon="10.651619033887982">
        <ele>203.46000000000001</ele>
        <time>2017-07-01T05:26:53Z</time>
      </trkpt>
      <trkpt lat="60.783522985875607" lon="10.651593971997499">
        <ele>202.97999999999999</ele>
        <time>2017-07-01T05:26:54Z</time>
      </trkpt>
      <trkpt lat="60.783217968419194" lon="10.651474026963115">
        <ele>202.97999999999999</ele>
        <time>2017-07-01T05:26:57Z</time>
      </trkpt>
      <trkpt lat="60.783115960657597" lon="10.651347041130066">
        <ele>202.97999999999999</ele>
        <time>2017-07-01T05:26:58Z</time>
      </trkpt>
      <trkpt lat="60.78301495872438" lon="10.651172026991844">
        <ele>203.46000000000001</ele>
        <time>2017-07-01T05:26:59Z</time>
      </trkpt>
      <trkpt lat="60.782920997589827" lon="10.650971028953791">
        <ele>203.94</ele>
        <time>2017-07-01T05:27:00Z</time>
      </trkpt>
      <trkpt lat="60.782829970121384" lon="10.650752009823918">
        <ele>204.90000000000001</ele>
        <time>2017-07-01T05:27:01Z</time>
      </trkpt>
      <trkpt lat="60.78181098215282" lon="10.648614959791303">
        <ele>212.59</ele>
        <time>2017-07-01T05:27:10Z</time>
      </trkpt>
      <trkpt lat="60.780542967841029" lon="10.6471489649266">
        <ele>218.84</ele>
        <time>2017-07-01T05:27:18Z</time>
      </trkpt>
      <trkpt lat="60.778513960540295" lon="10.645718006417155">
        <ele>227.49000000000001</ele>
        <time>2017-07-01T05:27:29Z</time>
      </trkpt>
      <trkpt lat="60.775528997182846" lon="10.644291993230581">
        <ele>236.13999999999999</ele>
        <time>2017-07-01T05:27:43Z</time>
      </trkpt>
      <trkpt lat="60.772773027420044" lon="10.642401035875082">
        <ele>250.08000000000001</ele>
        <time>2017-07-01T05:27:56Z</time>
      </trkpt>
      <trkpt lat="60.770357027649879" lon="10.641329996287823">
        <ele>257.29000000000002</ele>
        <time>2017-07-01T05:28:07Z</time>
      </trkpt>
      <trkpt lat="60.76900402083993" lon="10.639706002548337">
        <ele>263.06</ele>
        <time>2017-07-01T05:28:14Z</time>
      </trkpt>
      <trkpt lat="60.767196966335177" lon="10.637717982754111">
        <ele>270.75</ele>
        <time>2017-07-01T05:28:23Z</time>
      </trkpt>
      <trkpt lat="60.765809006989002" lon="10.637463005259633">
        <ele>275.56</ele>
        <time>2017-07-01T05:28:29Z</time>
      </trkpt>
      <trkpt lat="60.764440996572375" lon="10.638215029612184">
        <ele>279.39999999999998</ele>
        <time>2017-07-01T05:28:35Z</time>
      </trkpt>
      <trkpt lat="60.761794997379184" lon="10.640404969453812">
        <ele>289.97000000000003</ele>
        <time>2017-07-01T05:28:47Z</time>
      </trkpt>
      <trkpt lat="60.759909991174936" lon="10.640834039077163">
        <ele>301.99000000000001</ele>
        <time>2017-07-01T05:28:55Z</time>
      </trkpt>
      <trkpt lat="60.758137973025441" lon="10.640251999720931">
        <ele>314.00999999999999</ele>
        <time>2017-07-01T05:29:03Z</time>
      </trkpt>
      <trkpt lat="60.756267970427871" lon="10.638584000989795">
        <ele>327.94999999999999</ele>
        <time>2017-07-01T05:29:12Z</time>
      </trkpt>
      <trkpt lat="60.752060003578663" lon="10.633859038352966">
        <ele>342.37</ele>
        <time>2017-07-01T05:29:33Z</time>
      </trkpt>
      <trkpt lat="60.748513033613563" lon="10.629999004304409">
        <ele>336.60000000000002</ele>
        <time>2017-07-01T05:29:50Z</time>
      </trkpt>
      <trkpt lat="60.746195018291473" lon="10.628213994204998">
        <ele>337.56</ele>
        <time>2017-07-01T05:30:01Z</time>
      </trkpt>
      <trkpt lat="60.744243962690234" lon="10.627825995907187">
        <ele>340.92000000000002</ele>
        <time>2017-07-01T05:30:10Z</time>
      </trkpt>
      <trkpt lat="60.741217005997896" lon="10.628290018066764">
        <ele>344.76999999999998</ele>
        <time>2017-07-01T05:30:24Z</time>
      </trkpt>
      <trkpt lat="60.738748032599688" lon="10.628212988376617">
        <ele>349.10000000000002</ele>
        <time>2017-07-01T05:30:35Z</time>
      </trkpt>
      <trkpt lat="60.736046964302659" lon="10.628227991983294">
        <ele>355.82999999999998</ele>
        <time>2017-07-01T05:30:47Z</time>
      </trkpt>
      <trkpt lat="60.733900023624301" lon="10.629349993541837">
        <ele>362.06999999999999</ele>
        <time>2017-07-01T05:30:57Z</time>
      </trkpt>
      <trkpt lat="60.730954958125949" lon="10.632067993283272">
        <ele>367.36000000000001</ele>
        <time>2017-07-01T05:31:11Z</time>
      </trkpt>
      <trkpt lat="60.72807602584362" lon="10.634501008316875">
        <ele>364.48000000000002</ele>
        <time>2017-07-01T05:31:24Z</time>
      </trkpt>
      <trkpt lat="60.725744012743235" lon="10.63517902046442">
        <ele>364.48000000000002</ele>
        <time>2017-07-01T05:31:34Z</time>
      </trkpt>
      <trkpt lat="60.722884023562074" lon="10.635044993832707">
        <ele>366.39999999999998</ele>
        <time>2017-07-01T05:31:46Z</time>
      </trkpt>
      <trkpt lat="60.720154959708452" lon="10.634030029177666">
        <ele>366.39999999999998</ele>
        <time>2017-07-01T05:31:58Z</time>
      </trkpt>
      <trkpt lat="60.716164000332355" lon="10.631587039679289">
        <ele>369.27999999999997</ele>
        <time>2017-07-01T05:32:16Z</time>
      </trkpt>
      <trkpt lat="60.713883033022285" lon="10.629079006612301">
        <ele>371.20999999999998</ele>
        <time>2017-07-01T05:32:27Z</time>
      </trkpt>
      <trkpt lat="60.711851008236408" lon="10.62576899304986">
        <ele>377.94</ele>
        <time>2017-07-01T05:32:38Z</time>
      </trkpt>
      <trkpt lat="60.709054972976446" lon="10.621091974899173">
        <ele>389.94999999999999</ele>
        <time>2017-07-01T05:32:53Z</time>
      </trkpt>
      <trkpt lat="60.706850029528141" lon="10.618794998154044">
        <ele>388.99000000000001</ele>
        <time>2017-07-01T05:33:03Z</time>
      </trkpt>
      <trkpt lat="60.704221967607737" lon="10.61721601523459">
        <ele>387.55000000000001</ele>
        <time>2017-07-01T05:33:14Z</time>
      </trkpt>
      <trkpt lat="60.701589966192842" lon="10.616708993911743">
        <ele>385.14999999999998</ele>
        <time>2017-07-01T05:33:25Z</time>
      </trkpt>
      <trkpt lat="60.698267966508865" lon="10.616475977003574">
        <ele>380.81999999999999</ele>
        <time>2017-07-01T05:33:39Z</time>
      </trkpt>
      <trkpt lat="60.69563495926559" lon="10.615474004298449">
        <ele>375.05000000000001</ele>
        <time>2017-07-01T05:33:50Z</time>
      </trkpt>
      <trkpt lat="60.692941015586257" lon="10.613701986148953">
        <ele>368.80000000000001</ele>
        <time>2017-07-01T05:34:03Z</time>
      </trkpt>
      <trkpt lat="60.689911041408777" lon="10.611832989379764">
        <ele>351.5</ele>
        <time>2017-07-01T05:34:18Z</time>
      </trkpt>
      <trkpt lat="60.686684008687735" lon="10.610351990908384">
        <ele>342.37</ele>
        <time>2017-07-01T05:34:33Z</time>
      </trkpt>
      <trkpt lat="60.684042032808065" lon="10.609717983752489">
        <ele>343.81</ele>
        <time>2017-07-01T05:34:45Z</time>
      </trkpt>
      <trkpt lat="60.681688981130719" lon="10.609972039237618">
        <ele>346.20999999999998</ele>
        <time>2017-07-01T05:34:56Z</time>
      </trkpt>
      <trkpt lat="60.679689981043339" lon="10.611342983320355">
        <ele>348.13</ele>
        <time>2017-07-01T05:35:06Z</time>
      </trkpt>
      <trkpt lat="60.678110998123884" lon="10.613389005884528">
        <ele>350.06</ele>
        <time>2017-07-01T05:35:15Z</time>
      </trkpt>
      <trkpt lat="60.676084002479911" lon="10.616975035518408">
        <ele>354.86000000000001</ele>
        <time>2017-07-01T05:35:29Z</time>
      </trkpt>
      <trkpt lat="60.674730995669961" lon="10.618192004039884">
        <ele>358.23000000000002</ele>
        <time>2017-07-01T05:35:37Z</time>
      </trkpt>
      <trkpt lat="60.673861959949136" lon="10.618338016793132">
        <ele>359.19</ele>
        <time>2017-07-01T05:35:42Z</time>
      </trkpt>
      <trkpt lat="60.673689963296056" lon="10.618283031508327">
        <ele>360.14999999999998</ele>
        <time>2017-07-01T05:35:43Z</time>
      </trkpt>
      <trkpt lat="60.673524001613259" lon="10.618197033181787">
        <ele>360.14999999999998</ele>
        <time>2017-07-01T05:35:44Z</time>
      </trkpt>
      <trkpt lat="60.673363991081715" lon="10.618086978793144">
        <ele>360.63</ele>
        <time>2017-07-01T05:35:45Z</time>
      </trkpt>
      <trkpt lat="60.673214960843325" lon="10.617954041808844">
        <ele>361.11000000000001</ele>
        <time>2017-07-01T05:35:46Z</time>
      </trkpt>
      <trkpt lat="60.67307498306036" lon="10.617808029055595">
        <ele>361.11000000000001</ele>
        <time>2017-07-01T05:35:47Z</time>
      </trkpt>
      <trkpt lat="60.672937016934156" lon="10.617653969675303">
        <ele>361.58999999999997</ele>
        <time>2017-07-01T05:35:48Z</time>
      </trkpt>
      <trkpt lat="60.670578014105558" lon="10.614731032401323">
        <ele>370.24000000000001</ele>
        <time>2017-07-01T05:36:05Z</time>
      </trkpt>
      <trkpt lat="60.66899299621582" lon="10.61219098046422">
        <ele>373.61000000000001</ele>
        <time>2017-07-01T05:36:16Z</time>
      </trkpt>
      <trkpt lat="60.66736196167767" lon="10.610101036727428">
        <ele>374.56999999999999</ele>
        <time>2017-07-01T05:36:26Z</time>
      </trkpt>
      <trkpt lat="60.665228012949228" lon="10.605986025184393">
        <ele>374.56999999999999</ele>
        <time>2017-07-01T05:36:41Z</time>
      </trkpt>
      <trkpt lat="60.664749993011355" lon="10.605482021346688">
        <ele>376.00999999999999</ele>
        <time>2017-07-01T05:36:44Z</time>
      </trkpt>
      <trkpt lat="60.664577996358275" lon="10.60537900775671">
        <ele>376.49000000000001</ele>
        <time>2017-07-01T05:36:45Z</time>
      </trkpt>
      <trkpt lat="60.664399964734912" lon="10.605294015258551">
        <ele>376.97000000000003</ele>
        <time>2017-07-01T05:36:46Z</time>
      </trkpt>
      <trkpt lat="60.661884974688292" lon="10.604248037561774">
        <ele>382.74000000000001</ele>
        <time>2017-07-01T05:37:00Z</time>
      </trkpt>
      <trkpt lat="60.658267010003328" lon="10.601896997541189">
        <ele>390.43000000000001</ele>
        <time>2017-07-01T05:37:20Z</time>
      </trkpt>
      <trkpt lat="60.656645027920604" lon="10.601429035887122">
        <ele>398.12</ele>
        <time>2017-07-01T05:37:29Z</time>
      </trkpt>
      <trkpt lat="60.655567031353712" lon="10.601996993646026">
        <ele>402.93000000000001</ele>
        <time>2017-07-01T05:37:36Z</time>
      </trkpt>
      <trkpt lat="60.654434971511364" lon="10.603644959628582">
        <ele>406.76999999999998</ele>
        <time>2017-07-01T05:37:45Z</time>
      </trkpt>
      <trkpt lat="60.653283968567848" lon="10.604950021952391">
        <ele>408.69999999999999</ele>
        <time>2017-07-01T05:37:53Z</time>
      </trkpt>
      <trkpt lat="60.651757037267089" lon="10.605141967535019">
        <ele>409.66000000000003</ele>
        <time>2017-07-01T05:38:02Z</time>
      </trkpt>
      <trkpt lat="60.64982601441443" lon="10.605558967217803">
        <ele>410.13999999999999</ele>
        <time>2017-07-01T05:38:12Z</time>
      </trkpt>
      <trkpt lat="60.646126996725798" lon="10.606166990473866">
        <ele>413.01999999999998</ele>
        <time>2017-07-01T05:38:31Z</time>
      </trkpt>
      <trkpt lat="60.644331006333232" lon="10.605506999418139">
        <ele>413.98000000000002</ele>
        <time>2017-07-01T05:38:41Z</time>
      </trkpt>
      <trkpt lat="60.642596036195755" lon="10.604052990674973">
        <ele>414.94999999999999</ele>
        <time>2017-07-01T05:38:51Z</time>
      </trkpt>
      <trkpt lat="60.639862027019262" lon="10.601173974573612">
        <ele>416.38999999999999</ele>
        <time>2017-07-01T05:39:07Z</time>
      </trkpt>
      <trkpt lat="60.636845966801047" lon="10.59850400313735">
        <ele>414.94999999999999</ele>
        <time>2017-07-01T05:39:24Z</time>
      </trkpt>
      <trkpt lat="60.635085012763739" lon="10.598237961530685">
        <ele>409.66000000000003</ele>
        <time>2017-07-01T05:39:33Z</time>
      </trkpt>
      <trkpt lat="60.63332699239254" lon="10.598938018083572">
        <ele>404.37</ele>
        <time>2017-07-01T05:39:42Z</time>
      </trkpt>
      <trkpt lat="60.630600024014711" lon="10.600678017362952">
        <ele>406.76999999999998</ele>
        <time>2017-07-01T05:39:57Z</time>
      </trkpt>
      <trkpt lat="60.628088973462582" lon="10.603222008794546">
        <ele>409.18000000000001</ele>
        <time>2017-07-01T05:40:11Z</time>
      </trkpt>
      <trkpt lat="60.62642902135849" lon="10.604300005361438">
        <ele>409.66000000000003</ele>
        <time>2017-07-01T05:40:20Z</time>
      </trkpt>
      <trkpt lat="60.624867975711823" lon="10.604129014536738">
        <ele>407.74000000000001</ele>
        <time>2017-07-01T05:40:28Z</time>
      </trkpt>
      <trkpt lat="60.62286302447319" lon="10.602802997455001">
        <ele>407.74000000000001</ele>
        <time>2017-07-01T05:40:39Z</time>
      </trkpt>
      <trkpt lat="60.621627029031515" lon="10.602025995030999">
        <ele>411.10000000000002</ele>
        <time>2017-07-01T05:40:46Z</time>
      </trkpt>
      <trkpt lat="60.621443968266249" lon="10.602009985595942">
        <ele>411.57999999999998</ele>
        <time>2017-07-01T05:40:47Z</time>
      </trkpt>
      <trkpt lat="60.621261997148395" lon="10.602035969495773">
        <ele>412.54000000000002</ele>
        <time>2017-07-01T05:40:48Z</time>
      </trkpt>
      <trkpt lat="60.62108002603054" lon="10.602104030549526">
        <ele>412.54000000000002</ele>
        <time>2017-07-01T05:40:49Z</time>
      </trkpt>
      <trkpt lat="60.620900988578796" lon="10.602218024432659">
        <ele>412.54000000000002</ele>
        <time>2017-07-01T05:40:50Z</time>
      </trkpt>
      <trkpt lat="60.620728991925716" lon="10.602378034964204">
        <ele>413.01999999999998</ele>
        <time>2017-07-01T05:40:51Z</time>
      </trkpt>
      <trkpt lat="60.620558001101017" lon="10.602576015517116">
        <ele>413.5</ele>
        <time>2017-07-01T05:40:52Z</time>
      </trkpt>
      <trkpt lat="60.62039396725595" lon="10.60280199162662">
        <ele>414.47000000000003</ele>
        <time>2017-07-01T05:40:53Z</time>
      </trkpt>
      <trkpt lat="60.620235968381166" lon="10.603035008534789">
        <ele>414.47000000000003</ele>
        <time>2017-07-01T05:40:54Z</time>
      </trkpt>
      <trkpt lat="60.618810961022973" lon="10.605736998841166">
        <ele>419.75</ele>
        <time>2017-07-01T05:41:04Z</time>
      </trkpt>
      <trkpt lat="60.618637958541512" lon="10.60643102042377">
        <ele>420.70999999999998</ele>
        <time>2017-07-01T05:41:06Z</time>
      </trkpt>
      <trkpt lat="60.618583979085088" lon="10.606793034821749">
        <ele>421.19</ele>
        <time>2017-07-01T05:41:07Z</time>
      </trkpt>
      <trkpt lat="60.61854500323534" lon="10.607165023684502">
        <ele>421.68000000000001</ele>
        <time>2017-07-01T05:41:08Z</time>
      </trkpt>
      <trkpt lat="60.618002023547888" lon="10.612252000719309">
        <ele>420.70999999999998</ele>
        <time>2017-07-01T05:41:21Z</time>
      </trkpt>
      <trkpt lat="60.617430964484811" lon="10.614838991314173">
        <ele>420.70999999999998</ele>
        <time>2017-07-01T05:41:29Z</time>
      </trkpt>
      <trkpt lat="60.61669796705246" lon="10.617422964423895">
        <ele>422.63999999999999</ele>
        <time>2017-07-01T05:41:38Z</time>
      </trkpt>
      <trkpt lat="60.614911029115319" lon="10.623071026057005">
        <ele>417.82999999999998</ele>
        <time>2017-07-01T05:41:55Z</time>
      </trkpt>
      <trkpt lat="60.613118978217244" lon="10.628976998850703">
        <ele>412.06</ele>
        <time>2017-07-01T05:42:11Z</time>
      </trkpt>
      <trkpt lat="60.611208993941545" lon="10.635195029899478">
        <ele>415.43000000000001</ele>
        <time>2017-07-01T05:42:28Z</time>
      </trkpt>
      <trkpt lat="60.60979999601841" lon="10.638240007683635">
        <ele>414.94999999999999</ele>
        <time>2017-07-01T05:42:38Z</time>
      </trkpt>
      <trkpt lat="60.608354033902287" lon="10.64009802415967">
        <ele>416.87</ele>
        <time>2017-07-01T05:42:46Z</time>
      </trkpt>
      <trkpt lat="60.606372971087694" lon="10.641296971589327">
        <ele>415.91000000000003</ele>
        <time>2017-07-01T05:42:56Z</time>
      </trkpt>
      <trkpt lat="60.603037979453802" lon="10.642253011465073">
        <ele>413.5</ele>
        <time>2017-07-01T05:43:12Z</time>
      </trkpt>
      <trkpt lat="60.598115958273411" lon="10.643706014379859">
        <ele>412.54000000000002</ele>
        <time>2017-07-01T05:43:35Z</time>
      </trkpt>
      <trkpt lat="60.593435000628233" lon="10.645087016746402">
        <ele>411.57999999999998</ele>
        <time>2017-07-01T05:43:57Z</time>
      </trkpt>
      <trkpt lat="60.589097030460835" lon="10.646492997184396">
        <ele>418.79000000000002</ele>
        <time>2017-07-01T05:44:18Z</time>
      </trkpt>
      <trkpt lat="60.585606973618269" lon="10.648503983393312">
        <ele>420.70999999999998</ele>
        <time>2017-07-01T05:44:35Z</time>
      </trkpt>
      <trkpt lat="60.581324994564056" lon="10.650685038417578">
        <ele>424.56</ele>
        <time>2017-07-01T05:44:56Z</time>
      </trkpt>
      <trkpt lat="60.576567007228732" lon="10.651996973901987">
        <ele>424.07999999999998</ele>
        <time>2017-07-01T05:45:19Z</time>
      </trkpt>
      <trkpt lat="60.573064964264631" lon="10.652641961351037">
        <ele>427.92000000000002</ele>
        <time>2017-07-01T05:45:36Z</time>
      </trkpt>
      <trkpt lat="60.570996981114149" lon="10.653459029272199">
        <ele>431.29000000000002</ele>
        <time>2017-07-01T05:45:46Z</time>
      </trkpt>
      <trkpt lat="60.567674981430173" lon="10.655428022146225">
        <ele>432.73000000000002</ele>
        <time>2017-07-01T05:46:02Z</time>
      </trkpt>
      <trkpt lat="60.563877979293466" lon="10.657150000333786">
        <ele>438.01999999999998</ele>
        <time>2017-07-01T05:46:20Z</time>
      </trkpt>
      <trkpt lat="60.559908980503678" lon="10.658998964354396">
        <ele>440.42000000000002</ele>
        <time>2017-07-01T05:46:39Z</time>
      </trkpt>
      <trkpt lat="60.558201000094414" lon="10.659138020128012">
        <ele>439.94</ele>
        <time>2017-07-01T05:46:47Z</time>
      </trkpt>
      <trkpt lat="60.55342398583889" lon="10.658936016261578">
        <ele>437.54000000000002</ele>
        <time>2017-07-01T05:47:09Z</time>
      </trkpt>
      <trkpt lat="60.548324016854167" lon="10.658689001575112">
        <ele>435.13</ele>
        <time>2017-07-01T05:47:31Z</time>
      </trkpt>
      <trkpt lat="60.545747000724077" lon="10.658312989398837">
        <ele>425.04000000000002</ele>
        <time>2017-07-01T05:47:45Z</time>
      </trkpt>
      <trkpt lat="60.542504964396358" lon="10.657794987782836">
        <ele>417.35000000000002</ele>
        <time>2017-07-01T05:48:03Z</time>
      </trkpt>
      <trkpt lat="60.538823967799544" lon="10.657226024195552">
        <ele>411.10000000000002</ele>
        <time>2017-07-01T05:48:23Z</time>
      </trkpt>
      <trkpt lat="60.535620991140604" lon="10.65677298232913">
        <ele>411.10000000000002</ele>
        <time>2017-07-01T05:48:39Z</time>
      </trkpt>
      <trkpt lat="60.532261021435261" lon="10.656628981232643">
        <ele>412.06</ele>
        <time>2017-07-01T05:48:54Z</time>
      </trkpt>
      <trkpt lat="60.529281003400683" lon="10.656653037294745">
        <ele>413.98000000000002</ele>
        <time>2017-07-01T05:49:08Z</time>
      </trkpt>
      <trkpt lat="60.527208996936679" lon="10.656335027888417">
        <ele>407.25999999999999</ele>
        <time>2017-07-01T05:49:18Z</time>
      </trkpt>
      <trkpt lat="60.525918016210198" lon="10.655016973614693">
        <ele>404.37</ele>
        <time>2017-07-01T05:49:25Z</time>
      </trkpt>
      <trkpt lat="60.52394500002265" lon="10.653075976297259">
        <ele>402.44999999999999</ele>
        <time>2017-07-01T05:49:36Z</time>
      </trkpt>
      <trkpt lat="60.522298961877823" lon="10.651419041678309">
        <ele>401.00999999999999</ele>
        <time>2017-07-01T05:49:45Z</time>
      </trkpt>
      <trkpt lat="60.520863980054855" lon="10.64817700535059">
        <ele>407.25999999999999</ele>
        <time>2017-07-01T05:49:56Z</time>
      </trkpt>
      <trkpt lat="60.518920971080661" lon="10.643802992999554">
        <ele>406.76999999999998</ele>
        <time>2017-07-01T05:50:10Z</time>
      </trkpt>
      <trkpt lat="60.517707020044327" lon="10.640343027189374">
        <ele>404.85000000000002</ele>
        <time>2017-07-01T05:50:20Z</time>
      </trkpt>
      <trkpt lat="60.516765983775258" lon="10.636577038094401">
        <ele>401.00999999999999</ele>
        <time>2017-07-01T05:50:30Z</time>
      </trkpt>
      <trkpt lat="60.516155026853085" lon="10.635465011000633">
        <ele>401.49000000000001</ele>
        <time>2017-07-01T05:50:34Z</time>
      </trkpt>
      <trkpt lat="60.515990993008018" lon="10.635268958285451">
        <ele>401.97000000000003</ele>
        <time>2017-07-01T05:50:35Z</time>
      </trkpt>
      <trkpt lat="60.51582402549684" lon="10.635110037401319">
        <ele>402.93000000000001</ele>
        <time>2017-07-01T05:50:36Z</time>
      </trkpt>
      <trkpt lat="60.515461005270481" lon="10.634843995794654">
        <ele>404.37</ele>
        <time>2017-07-01T05:50:38Z</time>
      </trkpt>
      <trkpt lat="60.515265958383679" lon="10.634750034660101">
        <ele>404.85000000000002</ele>
        <time>2017-07-01T05:50:39Z</time>
      </trkpt>
      <trkpt lat="60.515062026679516" lon="10.634682979434729">
        <ele>406.76999999999998</ele>
        <time>2017-07-01T05:50:40Z</time>
      </trkpt>
      <trkpt lat="60.514852982014418" lon="10.6346429977566">
        <ele>407.25999999999999</ele>
        <time>2017-07-01T05:50:41Z</time>
      </trkpt>
      <trkpt lat="60.514638992026448" lon="10.634621037170291">
        <ele>408.22000000000003</ele>
        <time>2017-07-01T05:50:42Z</time>
      </trkpt>
      <trkpt lat="60.512308990582824" lon="10.634552976116538">
        <ele>419.75</ele>
        <time>2017-07-01T05:50:53Z</time>
      </trkpt>
      <trkpt lat="60.508892023935914" lon="10.634186016395688">
        <ele>437.06</ele>
        <time>2017-07-01T05:51:09Z</time>
      </trkpt>
      <trkpt lat="60.505604976788163" lon="10.634648026898503">
        <ele>450.02999999999997</ele>
        <time>2017-07-01T05:51:24Z</time>
      </trkpt>
      <trkpt lat="60.503586027771235" lon="10.634676022455096">
        <ele>458.20999999999998</ele>
        <time>2017-07-01T05:51:33Z</time>
      </trkpt>
      <trkpt lat="60.500814970582724" lon="10.634221974760294">
        <ele>472.63</ele>
        <time>2017-07-01T05:51:45Z</time>
      </trkpt>
      <trkpt lat="60.499766981229186" lon="10.63520098105073">
        <ele>480.31999999999999</ele>
        <time>2017-07-01T05:51:50Z</time>
      </trkpt>
      <trkpt lat="60.498591000214219" lon="10.637479014694691">
        <ele>488.00999999999999</ele>
        <time>2017-07-01T05:51:57Z</time>
      </trkpt>
      <trkpt lat="60.498216999694705" lon="10.638046972453594">
        <ele>490.88999999999999</ele>
        <time>2017-07-01T05:51:59Z</time>
      </trkpt>
      <trkpt lat="60.49801398999989" lon="10.638280995190144">
        <ele>491.37</ele>
        <time>2017-07-01T05:52:00Z</time>
      </trkpt>
      <trkpt lat="60.497804023325443" lon="10.638480987399817">
        <ele>492.81</ele>
        <time>2017-07-01T05:52:01Z</time>
      </trkpt>
      <trkpt lat="60.49758399836719" lon="10.638647032901645">
        <ele>493.76999999999998</ele>
        <time>2017-07-01T05:52:02Z</time>
      </trkpt>
      <trkpt lat="60.497356010600924" lon="10.638783993199468">
        <ele>495.22000000000003</ele>
        <time>2017-07-01T05:52:03Z</time>
      </trkpt>
      <trkpt lat="60.497122993692756" lon="10.638878038153052">
        <ele>496.18000000000001</ele>
        <time>2017-07-01T05:52:04Z</time>
      </trkpt>
      <trkpt lat="60.496885031461716" lon="10.638936040922999">
        <ele>497.13999999999999</ele>
        <time>2017-07-01T05:52:05Z</time>
      </trkpt>
      <trkpt lat="60.496643967926502" lon="10.638959007337689">
        <ele>498.57999999999998</ele>
        <time>2017-07-01T05:52:06Z</time>
      </trkpt>
      <trkpt lat="60.496397959068418" lon="10.63896001316607">
        <ele>499.54000000000002</ele>
        <time>2017-07-01T05:52:07Z</time>
      </trkpt>
      <trkpt lat="60.492501966655254" lon="10.638581989333034">
        <ele>515.39999999999998</ele>
        <time>2017-07-01T05:52:23Z</time>
      </trkpt>
      <trkpt lat="60.491169998422265" lon="10.637288996949792">
        <ele>521.64999999999998</ele>
        <time>2017-07-01T05:52:29Z</time>
      </trkpt>
      <trkpt lat="60.489858984947205" lon="10.635898020118475">
        <ele>529.34000000000003</ele>
        <time>2017-07-01T05:52:35Z</time>
      </trkpt>
      <trkpt lat="60.489624962210655" lon="10.635753013193607">
        <ele>529.82000000000005</ele>
        <time>2017-07-01T05:52:36Z</time>
      </trkpt>
      <trkpt lat="60.489385994151235" lon="10.635649999603629">
        <ele>530.78999999999996</ele>
        <time>2017-07-01T05:52:37Z</time>
      </trkpt>
      <trkpt lat="60.487526971846819" lon="10.63479102216661">
        <ele>538.48000000000002</ele>
        <time>2017-07-01T05:52:45Z</time>
      </trkpt>
      <trkpt lat="60.485846986994147" lon="10.633204998448491">
        <ele>546.64999999999998</ele>
        <time>2017-07-01T05:52:53Z</time>
      </trkpt>
      <trkpt lat="60.484480988234282" lon="10.633244980126619">
        <ele>552.89999999999998</ele>
        <time>2017-07-01T05:52:59Z</time>
      </trkpt>
      <trkpt lat="60.480055008083582" lon="10.634489022195339">
        <ele>561.54999999999995</ele>
        <time>2017-07-01T05:53:18Z</time>
      </trkpt>
      <trkpt lat="60.476948004215956" lon="10.635063014924526">
        <ele>574.03999999999996</ele>
        <time>2017-07-01T05:53:32Z</time>
      </trkpt>
      <trkpt lat="60.475270031020045" lon="10.635955017060041">
        <ele>577.88999999999999</ele>
        <time>2017-07-01T05:53:40Z</time>
      </trkpt>
      <trkpt lat="60.472916979342699" lon="10.638216035440564">
        <ele>588.95000000000005</ele>
        <time>2017-07-01T05:53:52Z</time>
      </trkpt>
      <trkpt lat="60.471544023603201" lon="10.639031007885933">
        <ele>593.75</ele>
        <time>2017-07-01T05:53:59Z</time>
      </trkpt>
      <trkpt lat="60.468630976974964" lon="10.639150030910969">
        <ele>600</ele>
        <time>2017-07-01T05:54:12Z</time>
      </trkpt>
      <trkpt lat="60.466082040220499" lon="10.639548003673553">
        <ele>604.80999999999995</ele>
        <time>2017-07-01T05:54:23Z</time>
      </trkpt>
      <trkpt lat="60.463596973568201" lon="10.64141197130084">
        <ele>609.61000000000001</ele>
        <time>2017-07-01T05:54:34Z</time>
      </trkpt>
      <trkpt lat="60.458896989002824" lon="10.644947960972786">
        <ele>619.23000000000002</ele>
        <time>2017-07-01T05:54:55Z</time>
      </trkpt>
      <trkpt lat="60.457660993561149" lon="10.64534199424088">
        <ele>620.66999999999996</ele>
        <time>2017-07-01T05:55:01Z</time>
      </trkpt>
      <trkpt lat="60.456385016441345" lon="10.645047035068274">
        <ele>620.19000000000005</ele>
        <time>2017-07-01T05:55:08Z</time>
      </trkpt>
      <trkpt lat="60.455349013209343" lon="10.643784971907735">
        <ele>619.23000000000002</ele>
        <time>2017-07-01T05:55:15Z</time>
      </trkpt>
      <trkpt lat="60.454390961676836" lon="10.641673989593983">
        <ele>617.29999999999995</ele>
        <time>2017-07-01T05:55:23Z</time>
      </trkpt>
      <trkpt lat="60.454309992492199" lon="10.641354974359274">
        <ele>616.82000000000005</ele>
        <time>2017-07-01T05:55:24Z</time>
      </trkpt>
      <trkpt lat="60.453542964532971" lon="10.637651011347771">
        <ele>621.14999999999998</ele>
        <time>2017-07-01T05:55:35Z</time>
      </trkpt>
      <trkpt lat="60.453211041167378" lon="10.636739982292056">
        <ele>621.14999999999998</ele>
        <time>2017-07-01T05:55:38Z</time>
      </trkpt>
      <trkpt lat="60.453075002878904" lon="10.636476036161184">
        <ele>621.14999999999998</ele>
        <time>2017-07-01T05:55:39Z</time>
      </trkpt>
      <trkpt lat="60.451736999675632" lon="10.633945036679506">
        <ele>618.75</ele>
        <time>2017-07-01T05:55:49Z</time>
      </trkpt>
      <trkpt lat="60.45156299136579" lon="10.633289990946651">
        <ele>616.82000000000005</ele>
        <time>2017-07-01T05:55:51Z</time>
      </trkpt>
      <trkpt lat="60.451501971110702" lon="10.632934011518955">
        <ele>615.86000000000001</ele>
        <time>2017-07-01T05:55:52Z</time>
      </trkpt>
      <trkpt lat="60.451451009139419" lon="10.632563028484583">
        <ele>614.89999999999998</ele>
        <time>2017-07-01T05:55:53Z</time>
      </trkpt>
      <trkpt lat="60.451419996097684" lon="10.632178969681263">
        <ele>613.94000000000005</ele>
        <time>2017-07-01T05:55:54Z</time>
      </trkpt>
      <trkpt lat="60.451397029682994" lon="10.631778985261917">
        <ele>612.5</ele>
        <time>2017-07-01T05:55:55Z</time>
      </trkpt>
      <trkpt lat="60.451186979189515" lon="10.62800201587379">
        <ele>603.36000000000001</ele>
        <time>2017-07-01T05:56:04Z</time>
      </trkpt>
      <trkpt lat="60.450367983430624" lon="10.625020992010832">
        <ele>600</ele>
        <time>2017-07-01T05:56:12Z</time>
      </trkpt>
      <trkpt lat="60.449232989922166" lon="10.621477039530873">
        <ele>598.08000000000004</ele>
        <time>2017-07-01T05:56:22Z</time>
      </trkpt>
      <trkpt lat="60.449079014360905" lon="10.621216027066112">
        <ele>597.60000000000002</ele>
        <time>2017-07-01T05:56:23Z</time>
      </trkpt>
      <trkpt lat="60.448916992172599" lon="10.620983010157943">
        <ele>597.60000000000002</ele>
        <time>2017-07-01T05:56:24Z</time>
      </trkpt>
      <trkpt lat="60.448748013004661" lon="10.62078301794827">
        <ele>597.12</ele>
        <time>2017-07-01T05:56:25Z</time>
      </trkpt>
      <trkpt lat="60.448567969724536" lon="10.620600041002035">
        <ele>596.63999999999999</ele>
        <time>2017-07-01T05:56:26Z</time>
      </trkpt>
      <trkpt lat="60.44838298112154" lon="10.620446987450123">
        <ele>596.14999999999998</ele>
        <time>2017-07-01T05:56:27Z</time>
      </trkpt>
      <trkpt lat="60.448191035538912" lon="10.620322013273835">
        <ele>595.19000000000005</ele>
        <time>2017-07-01T05:56:28Z</time>
      </trkpt>
      <trkpt lat="60.445212023332715" lon="10.618508001789451">
        <ele>589.90999999999997</ele>
        <time>2017-07-01T05:56:43Z</time>
      </trkpt>
      <trkpt lat="60.44197803363204" lon="10.61614497564733">
        <ele>582.70000000000005</ele>
        <time>2017-07-01T05:56:59Z</time>
      </trkpt>
      <trkpt lat="60.44081898406148" lon="10.614028964191675">
        <ele>573.08000000000004</ele>
        <time>2017-07-01T05:57:06Z</time>
      </trkpt>
      <trkpt lat="60.439209993928671" lon="10.610292982310057">
        <ele>556.25999999999999</ele>
        <time>2017-07-01T05:57:17Z</time>
      </trkpt>
      <trkpt lat="60.438804980367422" lon="10.607714960351586">
        <ele>546.64999999999998</ele>
        <time>2017-07-01T05:57:23Z</time>
      </trkpt>
      <trkpt lat="60.43888502754271" lon="10.604524975642562">
        <ele>536.07000000000005</ele>
        <time>2017-07-01T05:57:30Z</time>
      </trkpt>
      <trkpt lat="60.438829958438873" lon="10.600954033434391">
        <ele>525.01999999999998</ele>
        <time>2017-07-01T05:57:38Z</time>
      </trkpt>
      <trkpt lat="60.438222019001842" lon="10.59852596372366">
        <ele>518.76999999999998</ele>
        <time>2017-07-01T05:57:44Z</time>
      </trkpt>
      <trkpt lat="60.437201019376516" lon="10.596710024401546">
        <ele>514.44000000000005</ele>
        <time>2017-07-01T05:57:50Z</time>
      </trkpt>
      <trkpt lat="60.435378961265087" lon="10.594718987122178">
        <ele>508.67000000000002</ele>
        <time>2017-07-01T05:57:59Z</time>
      </trkpt>
      <trkpt lat="60.434440020471811" lon="10.592610016465187">
        <ele>501.45999999999998</ele>
        <time>2017-07-01T05:58:05Z</time>
      </trkpt>
      <trkpt lat="60.433967029675841" lon="10.589882964268327">
        <ele>492.81</ele>
        <time>2017-07-01T05:58:11Z</time>
      </trkpt>
      <trkpt lat="60.433506025001407" lon="10.585907008498907">
        <ele>480.31999999999999</ele>
        <time>2017-07-01T05:58:20Z</time>
      </trkpt>
      <trkpt lat="60.432673031464219" lon="10.58369804173708">
        <ele>471.66000000000003</ele>
        <time>2017-07-01T05:58:26Z</time>
      </trkpt>
      <trkpt lat="60.431571984663606" lon="10.582376969978213">
        <ele>463.97000000000003</ele>
        <time>2017-07-01T05:58:32Z</time>
      </trkpt>
      <trkpt lat="60.429959977045655" lon="10.581585969775915">
        <ele>451.48000000000002</ele>
        <time>2017-07-01T05:58:40Z</time>
      </trkpt>
      <trkpt lat="60.428395997732878" lon="10.580213014036417">
        <ele>440.42000000000002</ele>
        <time>2017-07-01T05:58:48Z</time>
      </trkpt>
      <trkpt lat="60.42717601172626" lon="10.578046962618828">
        <ele>432.73000000000002</ele>
        <time>2017-07-01T05:58:56Z</time>
      </trkpt>
      <trkpt lat="60.42562996968627" lon="10.574245015159249">
        <ele>418.79000000000002</ele>
        <time>2017-07-01T05:59:08Z</time>
      </trkpt>
      <trkpt lat="60.424278974533081" lon="10.569939985871315">
        <ele>401.97000000000003</ele>
        <time>2017-07-01T05:59:20Z</time>
      </trkpt>
      <trkpt lat="60.423368029296398" lon="10.567003972828388">
        <ele>389.94999999999999</ele>
        <time>2017-07-01T05:59:29Z</time>
      </trkpt>
      <trkpt lat="60.422275029122829" lon="10.565359024330974">
        <ele>380.33999999999997</ele>
        <time>2017-07-01T05:59:36Z</time>
      </trkpt>
      <trkpt lat="60.420949012041092" lon="10.564632983878255">
        <ele>370.73000000000002</ele>
        <time>2017-07-01T05:59:43Z</time>
      </trkpt>
      <trkpt lat="60.419386960566044" lon="10.56371902115643">
        <ele>359.19</ele>
        <time>2017-07-01T05:59:51Z</time>
      </trkpt>
      <trkpt lat="60.418307958170772" lon="10.561924036592245">
        <ele>350.54000000000002</ele>
        <time>2017-07-01T05:59:58Z</time>
      </trkpt>
      <trkpt lat="60.416729981079698" lon="10.558921974152327">
        <ele>337.07999999999998</ele>
        <time>2017-07-01T06:00:09Z</time>
      </trkpt>
      <trkpt lat="60.41527396067977" lon="10.557827968150377">
        <ele>327.94999999999999</ele>
        <time>2017-07-01T06:00:17Z</time>
      </trkpt>
      <trkpt lat="60.413676034659147" lon="10.557716991752386">
        <ele>319.77999999999997</ele>
        <time>2017-07-01T06:00:25Z</time>
      </trkpt>
      <trkpt lat="60.411083009094" lon="10.557318013161421">
        <ele>305.83999999999997</ele>
        <time>2017-07-01T06:00:38Z</time>
      </trkpt>
      <trkpt lat="60.408639013767242" lon="10.55579200387001">
        <ele>292.38</ele>
        <time>2017-07-01T06:00:51Z</time>
      </trkpt>
      <trkpt lat="60.405227998271585" lon="10.55334297940135">
        <ele>268.35000000000002</ele>
        <time>2017-07-01T06:01:09Z</time>
      </trkpt>
      <trkpt lat="60.403010984882712" lon="10.552365984767675">
        <ele>252</ele>
        <time>2017-07-01T06:01:20Z</time>
      </trkpt>
      <trkpt lat="60.400878963992" lon="10.552410995587707">
        <ele>237.58000000000001</ele>
        <time>2017-07-01T06:01:30Z</time>
      </trkpt>
      <trkpt lat="60.398860014975071" lon="10.553366029635072">
        <ele>229.88999999999999</ele>
        <time>2017-07-01T06:01:40Z</time>
      </trkpt>
      <trkpt lat="60.397460991516709" lon="10.555012989789248">
        <ele>230.37</ele>
        <time>2017-07-01T06:01:48Z</time>
      </trkpt>
      <trkpt lat="60.395673969760537" lon="10.558114964514971">
        <ele>228.44999999999999</ele>
        <time>2017-07-01T06:01:59Z</time>
      </trkpt>
      <trkpt lat="60.393604980781674" lon="10.560617968440056">
        <ele>226.53</ele>
        <time>2017-07-01T06:02:10Z</time>
      </trkpt>
      <trkpt lat="60.389948040246964" lon="10.564361996948719">
        <ele>222.68000000000001</ele>
        <time>2017-07-01T06:02:29Z</time>
      </trkpt>
      <trkpt lat="60.387819958850741" lon="10.565684996545315">
        <ele>222.19999999999999</ele>
        <time>2017-07-01T06:02:39Z</time>
      </trkpt>
      <trkpt lat="60.382147002965212" lon="10.569302039220929">
        <ele>218.84</ele>
        <time>2017-07-01T06:03:05Z</time>
      </trkpt>
      <trkpt lat="60.380541030317545" lon="10.56956104002893">
        <ele>217.40000000000001</ele>
        <time>2017-07-01T06:03:12Z</time>
      </trkpt>
      <trkpt lat="60.379209984093904" lon="10.568714970722795">
        <ele>217.88</ele>
        <time>2017-07-01T06:03:18Z</time>
      </trkpt>
      <trkpt lat="60.377436960116029" lon="10.566636007279158">
        <ele>222.68000000000001</ele>
        <time>2017-07-01T06:03:27Z</time>
      </trkpt>
      <trkpt lat="60.375923020765185" lon="10.565810976549983">
        <ele>223.63999999999999</ele>
        <time>2017-07-01T06:03:34Z</time>
      </trkpt>
      <trkpt lat="60.373845985159278" lon="10.565647026523948">
        <ele>223.16</ele>
        <time>2017-07-01T06:03:43Z</time>
      </trkpt>
      <trkpt lat="60.371813038364053" lon="10.566373988986015">
        <ele>220.28</ele>
        <time>2017-07-01T06:03:52Z</time>
      </trkpt>
      <trkpt lat="60.369247002527118" lon="10.568238040432334">
        <ele>215.47</ele>
        <time>2017-07-01T06:04:04Z</time>
      </trkpt>
      <trkpt lat="60.367584032937884" lon="10.569547964259982">
        <ele>213.55000000000001</ele>
        <time>2017-07-01T06:04:13Z</time>
      </trkpt>
      <trkpt lat="60.365671031177044" lon="10.571377985179424">
        <ele>214.03</ele>
        <time>2017-07-01T06:04:26Z</time>
      </trkpt>
      <trkpt lat="60.363507997244596" lon="10.573344966396689">
        <ele>215.94999999999999</ele>
        <time>2017-07-01T06:04:41Z</time>
      </trkpt>
      <trkpt lat="60.362920006737113" lon="10.573598016053438">
        <ele>218.84</ele>
        <time>2017-07-01T06:04:45Z</time>
      </trkpt>
      <trkpt lat="60.36278497427702" lon="10.573597010225058">
        <ele>219.80000000000001</ele>
        <time>2017-07-01T06:04:46Z</time>
      </trkpt>
      <trkpt lat="60.362654970958829" lon="10.573567003011703">
        <ele>220.28</ele>
        <time>2017-07-01T06:04:47Z</time>
      </trkpt>
      <trkpt lat="60.36252798512578" lon="10.573512017726898">
        <ele>221.24000000000001</ele>
        <time>2017-07-01T06:04:48Z</time>
      </trkpt>
      <trkpt lat="60.362407034263015" lon="10.573432976379991">
        <ele>222.19999999999999</ele>
        <time>2017-07-01T06:04:49Z</time>
      </trkpt>
      <trkpt lat="60.362291028723121" lon="10.573331974446774">
        <ele>223.16</ele>
        <time>2017-07-01T06:04:50Z</time>
      </trkpt>
      <trkpt lat="60.362178040668368" lon="10.573203982785344">
        <ele>223.63999999999999</ele>
        <time>2017-07-01T06:04:51Z</time>
      </trkpt>
      <trkpt lat="60.362067986279726" lon="10.573058975860476">
        <ele>223.16</ele>
        <time>2017-07-01T06:04:52Z</time>
      </trkpt>
      <trkpt lat="60.361056961119175" lon="10.572231011465192">
        <ele>217.88</ele>
        <time>2017-07-01T06:05:00Z</time>
      </trkpt>
      <trkpt lat="60.359914004802704" lon="10.572384987026453">
        <ele>213.55000000000001</ele>
        <time>2017-07-01T06:05:08Z</time>
      </trkpt>
      <trkpt lat="60.358693012967706" lon="10.573012959212065">
        <ele>209.69999999999999</ele>
        <time>2017-07-01T06:05:18Z</time>
      </trkpt>
      <trkpt lat="60.357409995049238" lon="10.573549987748265">
        <ele>202.49000000000001</ele>
        <time>2017-07-01T06:05:29Z</time>
      </trkpt>
      <trkpt lat="60.356764001771808" lon="10.573260979726911">
        <ele>200.56999999999999</ele>
        <time>2017-07-01T06:05:35Z</time>
      </trkpt>
      <trkpt lat="60.356684038415551" lon="10.573169030249119">
        <ele>200.09</ele>
        <time>2017-07-01T06:05:36Z</time>
      </trkpt>
      <trkpt lat="60.356443980708718" lon="10.572955962270498">
        <ele>200.56999999999999</ele>
        <time>2017-07-01T06:05:39Z</time>
      </trkpt>
      <trkpt lat="60.356352031230927" lon="10.572938024997711">
        <ele>200.56999999999999</ele>
        <time>2017-07-01T06:05:40Z</time>
      </trkpt>
      <trkpt lat="60.355721041560173" lon="10.572772985324264">
        <ele>200.56999999999999</ele>
        <time>2017-07-01T06:05:46Z</time>
      </trkpt>
      <trkpt lat="60.35560998134315" lon="10.572780026122928">
        <ele>200.56999999999999</ele>
        <time>2017-07-01T06:05:47Z</time>
      </trkpt>
      <trkpt lat="60.355495987460017" lon="10.572796035557985">
        <ele>200.56999999999999</ele>
        <time>2017-07-01T06:05:48Z</time>
      </trkpt>
      <trkpt lat="60.355380987748504" lon="10.572835011407733">
        <ele>200.56999999999999</ele>
        <time>2017-07-01T06:05:49Z</time>
      </trkpt>
      <trkpt lat="60.355267999693751" lon="10.572883961722255">
        <ele>200.09</ele>
        <time>2017-07-01T06:05:50Z</time>
      </trkpt>
      <trkpt lat="60.353606035932899" lon="10.573775041848421">
        <ele>202.49000000000001</ele>
        <time>2017-07-01T06:06:04Z</time>
      </trkpt>
      <trkpt lat="60.353390034288168" lon="10.57379599660635">
        <ele>202.49000000000001</ele>
        <time>2017-07-01T06:06:06Z</time>
      </trkpt>
      <trkpt lat="60.353081999346614" lon="10.573933962732553">
        <ele>202.97999999999999</ele>
        <time>2017-07-01T06:06:09Z</time>
      </trkpt>
      <trkpt lat="60.352119002491236" lon="10.574451964348555">
        <ele>204.41999999999999</ele>
        <time>2017-07-01T06:06:17Z</time>
      </trkpt>
      <trkpt lat="60.350081026554108" lon="10.574621027335525">
        <ele>206.81999999999999</ele>
        <time>2017-07-01T06:06:31Z</time>
      </trkpt>
      <trkpt lat="60.348413027822971" lon="10.574662014842033">
        <ele>210.66999999999999</ele>
        <time>2017-07-01T06:06:43Z</time>
      </trkpt>
      <trkpt lat="60.347726969048381" lon="10.574119035154581">
        <ele>214.03</ele>
        <time>2017-07-01T06:06:49Z</time>
      </trkpt>
      <trkpt lat="60.34763602539897" lon="10.574101014062762">
        <ele>214.50999999999999</ele>
        <time>2017-07-01T06:06:50Z</time>
      </trkpt>
      <trkpt lat="60.347552038729191" lon="10.574123980477452">
        <ele>214.50999999999999</ele>
        <time>2017-07-01T06:06:51Z</time>
      </trkpt>
      <trkpt lat="60.347478026524186" lon="10.574163962155581">
        <ele>214.50999999999999</ele>
        <time>2017-07-01T06:06:52Z</time>
      </trkpt>
      <trkpt lat="60.347414994612336" lon="10.574198998510838">
        <ele>214.50999999999999</ele>
        <time>2017-07-01T06:06:53Z</time>
      </trkpt>
      <trkpt lat="60.347197987139225" lon="10.574342999607325">
        <ele>214.03</ele>
        <time>2017-07-01T06:07:00Z</time>
      </trkpt>
      <trkpt lat="60.347168985754251" lon="10.574411982670426">
        <ele>214.03</ele>
        <time>2017-07-01T06:07:01Z</time>
      </trkpt>
      <trkpt lat="60.347136966884136" lon="10.574508039280772">
        <ele>214.03</ele>
        <time>2017-07-01T06:07:02Z</time>
      </trkpt>
      <trkpt lat="60.347110982984304" lon="10.574632007628679">
        <ele>213.55000000000001</ele>
        <time>2017-07-01T06:07:03Z</time>
      </trkpt>
      <trkpt lat="60.347104026004672" lon="10.574768967926502">
        <ele>213.55000000000001</ele>
        <time>2017-07-01T06:07:04Z</time>
      </trkpt>
      <trkpt lat="60.347104026004672" lon="10.57491104118526">
        <ele>213.55000000000001</ele>
        <time>2017-07-01T06:07:05Z</time>
      </trkpt>
      <trkpt lat="60.347108971327543" lon="10.575046995654702">
        <ele>213.55000000000001</ele>
        <time>2017-07-01T06:07:06Z</time>
      </trkpt>
      <trkpt lat="60.347098996862769" lon="10.575180016458035">
        <ele>213.06999999999999</ele>
        <time>2017-07-01T06:07:07Z</time>
      </trkpt>
      <trkpt lat="60.347063038498163" lon="10.575285963714123">
        <ele>213.06999999999999</ele>
        <time>2017-07-01T06:07:08Z</time>
      </trkpt>
      <trkpt lat="60.347003024071455" lon="10.575350001454353">
        <ele>213.06999999999999</ele>
        <time>2017-07-01T06:07:09Z</time>
      </trkpt>
      <trkpt lat="60.34692800603807" lon="10.575370034202933">
        <ele>213.06999999999999</ele>
        <time>2017-07-01T06:07:10Z</time>
      </trkpt>
      <trkpt lat="60.34684301353991" lon="10.575353018939495">
        <ele>213.06999999999999</ele>
        <time>2017-07-01T06:07:11Z</time>
      </trkpt>
      <trkpt lat="60.346747962757945" lon="10.575312031432986">
        <ele>213.06999999999999</ele>
        <time>2017-07-01T06:07:12Z</time>
      </trkpt>
      <trkpt lat="60.34664997830987" lon="10.575253022834659">
        <ele>213.06999999999999</ele>
        <time>2017-07-01T06:07:13Z</time>
      </trkpt>
      <trkpt lat="60.346419978886843" lon="10.575147997587919">
        <ele>212.11000000000001</ele>
        <time>2017-07-01T06:07:15Z</time>
      </trkpt>
      <trkpt lat="60.346292993053794" lon="10.575123019516468">
        <ele>211.63</ele>
        <time>2017-07-01T06:07:16Z</time>
      </trkpt>
      <trkpt lat="60.3461579605937" lon="10.57512897066772">
        <ele>211.15000000000001</ele>
        <time>2017-07-01T06:07:17Z</time>
      </trkpt>
      <trkpt lat="60.346018988639116" lon="10.575159983709455">
        <ele>210.19</ele>
        <time>2017-07-01T06:07:18Z</time>
      </trkpt>
      <trkpt lat="60.345871970057487" lon="10.575201977044344">
        <ele>209.69999999999999</ele>
        <time>2017-07-01T06:07:19Z</time>
      </trkpt>
      <trkpt lat="60.343930972740054" lon="10.575928017497063">
        <ele>209.69999999999999</ele>
        <time>2017-07-01T06:07:31Z</time>
      </trkpt>
      <trkpt lat="60.341439032927155" lon="10.577134005725384">
        <ele>209.22</ele>
        <time>2017-07-01T06:07:45Z</time>
      </trkpt>
      <trkpt lat="60.34108498133719" lon="10.577397029846907">
        <ele>209.69999999999999</ele>
        <time>2017-07-01T06:07:47Z</time>
      </trkpt>
      <trkpt lat="60.340923964977264" lon="10.577569026499987">
        <ele>209.69999999999999</ele>
        <time>2017-07-01T06:07:48Z</time>
      </trkpt>
      <trkpt lat="60.340778036043048" lon="10.57776901870966">
        <ele>209.69999999999999</ele>
        <time>2017-07-01T06:07:49Z</time>
      </trkpt>
      <trkpt lat="60.339610017836094" lon="10.579196037724614">
        <ele>210.66999999999999</ele>
        <time>2017-07-01T06:07:57Z</time>
      </trkpt>
      <trkpt lat="60.337900025770068" lon="10.580002963542938">
        <ele>212.59</ele>
        <time>2017-07-01T06:08:07Z</time>
      </trkpt>
      <trkpt lat="60.335573963820934" lon="10.580305969342589">
        <ele>216.91</ele>
        <time>2017-07-01T06:08:20Z</time>
      </trkpt>
      <trkpt lat="60.333943013101816" lon="10.581223033368587">
        <ele>216.91</ele>
        <time>2017-07-01T06:08:29Z</time>
      </trkpt>
      <trkpt lat="60.332734007388353" lon="10.582055021077394">
        <ele>215.47</ele>
        <time>2017-07-01T06:08:36Z</time>
      </trkpt>
      <trkpt lat="60.332551030442119" lon="10.582114029675722">
        <ele>214.99000000000001</ele>
        <time>2017-07-01T06:08:37Z</time>
      </trkpt>
      <trkpt lat="60.3323620185256" lon="10.582150993868709">
        <ele>214.99000000000001</ele>
        <time>2017-07-01T06:08:38Z</time>
      </trkpt>
      <trkpt lat="60.332175018265843" lon="10.582167003303766">
        <ele>214.99000000000001</ele>
        <time>2017-07-01T06:08:39Z</time>
      </trkpt>
      <trkpt lat="60.331989023834467" lon="10.582147976383567">
        <ele>214.99000000000001</ele>
        <time>2017-07-01T06:08:40Z</time>
      </trkpt>
      <trkpt lat="60.331801017746329" lon="10.582109000533819">
        <ele>214.99000000000001</ele>
        <time>2017-07-01T06:08:41Z</time>
      </trkpt>
      <trkpt lat="60.331618040800095" lon="10.582030965015292">
        <ele>214.99000000000001</ele>
        <time>2017-07-01T06:08:42Z</time>
      </trkpt>
      <trkpt lat="60.331428023055196" lon="10.581930968910456">
        <ele>214.99000000000001</ele>
        <time>2017-07-01T06:08:43Z</time>
      </trkpt>
      <trkpt lat="60.331247979775071" lon="10.58178897947073">
        <ele>214.99000000000001</ele>
        <time>2017-07-01T06:08:44Z</time>
      </trkpt>
      <trkpt lat="60.331075983121991" lon="10.581618994474411">
        <ele>214.99000000000001</ele>
        <time>2017-07-01T06:08:45Z</time>
      </trkpt>
      <trkpt lat="60.330912033095956" lon="10.581416990607977">
        <ele>214.99000000000001</ele>
        <time>2017-07-01T06:08:46Z</time>
      </trkpt>
      <trkpt lat="60.330753028392792" lon="10.581204006448388">
        <ele>214.99000000000001</ele>
        <time>2017-07-01T06:08:47Z</time>
      </trkpt>
      <trkpt lat="60.328939016908407" lon="10.578833017498255">
        <ele>214.50999999999999</ele>
        <time>2017-07-01T06:08:59Z</time>
      </trkpt>
      <trkpt lat="60.328776994720101" lon="10.578731009736657">
        <ele>214.99000000000001</ele>
        <time>2017-07-01T06:09:00Z</time>
      </trkpt>
      <trkpt lat="60.328604998067021" lon="10.57867300696671">
        <ele>214.99000000000001</ele>
        <time>2017-07-01T06:09:01Z</time>
      </trkpt>
      <trkpt lat="60.328428978100419" lon="10.57865004055202">
        <ele>214.99000000000001</ele>
        <time>2017-07-01T06:09:02Z</time>
      </trkpt>
      <trkpt lat="60.328249018639326" lon="10.578663032501936">
        <ele>214.99000000000001</ele>
        <time>2017-07-01T06:09:03Z</time>
      </trkpt>
      <trkpt lat="60.328067969530821" lon="10.578710976988077">
        <ele>215.47</ele>
        <time>2017-07-01T06:09:04Z</time>
      </trkpt>
      <trkpt lat="60.325061967596412" lon="10.579666011035442">
        <ele>214.50999999999999</ele>
        <time>2017-07-01T06:09:20Z</time>
      </trkpt>
      <trkpt lat="60.323870982974768" lon="10.580620961263776">
        <ele>215.47</ele>
        <time>2017-07-01T06:09:27Z</time>
      </trkpt>
      <trkpt lat="60.322636999189854" lon="10.582042029127479">
        <ele>214.99000000000001</ele>
        <time>2017-07-01T06:09:36Z</time>
      </trkpt>
      <trkpt lat="60.322538008913398" lon="10.582107994705439">
        <ele>214.99000000000001</ele>
        <time>2017-07-01T06:09:37Z</time>
      </trkpt>
      <trkpt lat="60.322447987273335" lon="10.582156023010612">
        <ele>214.50999999999999</ele>
        <time>2017-07-01T06:09:38Z</time>
      </trkpt>
      <trkpt lat="60.32236902974546" lon="10.58223900385201">
        <ele>214.50999999999999</ele>
        <time>2017-07-01T06:09:39Z</time>
      </trkpt>
      <trkpt lat="60.322302980348468" lon="10.582365989685059">
        <ele>214.99000000000001</ele>
        <time>2017-07-01T06:09:40Z</time>
      </trkpt>
      <trkpt lat="60.322247995063663" lon="10.582532035186887">
        <ele>214.99000000000001</ele>
        <time>2017-07-01T06:09:41Z</time>
      </trkpt>
      <trkpt lat="60.322184041142464" lon="10.582715012133121">
        <ele>214.99000000000001</ele>
        <time>2017-07-01T06:09:42Z</time>
      </trkpt>
      <trkpt lat="60.322102988138795" lon="10.582891032099724">
        <ele>214.99000000000001</ele>
        <time>2017-07-01T06:09:43Z</time>
      </trkpt>
      <trkpt lat="60.322008021175861" lon="10.583063028752804">
        <ele>214.99000000000001</ele>
        <time>2017-07-01T06:09:44Z</time>
      </trkpt>
      <trkpt lat="60.32076196745038" lon="10.585001008585095">
        <ele>217.40000000000001</ele>
        <time>2017-07-01T06:09:54Z</time>
      </trkpt>
      <trkpt lat="60.319708026945591" lon="10.585955958813429">
        <ele>221.72</ele>
        <time>2017-07-01T06:10:01Z</time>
      </trkpt>
      <trkpt lat="60.318101970478892" lon="10.587117020040751">
        <ele>227.97</ele>
        <time>2017-07-01T06:10:11Z</time>
      </trkpt>
      <trkpt lat="60.315729975700378" lon="10.589686995372176">
        <ele>231.33000000000001</ele>
        <time>2017-07-01T06:10:26Z</time>
      </trkpt>
      <trkpt lat="60.315461000427604" lon="10.590044986456633">
        <ele>230.37</ele>
        <time>2017-07-01T06:10:28Z</time>
      </trkpt>
      <trkpt lat="60.315310964360833" lon="10.590182030573487">
        <ele>229.88999999999999</ele>
        <time>2017-07-01T06:10:29Z</time>
      </trkpt>
      <trkpt lat="60.31515397131443" lon="10.59029602445662">
        <ele>229.88999999999999</ele>
        <time>2017-07-01T06:10:30Z</time>
      </trkpt>
      <trkpt lat="60.313849998638034" lon="10.591469993814826">
        <ele>229.88999999999999</ele>
        <time>2017-07-01T06:10:38Z</time>
      </trkpt>
      <trkpt lat="60.312063982710242" lon="10.594154968857765">
        <ele>228.93000000000001</ele>
        <time>2017-07-01T06:10:50Z</time>
      </trkpt>
      <trkpt lat="60.310913985595107" lon="10.594857037067413">
        <ele>229.41</ele>
        <time>2017-07-01T06:10:57Z</time>
      </trkpt>
      <trkpt lat="60.309766000136733" lon="10.595392975956202">
        <ele>231.33000000000001</ele>
        <time>2017-07-01T06:11:06Z</time>
      </trkpt>
      <trkpt lat="60.308376029133797" lon="10.596436019986868">
        <ele>232.78</ele>
        <time>2017-07-01T06:11:18Z</time>
      </trkpt>
      <trkpt lat="60.307214967906475" lon="10.598071999847889">
        <ele>234.69999999999999</ele>
        <time>2017-07-01T06:11:28Z</time>
      </trkpt>
      <trkpt lat="60.305727012455463" lon="10.60074096545577">
        <ele>236.62</ele>
        <time>2017-07-01T06:11:42Z</time>
      </trkpt>
      <trkpt lat="60.304525969550014" lon="10.601885011419654">
        <ele>233.74000000000001</ele>
        <time>2017-07-01T06:11:50Z</time>
      </trkpt>
      <trkpt lat="60.301742004230618" lon="10.60402499511838">
        <ele>229.88999999999999</ele>
        <time>2017-07-01T06:12:06Z</time>
      </trkpt>
      <trkpt lat="60.298515977337956" lon="10.606463961303234">
        <ele>232.30000000000001</ele>
        <time>2017-07-01T06:12:25Z</time>
      </trkpt>
      <trkpt lat="60.296285971999168" lon="10.608316026628017">
        <ele>232.78</ele>
        <time>2017-07-01T06:12:39Z</time>
      </trkpt>
      <trkpt lat="60.295698987320065" lon="10.609037037938833">
        <ele>233.74000000000001</ele>
        <time>2017-07-01T06:12:45Z</time>
      </trkpt>
      <trkpt lat="60.295618018135428" lon="10.609090011566877">
        <ele>233.74000000000001</ele>
        <time>2017-07-01T06:12:46Z</time>
      </trkpt>
      <trkpt lat="60.295468987897038" lon="10.609253039583564">
        <ele>234.22</ele>
        <time>2017-07-01T06:12:48Z</time>
      </trkpt>
      <trkpt lat="60.295415008440614" lon="10.60939603485167">
        <ele>234.22</ele>
        <time>2017-07-01T06:12:49Z</time>
      </trkpt>
      <trkpt lat="60.295374020934105" lon="10.609573982656002">
        <ele>234.22</ele>
        <time>2017-07-01T06:12:50Z</time>
      </trkpt>
      <trkpt lat="60.295220967382193" lon="10.610173959285021">
        <ele>234.69999999999999</ele>
        <time>2017-07-01T06:12:53Z</time>
      </trkpt>
      <trkpt lat="60.294539015740156" lon="10.61225401237607">
        <ele>238.06</ele>
        <time>2017-07-01T06:13:01Z</time>
      </trkpt>
      <trkpt lat="60.29353997670114" lon="10.616774037480354">
        <ele>248.63999999999999</ele>
        <time>2017-07-01T06:13:15Z</time>
      </trkpt>
      <trkpt lat="60.292501039803028" lon="10.6193239800632">
        <ele>255.37</ele>
        <time>2017-07-01T06:13:24Z</time>
      </trkpt>
      <trkpt lat="60.290702031925321" lon="10.622033011168242">
        <ele>257.29000000000002</ele>
        <time>2017-07-01T06:13:36Z</time>
      </trkpt>
      <trkpt lat="60.288713006302714" lon="10.624700970947742">
        <ele>257.29000000000002</ele>
        <time>2017-07-01T06:13:49Z</time>
      </trkpt>
      <trkpt lat="60.287882024422288" lon="10.627184025943279">
        <ele>256.81</ele>
        <time>2017-07-01T06:13:57Z</time>
      </trkpt>
      <trkpt lat="60.286672012880445" lon="10.631931032985449">
        <ele>255.84999999999999</ele>
        <time>2017-07-01T06:14:11Z</time>
      </trkpt>
      <trkpt lat="60.285323029384017" lon="10.634907027706504">
        <ele>255.37</ele>
        <time>2017-07-01T06:14:21Z</time>
      </trkpt>
      <trkpt lat="60.283785033971071" lon="10.637080958113074">
        <ele>258.25</ele>
        <time>2017-07-01T06:14:30Z</time>
      </trkpt>
      <trkpt lat="60.282519031316042" lon="10.639284979552031">
        <ele>261.13999999999999</ele>
        <time>2017-07-01T06:14:38Z</time>
      </trkpt>
      <trkpt lat="60.281240036711097" lon="10.643121041357517">
        <ele>266.89999999999998</ele>
        <time>2017-07-01T06:14:49Z</time>
      </trkpt>
      <trkpt lat="60.279472963884473" lon="10.649516014382243">
        <ele>276.51999999999998</ele>
        <time>2017-07-01T06:15:07Z</time>
      </trkpt>
      <trkpt lat="60.278264963999391" lon="10.65348400734365">
        <ele>281.31999999999999</ele>
        <time>2017-07-01T06:15:19Z</time>
      </trkpt>
      <trkpt lat="60.268949987366796" lon="10.666528008878231">
        <ele>298.14999999999998</ele>
        <time>2017-07-01T06:16:13Z</time>
      </trkpt>
      <trkpt lat="60.267014019191265" lon="10.669175013899803">
        <ele>308.24000000000001</ele>
        <time>2017-07-01T06:16:24Z</time>
      </trkpt>
      <trkpt lat="60.264478996396065" lon="10.671313991770148">
        <ele>316.88999999999999</ele>
        <time>2017-07-01T06:16:37Z</time>
      </trkpt>
      <trkpt lat="60.263462020084262" lon="10.672098034992814">
        <ele>319.77999999999997</ele>
        <time>2017-07-01T06:16:43Z</time>
      </trkpt>
      <trkpt lat="60.249604973942041" lon="10.678888969123363">
        <ele>316.41000000000003</ele>
        <time>2017-07-01T06:17:44Z</time>
      </trkpt>
      <trkpt lat="60.24747597053647" lon="10.681949034333229">
        <ele>313.52999999999997</ele>
        <time>2017-07-01T06:17:55Z</time>
      </trkpt>
      <trkpt lat="60.245859017595649" lon="10.685353009030223">
        <ele>313.05000000000001</ele>
        <time>2017-07-01T06:18:05Z</time>
      </trkpt>
      <trkpt lat="60.244554039090872" lon="10.687478994950652">
        <ele>311.60000000000002</ele>
        <time>2017-07-01T06:18:14Z</time>
      </trkpt>
      <trkpt lat="60.242798030376434" lon="10.690071014687419">
        <ele>308.72000000000003</ele>
        <time>2017-07-01T06:18:25Z</time>
      </trkpt>
      <trkpt lat="60.239828992635012" lon="10.695289000868797">
        <ele>303.43000000000001</ele>
        <time>2017-07-01T06:18:44Z</time>
      </trkpt>
      <trkpt lat="60.23741802200675" lon="10.699255988001823">
        <ele>306.31999999999999</ele>
        <time>2017-07-01T06:18:59Z</time>
      </trkpt>
      <trkpt lat="60.23582998663187" lon="10.700498018413782">
        <ele>306.31999999999999</ele>
        <time>2017-07-01T06:19:07Z</time>
      </trkpt>
      <trkpt lat="60.23381195962429" lon="10.701509965583682">
        <ele>305.83999999999997</ele>
        <time>2017-07-01T06:19:16Z</time>
      </trkpt>
      <trkpt lat="60.231600981205702" lon="10.704024033620954">
        <ele>304.88</ele>
        <time>2017-07-01T06:19:27Z</time>
      </trkpt>
      <trkpt lat="60.230225007981062" lon="10.705021983012557">
        <ele>304.88</ele>
        <time>2017-07-01T06:19:34Z</time>
      </trkpt>
      <trkpt lat="60.228812992572784" lon="10.705109992995858">
        <ele>302.94999999999999</ele>
        <time>2017-07-01T06:19:41Z</time>
      </trkpt>
      <trkpt lat="60.227401982992887" lon="10.704231988638639">
        <ele>299.11000000000001</ele>
        <time>2017-07-01T06:19:48Z</time>
      </trkpt>
      <trkpt lat="60.224999981001019" lon="10.701776007190347">
        <ele>291.42000000000002</ele>
        <time>2017-07-01T06:20:00Z</time>
      </trkpt>
      <trkpt lat="60.222620023414493" lon="10.700453007593751">
        <ele>283.73000000000002</ele>
        <time>2017-07-01T06:20:11Z</time>
      </trkpt>
      <trkpt lat="60.219294000416994" lon="10.699199996888638">
        <ele>275.06999999999999</ele>
        <time>2017-07-01T06:20:27Z</time>
      </trkpt>
      <trkpt lat="60.216318005695939" lon="10.698768999427557">
        <ele>267.38</ele>
        <time>2017-07-01T06:20:41Z</time>
      </trkpt>
      <trkpt lat="60.214657969772816" lon="10.698028039187193">
        <ele>261.62</ele>
        <time>2017-07-01T06:20:50Z</time>
      </trkpt>
      <trkpt lat="60.212783021852374" lon="10.697419010102749">
        <ele>254.88999999999999</ele>
        <time>2017-07-01T06:21:00Z</time>
      </trkpt>
      <trkpt lat="60.209884978830814" lon="10.697389002889395">
        <ele>242.87</ele>
        <time>2017-07-01T06:21:14Z</time>
      </trkpt>
      <trkpt lat="60.206783004105091" lon="10.698115965351462">
        <ele>237.09999999999999</ele>
        <time>2017-07-01T06:21:29Z</time>
      </trkpt>
      <trkpt lat="60.204011024907231" lon="10.699337963014841">
        <ele>235.66</ele>
        <time>2017-07-01T06:21:42Z</time>
      </trkpt>
      <trkpt lat="60.201548002660275" lon="10.701003028079867">
        <ele>235.18000000000001</ele>
        <time>2017-07-01T06:21:54Z</time>
      </trkpt>
      <trkpt lat="60.199267035350204" lon="10.703761009499431">
        <ele>239.99000000000001</ele>
        <time>2017-07-01T06:22:06Z</time>
      </trkpt>
      <trkpt lat="60.197619991376996" lon="10.704698022454977">
        <ele>243.34999999999999</ele>
        <time>2017-07-01T06:22:14Z</time>
      </trkpt>
      <trkpt lat="60.195438014343381" lon="10.704815033823252">
        <ele>246.22999999999999</ele>
        <time>2017-07-01T06:22:24Z</time>
      </trkpt>
      <trkpt lat="60.193226030096412" lon="10.703983968123794">
        <ele>243.83000000000001</ele>
        <time>2017-07-01T06:22:34Z</time>
      </trkpt>
      <trkpt lat="60.191358961164951" lon="10.702151013538241">
        <ele>238.06</ele>
        <time>2017-07-01T06:22:43Z</time>
      </trkpt>
      <trkpt lat="60.189816020429134" lon="10.701359007507563">
        <ele>236.62</ele>
        <time>2017-07-01T06:22:50Z</time>
      </trkpt>
      <trkpt lat="60.188229996711016" lon="10.701606022194028">
        <ele>235.18000000000001</ele>
        <time>2017-07-01T06:22:57Z</time>
      </trkpt>
      <trkpt lat="60.186769030988216" lon="10.702877976000309">
        <ele>236.13999999999999</ele>
        <time>2017-07-01T06:23:04Z</time>
      </trkpt>
      <trkpt lat="60.185615010559559" lon="10.704917963594198">
        <ele>239.02000000000001</ele>
        <time>2017-07-01T06:23:11Z</time>
      </trkpt>
      <trkpt lat="60.183892026543617" lon="10.708689987659454">
        <ele>244.31</ele>
        <time>2017-07-01T06:23:23Z</time>
      </trkpt>
      <trkpt lat="60.182312959805131" lon="10.710554039105773">
        <ele>248.16</ele>
        <time>2017-07-01T06:23:32Z</time>
      </trkpt>
      <trkpt lat="60.180437006056309" lon="10.711541008204222">
        <ele>252</ele>
        <time>2017-07-01T06:23:41Z</time>
      </trkpt>
      <trkpt lat="60.177830988541245" lon="10.711757009848952">
        <ele>255.37</ele>
        <time>2017-07-01T06:23:53Z</time>
      </trkpt>
      <trkpt lat="60.174457021057606" lon="10.711020994931459">
        <ele>254.88999999999999</ele>
        <time>2017-07-01T06:24:08Z</time>
      </trkpt>
      <trkpt lat="60.170177975669503" lon="10.709921959787607">
        <ele>246.72</ele>
        <time>2017-07-01T06:24:27Z</time>
      </trkpt>
      <trkpt lat="60.167772034183145" lon="10.710174003615975">
        <ele>236.62</ele>
        <time>2017-07-01T06:24:37Z</time>
      </trkpt>
      <trkpt lat="60.165494000539184" lon="10.711327018216252">
        <ele>232.78</ele>
        <time>2017-07-01T06:24:47Z</time>
      </trkpt>
      <trkpt lat="60.16335996799171" lon="10.713476976379752">
        <ele>233.74000000000001</ele>
        <time>2017-07-01T06:24:57Z</time>
      </trkpt>
      <trkpt lat="60.161242028698325" lon="10.716535029932857">
        <ele>239.02000000000001</ele>
        <time>2017-07-01T06:25:08Z</time>
      </trkpt>
      <trkpt lat="60.158709017559886" lon="10.71952803991735">
        <ele>239.99000000000001</ele>
        <time>2017-07-01T06:25:21Z</time>
      </trkpt>
      <trkpt lat="60.15547402203083" lon="10.723212976008654">
        <ele>239.50999999999999</ele>
        <time>2017-07-01T06:25:37Z</time>
      </trkpt>
      <trkpt lat="60.153752965852618" lon="10.726286033168435">
        <ele>241.43000000000001</ele>
        <time>2017-07-01T06:25:47Z</time>
      </trkpt>
      <trkpt lat="60.153099009767175" lon="10.728674959391356">
        <ele>241.43000000000001</ele>
        <time>2017-07-01T06:25:53Z</time>
      </trkpt>
      <trkpt lat="60.152894994243979" lon="10.731373010203242">
        <ele>243.83000000000001</ele>
        <time>2017-07-01T06:25:59Z</time>
      </trkpt>
      <trkpt lat="60.152656026184559" lon="10.737031968310475">
        <ele>240.94999999999999</ele>
        <time>2017-07-01T06:26:12Z</time>
      </trkpt>
      <trkpt lat="60.15214498154819" lon="10.743167018517852">
        <ele>228.44999999999999</ele>
        <time>2017-07-01T06:26:26Z</time>
      </trkpt>
      <trkpt lat="60.152328964322805" lon="10.748161962255836">
        <ele>225.56999999999999</ele>
        <time>2017-07-01T06:26:37Z</time>
      </trkpt>
      <trkpt lat="60.152330975979567" lon="10.751068973913789">
        <ele>223.16</ele>
        <time>2017-07-01T06:26:44Z</time>
      </trkpt>
      <trkpt lat="60.151781039312482" lon="10.754391979426146">
        <ele>217.88</ele>
        <time>2017-07-01T06:26:53Z</time>
      </trkpt>
      <trkpt lat="60.151583980768919" lon="10.757617000490427">
        <ele>212.59</ele>
        <time>2017-07-01T06:27:01Z</time>
      </trkpt>
      <trkpt lat="60.151377031579614" lon="10.762861976400018">
        <ele>211.63</ele>
        <time>2017-07-01T06:27:14Z</time>
      </trkpt>
      <trkpt lat="60.151468981057405" lon="10.768938018009067">
        <ele>204.90000000000001</ele>
        <time>2017-07-01T06:27:29Z</time>
      </trkpt>
      <trkpt lat="60.151126999408007" lon="10.771313030272722">
        <ele>202.00999999999999</ele>
        <time>2017-07-01T06:27:36Z</time>
      </trkpt>
      <trkpt lat="60.150110023096204" lon="10.774208977818489">
        <ele>198.65000000000001</ele>
        <time>2017-07-01T06:27:45Z</time>
      </trkpt>
      <trkpt lat="60.148455016314983" lon="10.778467990458012">
        <ele>197.21000000000001</ele>
        <time>2017-07-01T06:27:59Z</time>
      </trkpt>
      <trkpt lat="60.147211980074644" lon="10.782076986506581">
        <ele>195.28</ele>
        <time>2017-07-01T06:28:11Z</time>
      </trkpt>
      <trkpt lat="60.146351996809244" lon="10.786694996058941">
        <ele>192.40000000000001</ele>
        <time>2017-07-01T06:28:24Z</time>
      </trkpt>
      <trkpt lat="60.146091990172863" lon="10.788280013948679">
        <ele>192.88</ele>
        <time>2017-07-01T06:28:30Z</time>
      </trkpt>
      <trkpt lat="60.145965004339814" lon="10.788687039166689">
        <ele>191.91999999999999</ele>
        <time>2017-07-01T06:28:36Z</time>
      </trkpt>
      <trkpt lat="60.145751014351845" lon="10.788528034463525">
        <ele>190.47999999999999</ele>
        <time>2017-07-01T06:28:44Z</time>
      </trkpt>
      <trkpt lat="60.145693011581898" lon="10.788481011986732">
        <ele>190</ele>
        <time>2017-07-01T06:29:00Z</time>
      </trkpt>
      <trkpt lat="60.145692005753517" lon="10.788474977016449">
        <ele>190</ele>
        <time>2017-07-01T06:30:37Z</time>
      </trkpt>
      <trkpt lat="60.145687982439995" lon="10.788500038906932">
        <ele>190</ele>
        <time>2017-07-01T06:31:05Z</time>
      </trkpt>
      <trkpt lat="60.145689994096756" lon="10.78853901475668">
        <ele>190</ele>
        <time>2017-07-01T06:31:06Z</time>
      </trkpt>
      <trkpt lat="60.145701980218291" lon="10.788576984778047">
        <ele>190</ele>
        <time>2017-07-01T06:31:07Z</time>
      </trkpt>
      <trkpt lat="60.145735004916787" lon="10.788629036396742">
        <ele>190</ele>
        <time>2017-07-01T06:31:09Z</time>
      </trkpt>
      <trkpt lat="60.145861990749836" lon="10.788732971996069">
        <ele>189.52000000000001</ele>
        <time>2017-07-01T06:31:12Z</time>
      </trkpt>
      <trkpt lat="60.145898032933474" lon="10.788788963109255">
        <ele>189.03999999999999</ele>
        <time>2017-07-01T06:31:13Z</time>
      </trkpt>
      <trkpt lat="60.145919993519783" lon="10.788850989192724">
        <ele>189.03999999999999</ele>
        <time>2017-07-01T06:31:14Z</time>
      </trkpt>
      <trkpt lat="60.145933991298079" lon="10.788920978084207">
        <ele>189.52000000000001</ele>
        <time>2017-07-01T06:31:15Z</time>
      </trkpt>
      <trkpt lat="60.145942037925124" lon="10.789019968360662">
        <ele>189.52000000000001</ele>
        <time>2017-07-01T06:31:16Z</time>
      </trkpt>
      <trkpt lat="60.145937008783221" lon="10.789146032184362">
        <ele>189.03999999999999</ele>
        <time>2017-07-01T06:31:17Z</time>
      </trkpt>
      <trkpt lat="60.145925022661686" lon="10.789297996088862">
        <ele>189.03999999999999</ele>
        <time>2017-07-01T06:31:18Z</time>
      </trkpt>
      <trkpt lat="60.145899960771203" lon="10.78946303576231">
        <ele>189.03999999999999</ele>
        <time>2017-07-01T06:31:19Z</time>
      </trkpt>
      <trkpt lat="60.145611958578229" lon="10.791243016719818">
        <ele>190.47999999999999</ele>
        <time>2017-07-01T06:31:27Z</time>
      </trkpt>
      <trkpt lat="60.145061016082764" lon="10.794700970873237">
        <ele>189.52000000000001</ele>
        <time>2017-07-01T06:31:38Z</time>
      </trkpt>
      <trkpt lat="60.144253000617027" lon="10.798860993236303">
        <ele>190.47999999999999</ele>
        <time>2017-07-01T06:31:50Z</time>
      </trkpt>
      <trkpt lat="60.143005019053817" lon="10.803066026419401">
        <ele>189.52000000000001</ele>
        <time>2017-07-01T06:32:02Z</time>
      </trkpt>
      <trkpt lat="60.141267031431198" lon="10.8069740049541">
        <ele>190</ele>
        <time>2017-07-01T06:32:14Z</time>
      </trkpt>
      <trkpt lat="60.138699989765882" lon="10.811370983719826">
        <ele>186.15000000000001</ele>
        <time>2017-07-01T06:32:31Z</time>
      </trkpt>
      <trkpt lat="60.136570986360312" lon="10.815387004986405">
        <ele>183.75</ele>
        <time>2017-07-01T06:32:46Z</time>
      </trkpt>
      <trkpt lat="60.134479030966759" lon="10.81991096958518">
        <ele>181.34999999999999</ele>
        <time>2017-07-01T06:33:01Z</time>
      </trkpt>
      <trkpt lat="60.132074011489749" lon="10.824609026312828">
        <ele>177.97999999999999</ele>
        <time>2017-07-01T06:33:17Z</time>
      </trkpt>
      <trkpt lat="60.129717020317912" lon="10.827497011050582">
        <ele>172.69</ele>
        <time>2017-07-01T06:33:30Z</time>
      </trkpt>
      <trkpt lat="60.127252992242575" lon="10.829304987564683">
        <ele>166.44999999999999</ele>
        <time>2017-07-01T06:33:42Z</time>
      </trkpt>
      <trkpt lat="60.125699993222952" lon="10.829917034134269">
        <ele>161.63999999999999</ele>
        <time>2017-07-01T06:33:50Z</time>
      </trkpt>
      <trkpt lat="60.12290496379137" lon="10.831229975447059">
        <ele>152.50999999999999</ele>
        <time>2017-07-01T06:34:04Z</time>
      </trkpt>
      <trkpt lat="60.120655009523034" lon="10.83327298052609">
        <ele>146.25999999999999</ele>
        <time>2017-07-01T06:34:16Z</time>
      </trkpt>
      <trkpt lat="60.117113990709186" lon="10.837551020085812">
        <ele>141.44999999999999</ele>
        <time>2017-07-01T06:34:37Z</time>
      </trkpt>
      <trkpt lat="60.114606041461229" lon="10.840568002313375">
        <ele>138.09</ele>
        <time>2017-07-01T06:34:54Z</time>
      </trkpt>
      <trkpt lat="60.11282597668469" lon="10.843372000381351">
        <ele>137.13</ele>
        <time>2017-07-01T06:35:07Z</time>
      </trkpt>
      <trkpt lat="60.110039999708533" lon="10.847980035468936">
        <ele>137.13</ele>
        <time>2017-07-01T06:35:28Z</time>
      </trkpt>
      <trkpt lat="60.108668971806765" lon="10.850895009934902">
        <ele>138.09</ele>
        <time>2017-07-01T06:35:40Z</time>
      </trkpt>
      <trkpt lat="60.107633974403143" lon="10.853741001337767">
        <ele>138.56999999999999</ele>
        <time>2017-07-01T06:35:51Z</time>
      </trkpt>
      <trkpt lat="60.106039987877011" lon="10.857664989307523">
        <ele>141.93000000000001</ele>
        <time>2017-07-01T06:36:06Z</time>
      </trkpt>
      <trkpt lat="60.104011986404657" lon="10.86122402921319">
        <ele>137.61000000000001</ele>
        <time>2017-07-01T06:36:21Z</time>
      </trkpt>
      <trkpt lat="60.101961018517613" lon="10.863929037004709">
        <ele>139.53</ele>
        <time>2017-07-01T06:36:35Z</time>
      </trkpt>
      <trkpt lat="60.099126007407904" lon="10.866606971248984">
        <ele>140.00999999999999</ele>
        <time>2017-07-01T06:36:53Z</time>
      </trkpt>
      <trkpt lat="60.095977010205388" lon="10.868151001632214">
        <ele>137.13</ele>
        <time>2017-07-01T06:37:11Z</time>
      </trkpt>
      <trkpt lat="60.093585988506675" lon="10.868694987148046">
        <ele>137.13</ele>
        <time>2017-07-01T06:37:25Z</time>
      </trkpt>
      <trkpt lat="60.092054028064013" lon="10.870057968422771">
        <ele>135.19999999999999</ele>
        <time>2017-07-01T06:37:35Z</time>
      </trkpt>
      <trkpt lat="60.090751983225346" lon="10.871311984956264">
        <ele>135.68000000000001</ele>
        <time>2017-07-01T06:37:45Z</time>
      </trkpt>
      <trkpt lat="60.089560998603702" lon="10.872481008991599">
        <ele>138.56999999999999</ele>
        <time>2017-07-01T06:37:57Z</time>
      </trkpt>
      <trkpt lat="60.087722009047866" lon="10.874402979388833">
        <ele>141.93000000000001</ele>
        <time>2017-07-01T06:38:13Z</time>
      </trkpt>
      <trkpt lat="60.085901962593198" lon="10.876770028844476">
        <ele>142.88999999999999</ele>
        <time>2017-07-01T06:38:26Z</time>
      </trkpt>
      <trkpt lat="60.08345696143806" lon="10.879762033000588">
        <ele>140.97</ele>
        <time>2017-07-01T06:38:41Z</time>
      </trkpt>
      <trkpt lat="60.081684021279216" lon="10.881716022267938">
        <ele>136.63999999999999</ele>
        <time>2017-07-01T06:38:52Z</time>
      </trkpt>
      <trkpt lat="60.079301968216896" lon="10.883418973535299">
        <ele>129.43000000000001</ele>
        <time>2017-07-01T06:39:06Z</time>
      </trkpt>
      <trkpt lat="60.077359965071082" lon="10.885702036321163">
        <ele>129.91999999999999</ele>
        <time>2017-07-01T06:39:19Z</time>
      </trkpt>
      <trkpt lat="60.075240014120936" lon="10.887775970622897">
        <ele>125.11</ele>
        <time>2017-07-01T06:39:33Z</time>
      </trkpt>
      <trkpt lat="60.07363697513938" lon="10.887858029454947">
        <ele>122.22</ele>
        <time>2017-07-01T06:39:43Z</time>
      </trkpt>
      <trkpt lat="60.071430020034313" lon="10.887084966525435">
        <ele>121.73999999999999</ele>
        <time>2017-07-01T06:39:56Z</time>
      </trkpt>
      <trkpt lat="60.069718016311526" lon="10.88591099716723">
        <ele>121.73999999999999</ele>
        <time>2017-07-01T06:40:06Z</time>
      </trkpt>
      <trkpt lat="60.066700028255582" lon="10.883323000743985">
        <ele>121.73999999999999</ele>
        <time>2017-07-01T06:40:24Z</time>
      </trkpt>
      <trkpt lat="60.064344964921474" lon="10.882361009716988">
        <ele>120.78</ele>
        <time>2017-07-01T06:40:37Z</time>
      </trkpt>
      <trkpt lat="60.060535976663232" lon="10.8815280161798">
        <ele>116.94</ele>
        <time>2017-07-01T06:40:57Z</time>
      </trkpt>
      <trkpt lat="60.057943034917116" lon="10.881434977054596">
        <ele>116.94</ele>
        <time>2017-07-01T06:41:11Z</time>
      </trkpt>
      <trkpt lat="60.0562550034374" lon="10.88187200948596">
        <ele>116.45999999999999</ele>
        <time>2017-07-01T06:41:21Z</time>
      </trkpt>
      <trkpt lat="60.054938038811088" lon="10.881647961214185">
        <ele>115.5</ele>
        <time>2017-07-01T06:41:31Z</time>
      </trkpt>
      <trkpt lat="60.053427033126354" lon="10.881758015602827">
        <ele>110.69</ele>
        <time>2017-07-01T06:41:41Z</time>
      </trkpt>
      <trkpt lat="60.050738034769893" lon="10.882326979190111">
        <ele>116.45999999999999</ele>
        <time>2017-07-01T06:41:58Z</time>
      </trkpt>
      <trkpt lat="60.049099959433079" lon="10.882268976420164">
        <ele>113.09</ele>
        <time>2017-07-01T06:42:10Z</time>
      </trkpt>
      <trkpt lat="60.048275012522936" lon="10.882192030549049">
        <ele>112.13</ele>
        <time>2017-07-01T06:42:17Z</time>
      </trkpt>
      <trkpt lat="60.048175016418099" lon="10.88215297088027">
        <ele>112.13</ele>
        <time>2017-07-01T06:42:18Z</time>
      </trkpt>
      <trkpt lat="60.047868993133307" lon="10.882098991423845">
        <ele>112.13</ele>
        <time>2017-07-01T06:42:21Z</time>
      </trkpt>
      <trkpt lat="60.046574994921684" lon="10.882093040272593">
        <ele>110.69</ele>
        <time>2017-07-01T06:42:31Z</time>
      </trkpt>
      <trkpt lat="60.044335015118122" lon="10.882012993097305">
        <ele>108.77</ele>
        <time>2017-07-01T06:42:46Z</time>
      </trkpt>
      <trkpt lat="60.042839013040066" lon="10.882463017478585">
        <ele>108.77</ele>
        <time>2017-07-01T06:42:56Z</time>
      </trkpt>
      <trkpt lat="60.042049018666148" lon="10.882884040474892">
        <ele>108.77</ele>
        <time>2017-07-01T06:43:03Z</time>
      </trkpt>
      <trkpt lat="60.04194600507617" lon="10.882978001609445">
        <ele>108.77</ele>
        <time>2017-07-01T06:43:04Z</time>
      </trkpt>
      <trkpt lat="60.040824003517628" lon="10.883994977921247">
        <ele>109.25</ele>
        <time>2017-07-01T06:43:13Z</time>
      </trkpt>
      <trkpt lat="60.03844496794045" lon="10.885965982452035">
        <ele>107.81</ele>
        <time>2017-07-01T06:43:29Z</time>
      </trkpt>
      <trkpt lat="60.035681035369635" lon="10.888676019385457">
        <ele>108.77</ele>
        <time>2017-07-01T06:43:47Z</time>
      </trkpt>
      <trkpt lat="60.033838022500277" lon="10.891501978039742">
        <ele>112.61</ele>
        <time>2017-07-01T06:44:00Z</time>
      </trkpt>
      <trkpt lat="60.032644020393491" lon="10.892147971317172">
        <ele>116.94</ele>
        <time>2017-07-01T06:44:07Z</time>
      </trkpt>
      <trkpt lat="60.030630016699433" lon="10.89325899258256">
        <ele>122.70999999999999</ele>
        <time>2017-07-01T06:44:18Z</time>
      </trkpt>
      <trkpt lat="60.028587011620402" lon="10.895433006808162">
        <ele>121.26000000000001</ele>
        <time>2017-07-01T06:44:29Z</time>
      </trkpt>
      <trkpt lat="60.025987029075623" lon="10.898424005135894">
        <ele>122.22</ele>
        <time>2017-07-01T06:44:43Z</time>
      </trkpt>
      <trkpt lat="60.023691980168223" lon="10.900947963818908">
        <ele>126.06999999999999</ele>
        <time>2017-07-01T06:44:55Z</time>
      </trkpt>
      <trkpt lat="60.022699981927872" lon="10.903345020487905">
        <ele>126.55</ele>
        <time>2017-07-01T06:45:02Z</time>
      </trkpt>
      <trkpt lat="60.021577980369329" lon="10.905968975275755">
        <ele>130.88</ele>
        <time>2017-07-01T06:45:10Z</time>
      </trkpt>
      <trkpt lat="60.019556013867259" lon="10.909006996080279">
        <ele>143.37</ele>
        <time>2017-07-01T06:45:22Z</time>
      </trkpt>
      <trkpt lat="60.017397003248334" lon="10.911633968353271">
        <ele>155.87</ele>
        <time>2017-07-01T06:45:34Z</time>
      </trkpt>
      <trkpt lat="60.014226967468858" lon="10.915345977991819">
        <ele>159.24000000000001</ele>
        <time>2017-07-01T06:45:54Z</time>
      </trkpt>
      <trkpt lat="60.012507000938058" lon="10.916681969538331">
        <ele>161.63999999999999</ele>
        <time>2017-07-01T06:46:04Z</time>
      </trkpt>
      <trkpt lat="59.991420982405543" lon="10.926547972485423">
        <ele>202.97999999999999</ele>
        <time>2017-07-01T06:48:21Z</time>
      </trkpt>
      <trkpt lat="59.990453962236643" lon="10.928500033915043">
        <ele>225.09</ele>
        <time>2017-07-01T06:48:30Z</time>
      </trkpt>
      <trkpt lat="59.989486020058393" lon="10.929596973583102">
        <ele>230.84999999999999</ele>
        <time>2017-07-01T06:48:38Z</time>
      </trkpt>
      <trkpt lat="59.989341013133526" lon="10.929651958867908">
        <ele>231.33000000000001</ele>
        <time>2017-07-01T06:48:39Z</time>
      </trkpt>
      <trkpt lat="59.989201035350561" lon="10.929671991616488">
        <ele>232.30000000000001</ele>
        <time>2017-07-01T06:48:40Z</time>
      </trkpt>
      <trkpt lat="59.989064997062087" lon="10.929661011323333">
        <ele>232.78</ele>
        <time>2017-07-01T06:48:41Z</time>
      </trkpt>
      <trkpt lat="59.988946979865432" lon="10.929606026038527">
        <ele>233.25999999999999</ele>
        <time>2017-07-01T06:48:42Z</time>
      </trkpt>
      <trkpt lat="59.988839020952582" lon="10.929514998570085">
        <ele>233.74000000000001</ele>
        <time>2017-07-01T06:48:43Z</time>
      </trkpt>
      <trkpt lat="59.988739024847746" lon="10.929408967494965">
        <ele>233.74000000000001</ele>
        <time>2017-07-01T06:48:44Z</time>
      </trkpt>
      <trkpt lat="59.988428978249431" lon="10.929330009967089">
        <ele>234.69999999999999</ele>
        <time>2017-07-01T06:48:47Z</time>
      </trkpt>
      <trkpt lat="59.988328982144594" lon="10.92933596111834">
        <ele>234.69999999999999</ele>
        <time>2017-07-01T06:48:48Z</time>
      </trkpt>
      <trkpt lat="59.988109963014722" lon="10.929309977218509">
        <ele>234.69999999999999</ele>
        <time>2017-07-01T06:48:50Z</time>
      </trkpt>
      <trkpt lat="59.986984021961689" lon="10.928847966715693">
        <ele>231.33000000000001</ele>
        <time>2017-07-01T06:48:58Z</time>
      </trkpt>
      <trkpt lat="59.9848179705441" lon="10.927479034289718">
        <ele>223.16</ele>
        <time>2017-07-01T06:49:11Z</time>
      </trkpt>
      <trkpt lat="59.982874039560556" lon="10.92681996524334">
        <ele>222.19999999999999</ele>
        <time>2017-07-01T06:49:23Z</time>
      </trkpt>
      <trkpt lat="59.981118030846119" lon="10.927374009042978">
        <ele>221.24000000000001</ele>
        <time>2017-07-01T06:49:33Z</time>
      </trkpt>
      <trkpt lat="59.979136968031526" lon="10.928184958174825">
        <ele>213.55000000000001</ele>
        <time>2017-07-01T06:49:44Z</time>
      </trkpt>
      <trkpt lat="59.978803033009171" lon="10.928222006186843">
        <ele>211.63</ele>
        <time>2017-07-01T06:49:46Z</time>
      </trkpt>
      <trkpt lat="59.978641010820866" lon="10.928290989249945">
        <ele>211.15000000000001</ele>
        <time>2017-07-01T06:49:47Z</time>
      </trkpt>
      <trkpt lat="59.978481000289321" lon="10.928394002839923">
        <ele>210.66999999999999</ele>
        <time>2017-07-01T06:49:48Z</time>
      </trkpt>
      <trkpt lat="59.977539964020252" lon="10.929106967523694">
        <ele>205.38</ele>
        <time>2017-07-01T06:49:54Z</time>
      </trkpt>
      <trkpt lat="59.977379031479359" lon="10.929145021364093">
        <ele>204.41999999999999</ele>
        <time>2017-07-01T06:49:55Z</time>
      </trkpt>
      <trkpt lat="59.977226983755827" lon="10.929123982787132">
        <ele>202.97999999999999</ele>
        <time>2017-07-01T06:49:56Z</time>
      </trkpt>
      <trkpt lat="59.977072002366185" lon="10.929057011380792">
        <ele>201.53</ele>
        <time>2017-07-01T06:49:57Z</time>
      </trkpt>
      <trkpt lat="59.976911991834641" lon="10.9289460349828">
        <ele>201.05000000000001</ele>
        <time>2017-07-01T06:49:58Z</time>
      </trkpt>
      <trkpt lat="59.976756004616618" lon="10.928804967552423">
        <ele>200.09</ele>
        <time>2017-07-01T06:49:59Z</time>
      </trkpt>
      <trkpt lat="59.976603034883738" lon="10.928634982556105">
        <ele>199.13</ele>
        <time>2017-07-01T06:50:00Z</time>
      </trkpt>
      <trkpt lat="59.976452998816967" lon="10.928438007831573">
        <ele>198.16999999999999</ele>
        <time>2017-07-01T06:50:01Z</time>
      </trkpt>
      <trkpt lat="59.976311009377241" lon="10.928215971216559">
        <ele>197.21000000000001</ele>
        <time>2017-07-01T06:50:02Z</time>
      </trkpt>
      <trkpt lat="59.976175976917148" lon="10.927980020642281">
        <ele>196.25</ele>
        <time>2017-07-01T06:50:03Z</time>
      </trkpt>
      <trkpt lat="59.976054020226002" lon="10.927733005955815">
        <ele>194.80000000000001</ele>
        <time>2017-07-01T06:50:04Z</time>
      </trkpt>
      <trkpt lat="59.975941032171249" lon="10.927468976005912">
        <ele>193.84</ele>
        <time>2017-07-01T06:50:05Z</time>
      </trkpt>
      <trkpt lat="59.975754031911492" lon="10.926921973004937">
        <ele>191.91999999999999</ele>
        <time>2017-07-01T06:50:07Z</time>
      </trkpt>
      <trkpt lat="59.975670967251062" lon="10.926641011610627">
        <ele>190.96000000000001</ele>
        <time>2017-07-01T06:50:08Z</time>
      </trkpt>
      <trkpt lat="59.975178027525544" lon="10.923881018534303">
        <ele>187.59</ele>
        <time>2017-07-01T06:50:17Z</time>
      </trkpt>
      <trkpt lat="59.975104015320539" lon="10.923606008291245">
        <ele>187.59</ele>
        <time>2017-07-01T06:50:18Z</time>
      </trkpt>
      <trkpt lat="59.975020028650761" lon="10.923338960856199">
        <ele>187.11000000000001</ele>
        <time>2017-07-01T06:50:19Z</time>
      </trkpt>
      <trkpt lat="59.973646989092231" lon="10.919416984543204">
        <ele>185.66999999999999</ele>
        <time>2017-07-01T06:50:34Z</time>
      </trkpt>
      <trkpt lat="59.972649961709976" lon="10.917692994698882">
        <ele>182.78999999999999</ele>
        <time>2017-07-01T06:50:42Z</time>
      </trkpt>
      <trkpt lat="59.971120012924075" lon="10.915676979348063">
        <ele>180.87</ele>
        <time>2017-07-01T06:50:53Z</time>
      </trkpt>
      <trkpt lat="59.970999984070659" lon="10.915443962439895">
        <ele>180.38</ele>
        <time>2017-07-01T06:50:54Z</time>
      </trkpt>
      <trkpt lat="59.970890013501048" lon="10.915184961631894">
        <ele>180.38</ele>
        <time>2017-07-01T06:50:55Z</time>
      </trkpt>
      <trkpt lat="59.969962975010276" lon="10.912952022626996">
        <ele>180.87</ele>
        <time>2017-07-01T06:51:04Z</time>
      </trkpt>
      <trkpt lat="59.968069000169635" lon="10.910323960706592">
        <ele>183.75</ele>
        <time>2017-07-01T06:51:18Z</time>
      </trkpt>
      <trkpt lat="59.966583978384733" lon="10.907856998965144">
        <ele>187.11000000000001</ele>
        <time>2017-07-01T06:51:30Z</time>
      </trkpt>
      <trkpt lat="59.965501958504319" lon="10.905491961166263">
        <ele>190.47999999999999</ele>
        <time>2017-07-01T06:51:40Z</time>
      </trkpt>
      <trkpt lat="59.964832998812199" lon="10.903076967224479">
        <ele>194.80000000000001</ele>
        <time>2017-07-01T06:51:49Z</time>
      </trkpt>
      <trkpt lat="59.964737026020885" lon="10.902856020256877">
        <ele>195.28</ele>
        <time>2017-07-01T06:51:50Z</time>
      </trkpt>
      <trkpt lat="59.964633006602526" lon="10.902660973370075">
        <ele>195.77000000000001</ele>
        <time>2017-07-01T06:51:51Z</time>
      </trkpt>
      <trkpt lat="59.964523036032915" lon="10.902490988373756">
        <ele>195.77000000000001</ele>
        <time>2017-07-01T06:51:52Z</time>
      </trkpt>
      <trkpt lat="59.964409964159131" lon="10.902340030297637">
        <ele>196.25</ele>
        <time>2017-07-01T06:51:53Z</time>
      </trkpt>
      <trkpt lat="59.963178997859359" lon="10.900387968868017">
        <ele>194.80000000000001</ele>
        <time>2017-07-01T06:52:04Z</time>
      </trkpt>
      <trkpt lat="59.96159196831286" lon="10.897682039067149">
        <ele>192.40000000000001</ele>
        <time>2017-07-01T06:52:17Z</time>
      </trkpt>
      <trkpt lat="59.960241978988051" lon="10.895069986581802">
        <ele>193.36000000000001</ele>
        <time>2017-07-01T06:52:30Z</time>
      </trkpt>
      <trkpt lat="59.960070988163352" lon="10.894700009375811">
        <ele>192.88</ele>
        <time>2017-07-01T06:52:32Z</time>
      </trkpt>
      <trkpt lat="59.959996975958347" lon="10.894502028822899">
        <ele>192.88</ele>
        <time>2017-07-01T06:52:33Z</time>
      </trkpt>
      <trkpt lat="59.959930004552007" lon="10.894288038834929">
        <ele>192.40000000000001</ele>
        <time>2017-07-01T06:52:34Z</time>
      </trkpt>
      <trkpt lat="59.959874013438821" lon="10.894056027755141">
        <ele>191.91999999999999</ele>
        <time>2017-07-01T06:52:35Z</time>
      </trkpt>
      <trkpt lat="59.95983000844717" lon="10.893802978098392">
        <ele>191.44</ele>
        <time>2017-07-01T06:52:36Z</time>
      </trkpt>
      <trkpt lat="59.959800001233816" lon="10.893528973683715">
        <ele>190.96000000000001</ele>
        <time>2017-07-01T06:52:37Z</time>
      </trkpt>
      <trkpt lat="59.959780974313617" lon="10.893254969269037">
        <ele>190.96000000000001</ele>
        <time>2017-07-01T06:52:38Z</time>
      </trkpt>
      <trkpt lat="59.959775023162365" lon="10.892975013703108">
        <ele>190.47999999999999</ele>
        <time>2017-07-01T06:52:39Z</time>
      </trkpt>
      <trkpt lat="59.959782985970378" lon="10.892691034823656">
        <ele>190.47999999999999</ele>
        <time>2017-07-01T06:52:40Z</time>
      </trkpt>
      <trkpt lat="59.959802012890577" lon="10.892404960468411">
        <ele>190.47999999999999</ele>
        <time>2017-07-01T06:52:41Z</time>
      </trkpt>
      <trkpt lat="59.959832020103931" lon="10.892116958275437">
        <ele>190.47999999999999</ele>
        <time>2017-07-01T06:52:42Z</time>
      </trkpt>
      <trkpt lat="59.95997803285718" lon="10.88937004096806">
        <ele>191.44</ele>
        <time>2017-07-01T06:52:52Z</time>
      </trkpt>
      <trkpt lat="59.95989203453064" lon="10.885999007150531">
        <ele>188.08000000000001</ele>
        <time>2017-07-01T06:53:06Z</time>
      </trkpt>
      <trkpt lat="59.959897985681891" lon="10.885818041861057">
        <ele>188.08000000000001</ele>
        <time>2017-07-01T06:53:07Z</time>
      </trkpt>
      <trkpt lat="59.959927992895246" lon="10.885661970824003">
        <ele>188.08000000000001</ele>
        <time>2017-07-01T06:53:08Z</time>
      </trkpt>
      <trkpt lat="59.95998197235167" lon="10.885535990819335">
        <ele>188.08000000000001</ele>
        <time>2017-07-01T06:53:09Z</time>
      </trkpt>
      <trkpt lat="59.960051961243153" lon="10.885432977229357">
        <ele>188.56</ele>
        <time>2017-07-01T06:53:10Z</time>
      </trkpt>
      <trkpt lat="59.96012999676168" lon="10.885357959195971">
        <ele>188.56</ele>
        <time>2017-07-01T06:53:11Z</time>
      </trkpt>
      <trkpt lat="59.960209960117936" lon="10.88531001470983">
        <ele>189.03999999999999</ele>
        <time>2017-07-01T06:53:12Z</time>
      </trkpt>
      <trkpt lat="59.960291013121605" lon="10.885282019153237">
        <ele>189.03999999999999</ele>
        <time>2017-07-01T06:53:13Z</time>
      </trkpt>
      <trkpt lat="59.960364019498229" lon="10.885270033031702">
        <ele>189.03999999999999</ele>
        <time>2017-07-01T06:53:14Z</time>
      </trkpt>
      <trkpt lat="59.96043199673295" lon="10.885275984182954">
        <ele>189.52000000000001</ele>
        <time>2017-07-01T06:53:15Z</time>
      </trkpt>
      <trkpt lat="59.960497040301561" lon="10.885301968082786">
        <ele>189.52000000000001</ele>
        <time>2017-07-01T06:53:16Z</time>
      </trkpt>
      <trkpt lat="59.960554959252477" lon="10.885333986952901">
        <ele>190</ele>
        <time>2017-07-01T06:53:17Z</time>
      </trkpt>
      <trkpt lat="59.960601981729269" lon="10.885335998609662">
        <ele>190</ele>
        <time>2017-07-01T06:53:18Z</time>
      </trkpt>
      <trkpt lat="59.960649004206061" lon="10.885276990011334">
        <ele>190</ele>
        <time>2017-07-01T06:53:19Z</time>
      </trkpt>
      <trkpt lat="59.96066995896399" lon="10.885175988078117">
        <ele>190.47999999999999</ele>
        <time>2017-07-01T06:53:20Z</time>
      </trkpt>
      <trkpt lat="59.960660990327597" lon="10.885055959224701">
        <ele>190.47999999999999</ele>
        <time>2017-07-01T06:53:21Z</time>
      </trkpt>
      <trkpt lat="59.960637018084526" lon="10.884921010583639">
        <ele>190</ele>
        <time>2017-07-01T06:53:22Z</time>
      </trkpt>
      <trkpt lat="59.960608016699553" lon="10.884379036724567">
        <ele>189.03999999999999</ele>
        <time>2017-07-01T06:53:25Z</time>
      </trkpt>
      <trkpt lat="59.96056099422276" lon="10.88271196000278">
        <ele>188.56</ele>
        <time>2017-07-01T06:53:35Z</time>
      </trkpt>
      <trkpt lat="59.960529981181026" lon="10.882638031616807">
        <ele>189.03999999999999</ele>
        <time>2017-07-01T06:53:36Z</time>
      </trkpt>
      <trkpt lat="59.960487987846136" lon="10.882592014968395">
        <ele>189.03999999999999</ele>
        <time>2017-07-01T06:53:37Z</time>
      </trkpt>
      <trkpt lat="59.96043199673295" lon="10.882562007755041">
        <ele>189.03999999999999</ele>
        <time>2017-07-01T06:53:38Z</time>
      </trkpt>
      <trkpt lat="59.96036795899272" lon="10.882543986663222">
        <ele>189.03999999999999</ele>
        <time>2017-07-01T06:53:39Z</time>
      </trkpt>
      <trkpt lat="59.960300987586379" lon="10.882540969178081">
        <ele>189.03999999999999</ele>
        <time>2017-07-01T06:53:40Z</time>
      </trkpt>
      <trkpt lat="59.960226975381374" lon="10.882545998319983">
        <ele>189.03999999999999</ele>
        <time>2017-07-01T06:53:41Z</time>
      </trkpt>
      <trkpt lat="59.959466988220811" lon="10.882574999704957">
        <ele>190</ele>
        <time>2017-07-01T06:53:50Z</time>
      </trkpt>
      <trkpt lat="59.959256015717983" lon="10.882583968341351">
        <ele>189.52000000000001</ele>
        <time>2017-07-01T06:53:58Z</time>
      </trkpt>
      <trkpt lat="59.958728039637208" lon="10.882650017738342">
        <ele>186.63</ele>
        <time>2017-07-01T06:54:05Z</time>
      </trkpt>
      <trkpt lat="59.957421971485019" lon="10.882886974141002">
        <ele>184.22999999999999</ele>
        <time>2017-07-01T06:54:18Z</time>
      </trkpt>
      <trkpt lat="59.957333039492369" lon="10.882857972756028">
        <ele>183.75</ele>
        <time>2017-07-01T06:54:19Z</time>
      </trkpt>
      <trkpt lat="59.957248969003558" lon="10.882787983864546">
        <ele>183.27000000000001</ele>
        <time>2017-07-01T06:54:20Z</time>
      </trkpt>
      <trkpt lat="59.957175040617585" lon="10.882672984153032">
        <ele>182.31</ele>
        <time>2017-07-01T06:54:21Z</time>
      </trkpt>
      <trkpt lat="59.957120977342129" lon="10.882511967793107">
        <ele>181.34999999999999</ele>
        <time>2017-07-01T06:54:22Z</time>
      </trkpt>
      <trkpt lat="59.957080995664001" lon="10.882339971140027">
        <ele>180.38</ele>
        <time>2017-07-01T06:54:23Z</time>
      </trkpt>
      <trkpt lat="59.957061968743801" lon="10.882137967273593">
        <ele>179.41999999999999</ele>
        <time>2017-07-01T06:54:24Z</time>
      </trkpt>
      <trkpt lat="59.957044031471014" lon="10.881934035569429">
        <ele>178.46000000000001</ele>
        <time>2017-07-01T06:54:25Z</time>
      </trkpt>
      <trkpt lat="59.956986028701067" lon="10.881374040618539">
        <ele>176.06</ele>
        <time>2017-07-01T06:54:28Z</time>
      </trkpt>
      <trkpt lat="59.956944035366178" lon="10.881217969581485">
        <ele>175.09999999999999</ele>
        <time>2017-07-01T06:54:29Z</time>
      </trkpt>
      <trkpt lat="59.95688796043396" lon="10.881081009283662">
        <ele>174.62</ele>
        <time>2017-07-01T06:54:30Z</time>
      </trkpt>
      <trkpt lat="59.956815959885716" lon="10.880970032885671">
        <ele>174.13999999999999</ele>
        <time>2017-07-01T06:54:31Z</time>
      </trkpt>
      <trkpt lat="59.956737002357841" lon="10.880891997367144">
        <ele>173.66</ele>
        <time>2017-07-01T06:54:32Z</time>
      </trkpt>
      <trkpt lat="59.956652009859681" lon="10.880845980718732">
        <ele>173.16999999999999</ele>
        <time>2017-07-01T06:54:33Z</time>
      </trkpt>
      <trkpt lat="59.956567017361522" lon="10.880822008475661">
        <ele>172.69</ele>
        <time>2017-07-01T06:54:34Z</time>
      </trkpt>
      <trkpt lat="59.956481019034982" lon="10.880810022354126">
        <ele>172.21000000000001</ele>
        <time>2017-07-01T06:54:35Z</time>
      </trkpt>
      <trkpt lat="59.956058990210295" lon="10.880738021805882">
        <ele>168.84999999999999</ele>
        <time>2017-07-01T06:54:40Z</time>
      </trkpt>
      <trkpt lat="59.955989001318812" lon="10.880665015429258">
        <ele>167.88999999999999</ele>
        <time>2017-07-01T06:54:41Z</time>
      </trkpt>
      <trkpt lat="59.955930998548865" lon="10.880557978525758">
        <ele>167.41</ele>
        <time>2017-07-01T06:54:42Z</time>
      </trkpt>
      <trkpt lat="59.955887999385595" lon="10.880425041541457">
        <ele>165.96000000000001</ele>
        <time>2017-07-01T06:54:43Z</time>
      </trkpt>
      <trkpt lat="59.955857992172241" lon="10.880269976332784">
        <ele>165.47999999999999</ele>
        <time>2017-07-01T06:54:44Z</time>
      </trkpt>
      <trkpt lat="59.955835025757551" lon="10.880094962194562">
        <ele>164.52000000000001</ele>
        <time>2017-07-01T06:54:45Z</time>
      </trkpt>
      <trkpt lat="59.955813987180591" lon="10.879912991076708">
        <ele>164.03999999999999</ele>
        <time>2017-07-01T06:54:46Z</time>
      </trkpt>
      <trkpt lat="59.955655988305807" lon="10.87890699505806">
        <ele>161.63999999999999</ele>
        <time>2017-07-01T06:54:52Z</time>
      </trkpt>
      <trkpt lat="59.955603014677763" lon="10.878760982304811">
        <ele>161.16</ele>
        <time>2017-07-01T06:54:53Z</time>
      </trkpt>
      <trkpt lat="59.955536965280771" lon="10.878622010350227">
        <ele>160.19999999999999</ele>
        <time>2017-07-01T06:54:54Z</time>
      </trkpt>
      <trkpt lat="59.955463036894798" lon="10.878494018688798">
        <ele>159.72</ele>
        <time>2017-07-01T06:54:55Z</time>
      </trkpt>
      <trkpt lat="59.955380978062749" lon="10.878379018977284">
        <ele>158.75</ele>
        <time>2017-07-01T06:54:56Z</time>
      </trkpt>
      <trkpt lat="59.95529598556459" lon="10.878277011215687">
        <ele>157.78999999999999</ele>
        <time>2017-07-01T06:54:57Z</time>
      </trkpt>
      <trkpt lat="59.955206969752908" lon="10.878195036202669">
        <ele>156.83000000000001</ele>
        <time>2017-07-01T06:54:58Z</time>
      </trkpt>
      <trkpt lat="59.955116026103497" lon="10.878141978755593">
        <ele>156.34999999999999</ele>
        <time>2017-07-01T06:54:59Z</time>
      </trkpt>
      <trkpt lat="59.955032039433718" lon="10.878125969320536">
        <ele>155.87</ele>
        <time>2017-07-01T06:55:00Z</time>
      </trkpt>
      <trkpt lat="59.954960038885474" lon="10.878153964877129">
        <ele>155.38999999999999</ele>
        <time>2017-07-01T06:55:01Z</time>
      </trkpt>
      <trkpt lat="59.954897006973624" lon="10.878232000395656">
        <ele>155.38999999999999</ele>
        <time>2017-07-01T06:55:02Z</time>
      </trkpt>
      <trkpt lat="59.954853001981974" lon="10.878351023420691">
        <ele>154.91</ele>
        <time>2017-07-01T06:55:03Z</time>
      </trkpt>
      <trkpt lat="59.954828023910522" lon="10.878497958183289">
        <ele>154.91</ele>
        <time>2017-07-01T06:55:04Z</time>
      </trkpt>
      <trkpt lat="59.954814026132226" lon="10.878660986199975">
        <ele>154.43000000000001</ele>
        <time>2017-07-01T06:55:05Z</time>
      </trkpt>
      <trkpt lat="59.954811008647084" lon="10.878827031701803">
        <ele>153.94999999999999</ele>
        <time>2017-07-01T06:55:06Z</time>
      </trkpt>
      <trkpt lat="59.954812014475465" lon="10.878998022526503">
        <ele>153.47</ele>
        <time>2017-07-01T06:55:07Z</time>
      </trkpt>
      <trkpt lat="59.95480002835393" lon="10.879332963377237">
        <ele>152.99000000000001</ele>
        <time>2017-07-01T06:55:09Z</time>
      </trkpt>
      <trkpt lat="59.954775972291827" lon="10.879503032192588">
        <ele>152.50999999999999</ele>
        <time>2017-07-01T06:55:10Z</time>
      </trkpt>
      <trkpt lat="59.954740013927221" lon="10.879669999703765">
        <ele>151.53999999999999</ele>
        <time>2017-07-01T06:55:11Z</time>
      </trkpt>
      <trkpt lat="59.954692991450429" lon="10.879824981093407">
        <ele>151.06</ele>
        <time>2017-07-01T06:55:12Z</time>
      </trkpt>
      <trkpt lat="59.954633982852101" lon="10.879966970533133">
        <ele>150.58000000000001</ele>
        <time>2017-07-01T06:55:13Z</time>
      </trkpt>
      <trkpt lat="59.954563993960619" lon="10.880096973851323">
        <ele>150.09999999999999</ele>
        <time>2017-07-01T06:55:14Z</time>
      </trkpt>
      <trkpt lat="59.954487970098853" lon="10.880209039896727">
        <ele>149.62</ele>
        <time>2017-07-01T06:55:15Z</time>
      </trkpt>
      <trkpt lat="59.954404989257455" lon="10.880310963839293">
        <ele>149.13999999999999</ele>
        <time>2017-07-01T06:55:16Z</time>
      </trkpt>
      <trkpt lat="59.954319996759295" lon="10.880394028499722">
        <ele>149.13999999999999</ele>
        <time>2017-07-01T06:55:17Z</time>
      </trkpt>
      <trkpt lat="59.954231986775994" lon="10.880464017391205">
        <ele>148.66</ele>
        <time>2017-07-01T06:55:18Z</time>
      </trkpt>
      <trkpt lat="59.954144982621074" lon="10.880513973534107">
        <ele>148.18000000000001</ele>
        <time>2017-07-01T06:55:19Z</time>
      </trkpt>
      <trkpt lat="59.953376026824117" lon="10.881183017045259">
        <ele>145.30000000000001</ele>
        <time>2017-07-01T06:55:29Z</time>
      </trkpt>
      <trkpt lat="59.953314000740647" lon="10.881304973736405">
        <ele>144.81999999999999</ele>
        <time>2017-07-01T06:55:30Z</time>
      </trkpt>
      <trkpt lat="59.953260021284223" lon="10.881430031731725">
        <ele>144.81999999999999</ele>
        <time>2017-07-01T06:55:31Z</time>
      </trkpt>
      <trkpt lat="59.953220039606094" lon="10.881566992029548">
        <ele>144.81999999999999</ele>
        <time>2017-07-01T06:55:32Z</time>
      </trkpt>
      <trkpt lat="59.95319003239274" lon="10.881719039753079">
        <ele>144.81999999999999</ele>
        <time>2017-07-01T06:55:33Z</time>
      </trkpt>
      <trkpt lat="59.953174022957683" lon="10.881867986172438">
        <ele>144.34</ele>
        <time>2017-07-01T06:55:34Z</time>
      </trkpt>
      <trkpt lat="59.953177040442824" lon="10.882012993097305">
        <ele>144.34</ele>
        <time>2017-07-01T06:55:35Z</time>
      </trkpt>
      <trkpt lat="59.953191038221121" lon="10.882165962830186">
        <ele>143.84999999999999</ele>
        <time>2017-07-01T06:55:36Z</time>
      </trkpt>
      <trkpt lat="59.953219033777714" lon="10.882327985018492">
        <ele>143.84999999999999</ele>
        <time>2017-07-01T06:55:37Z</time>
      </trkpt>
      <trkpt lat="59.953259015455842" lon="10.882490007206798">
        <ele>143.37</ele>
        <time>2017-07-01T06:55:38Z</time>
      </trkpt>
      <trkpt lat="59.953306037932634" lon="10.88264599442482">
        <ele>142.88999999999999</ele>
        <time>2017-07-01T06:55:39Z</time>
      </trkpt>
      <trkpt lat="59.953354988247156" lon="10.882797036319971">
        <ele>142.41</ele>
        <time>2017-07-01T06:55:40Z</time>
      </trkpt>
      <trkpt lat="59.953981032595038" lon="10.884164040908217">
        <ele>135.68000000000001</ele>
        <time>2017-07-01T06:55:51Z</time>
      </trkpt>
      <trkpt lat="59.954016990959644" lon="10.884264959022403">
        <ele>135.19999999999999</ele>
        <time>2017-07-01T06:55:52Z</time>
      </trkpt>
      <trkpt lat="59.954036017879844" lon="10.884368978440762">
        <ele>134.72</ele>
        <time>2017-07-01T06:55:53Z</time>
      </trkpt>
      <trkpt lat="59.954042974859476" lon="10.884480038657784">
        <ele>134.24000000000001</ele>
        <time>2017-07-01T06:55:54Z</time>
      </trkpt>
      <trkpt lat="59.954038029536605" lon="10.884592020884156">
        <ele>134.24000000000001</ele>
        <time>2017-07-01T06:55:55Z</time>
      </trkpt>
      <trkpt lat="59.954025959596038" lon="10.884706014767289">
        <ele>133.75999999999999</ele>
        <time>2017-07-01T06:55:56Z</time>
      </trkpt>
      <trkpt lat="59.95400601066649" lon="10.884820008650422">
        <ele>133.28</ele>
        <time>2017-07-01T06:55:57Z</time>
      </trkpt>
      <trkpt lat="59.953982038423419" lon="10.884934002533555">
        <ele>132.80000000000001</ele>
        <time>2017-07-01T06:55:58Z</time>
      </trkpt>
      <trkpt lat="59.953741980716586" lon="10.885757021605968">
        <ele>130.88</ele>
        <time>2017-07-01T06:56:04Z</time>
      </trkpt>
      <trkpt lat="59.953681966289878" lon="10.885881995782256">
        <ele>130.88</ele>
        <time>2017-07-01T06:56:05Z</time>
      </trkpt>
      <trkpt lat="59.953609965741634" lon="10.885990960523486">
        <ele>131.36000000000001</ele>
        <time>2017-07-01T06:56:06Z</time>
      </trkpt>
      <trkpt lat="59.953531008213758" lon="10.886052986606956">
        <ele>131.84</ele>
        <time>2017-07-01T06:56:07Z</time>
      </trkpt>
      <trkpt lat="59.95344702154398" lon="10.88608399964869">
        <ele>131.36000000000001</ele>
        <time>2017-07-01T06:56:08Z</time>
      </trkpt>
      <trkpt lat="59.953358005732298" lon="10.886086011305451">
        <ele>130.40000000000001</ele>
        <time>2017-07-01T06:56:09Z</time>
      </trkpt>
      <trkpt lat="59.953273013234138" lon="10.886101014912128">
        <ele>130.40000000000001</ele>
        <time>2017-07-01T06:56:10Z</time>
      </trkpt>
      <trkpt lat="59.951841970905662" lon="10.88619003072381">
        <ele>126.06999999999999</ele>
        <time>2017-07-01T06:56:26Z</time>
      </trkpt>
      <trkpt lat="59.95071804150939" lon="10.886387005448341">
        <ele>119.34</ele>
        <time>2017-07-01T06:56:38Z</time>
      </trkpt>
      <trkpt lat="59.950379999354482" lon="10.886677019298077">
        <ele>120.78</ele>
        <time>2017-07-01T06:56:43Z</time>
      </trkpt>
      <trkpt lat="59.950335994362831" lon="10.886789001524448">
        <ele>121.26000000000001</ele>
        <time>2017-07-01T06:56:44Z</time>
      </trkpt>
      <trkpt lat="59.950307998806238" lon="10.88689997792244">
        <ele>121.26000000000001</ele>
        <time>2017-07-01T06:56:45Z</time>
      </trkpt>
      <trkpt lat="59.950297018513083" lon="10.887014977633953">
        <ele>121.26000000000001</ele>
        <time>2017-07-01T06:56:46Z</time>
      </trkpt>
      <trkpt lat="59.950286038219929" lon="10.887122014537454">
        <ele>121.26000000000001</ele>
        <time>2017-07-01T06:56:47Z</time>
      </trkpt>
      <trkpt lat="59.950254019349813" lon="10.88732804171741">
        <ele>120.78</ele>
        <time>2017-07-01T06:56:49Z</time>
      </trkpt>
      <trkpt lat="59.950232980772853" lon="10.887431977316737">
        <ele>120.78</ele>
        <time>2017-07-01T06:56:50Z</time>
      </trkpt>
      <trkpt lat="59.950183024629951" lon="10.887648984789848">
        <ele>120.78</ele>
        <time>2017-07-01T06:56:52Z</time>
      </trkpt>
      <trkpt lat="59.950085040181875" lon="10.888008987531066">
        <ele>120.78</ele>
        <time>2017-07-01T06:56:55Z</time>
      </trkpt>
      <trkpt lat="59.950033994391561" lon="10.888149971142411">
        <ele>120.78</ele>
        <time>2017-07-01T06:56:56Z</time>
      </trkpt>
      <trkpt lat="59.949922012165189" lon="10.888419030234218">
        <ele>120.78</ele>
        <time>2017-07-01T06:56:58Z</time>
      </trkpt>
      <trkpt lat="59.949858980253339" lon="10.888533024117351">
        <ele>120.3</ele>
        <time>2017-07-01T06:56:59Z</time>
      </trkpt>
      <trkpt lat="59.949797037988901" lon="10.888624973595142">
        <ele>120.3</ele>
        <time>2017-07-01T06:57:00Z</time>
      </trkpt>
      <trkpt lat="59.949741968885064" lon="10.888682976365089">
        <ele>120.3</ele>
        <time>2017-07-01T06:57:01Z</time>
      </trkpt>
      <trkpt lat="59.949702993035316" lon="10.888714995235205">
        <ele>120.3</ele>
        <time>2017-07-01T06:57:02Z</time>
      </trkpt>
      <trkpt lat="59.949670974165201" lon="10.888733016327024">
        <ele>119.81999999999999</ele>
        <time>2017-07-01T06:57:03Z</time>
      </trkpt>
      <trkpt lat="59.949371991679072" lon="10.888915993273258">
        <ele>120.3</ele>
        <time>2017-07-01T06:57:09Z</time>
      </trkpt>
      <trkpt lat="59.94889497756958" lon="10.888878023251891">
        <ele>119.34</ele>
        <time>2017-07-01T06:57:15Z</time>
      </trkpt>
      <trkpt lat="59.948806967586279" lon="10.888826977461576">
        <ele>118.38</ele>
        <time>2017-07-01T06:57:16Z</time>
      </trkpt>
      <trkpt lat="59.948719963431358" lon="10.888766041025519">
        <ele>117.90000000000001</ele>
        <time>2017-07-01T06:57:17Z</time>
      </trkpt>
      <trkpt lat="59.948202967643738" lon="10.88829698972404">
        <ele>114.05</ele>
        <time>2017-07-01T06:57:23Z</time>
      </trkpt>
      <trkpt lat="59.94812099263072" lon="10.888185007497668">
        <ele>114.05</ele>
        <time>2017-07-01T06:57:24Z</time>
      </trkpt>
      <trkpt lat="59.948042035102844" lon="10.888055004179478">
        <ele>114.05</ele>
        <time>2017-07-01T06:57:25Z</time>
      </trkpt>
      <trkpt lat="59.947602991014719" lon="10.887300968170166">
        <ele>116.94</ele>
        <time>2017-07-01T06:57:31Z</time>
      </trkpt>
      <trkpt lat="59.947521016001701" lon="10.887216981500387">
        <ele>116.94</ele>
        <time>2017-07-01T06:57:32Z</time>
      </trkpt>
      <trkpt lat="59.94743200019002" lon="10.88715897873044">
        <ele>117.42</ele>
        <time>2017-07-01T06:57:33Z</time>
      </trkpt>
      <trkpt lat="59.947337033227086" lon="10.887132994830608">
        <ele>117.90000000000001</ele>
        <time>2017-07-01T06:57:34Z</time>
      </trkpt>
      <trkpt lat="59.947241982445121" lon="10.887123020365834">
        <ele>117.90000000000001</ele>
        <time>2017-07-01T06:57:35Z</time>
      </trkpt>
      <trkpt lat="59.947143997997046" lon="10.887117991223931">
        <ele>118.38</ele>
        <time>2017-07-01T06:57:36Z</time>
      </trkpt>
      <trkpt lat="59.945772970095277" lon="10.886821020394564">
        <ele>125.11</ele>
        <time>2017-07-01T06:57:48Z</time>
      </trkpt>
      <trkpt lat="59.944496992975473" lon="10.886143008247018">
        <ele>119.81999999999999</ele>
        <time>2017-07-01T06:57:58Z</time>
      </trkpt>
      <trkpt lat="59.942952962592244" lon="10.884389011189342">
        <ele>119.34</ele>
        <time>2017-07-01T06:58:10Z</time>
      </trkpt>
      <trkpt lat="59.940520031377673" lon="10.881631029769778">
        <ele>117.90000000000001</ele>
        <time>2017-07-01T06:58:31Z</time>
      </trkpt>
      <trkpt lat="59.939227038994431" lon="10.880491007119417">
        <ele>118.38</ele>
        <time>2017-07-01T06:58:42Z</time>
      </trkpt>
      <trkpt lat="59.937326023355126" lon="10.878643970936537">
        <ele>121.73999999999999</ele>
        <time>2017-07-01T06:58:58Z</time>
      </trkpt>
      <trkpt lat="59.936688998714089" lon="10.877928994596004">
        <ele>119.34</ele>
        <time>2017-07-01T06:59:05Z</time>
      </trkpt>
      <trkpt lat="59.935815017670393" lon="10.876408014446497">
        <ele>116.45999999999999</ele>
        <time>2017-07-01T06:59:14Z</time>
      </trkpt>
      <trkpt lat="59.93512200191617" lon="10.874235006049275">
        <ele>116.45999999999999</ele>
        <time>2017-07-01T06:59:23Z</time>
      </trkpt>
      <trkpt lat="59.934956962242723" lon="10.873203026130795">
        <ele>117.42</ele>
        <time>2017-07-01T06:59:28Z</time>
      </trkpt>
      <trkpt lat="59.934952016919851" lon="10.873046033084393">
        <ele>117.42</ele>
        <time>2017-07-01T06:59:29Z</time>
      </trkpt>
      <trkpt lat="59.934956962242723" lon="10.872904965654016">
        <ele>117.42</ele>
        <time>2017-07-01T06:59:30Z</time>
      </trkpt>
      <trkpt lat="59.934933995828032" lon="10.872572036460042">
        <ele>116.94</ele>
        <time>2017-07-01T06:59:33Z</time>
      </trkpt>
      <trkpt lat="59.934901976957917" lon="10.872518979012966">
        <ele>116.45999999999999</ele>
        <time>2017-07-01T06:59:34Z</time>
      </trkpt>
      <trkpt lat="59.934859983623028" lon="10.872515039518476">
        <ele>116.45999999999999</ele>
        <time>2017-07-01T06:59:35Z</time>
      </trkpt>
      <trkpt lat="59.934813966974616" lon="10.872555021196604">
        <ele>116.45999999999999</ele>
        <time>2017-07-01T06:59:36Z</time>
      </trkpt>
      <trkpt lat="59.934766022488475" lon="10.872607994824648">
        <ele>116.45999999999999</ele>
        <time>2017-07-01T06:59:37Z</time>
      </trkpt>
      <trkpt lat="59.934654040262103" lon="10.872715031728148">
        <ele>116.45999999999999</ele>
        <time>2017-07-01T06:59:39Z</time>
      </trkpt>
      <trkpt lat="59.934591008350253" lon="10.872764987871051">
        <ele>116.94</ele>
        <time>2017-07-01T06:59:40Z</time>
      </trkpt>
      <trkpt lat="59.934415994212031" lon="10.872858026996255">
        <ele>117.90000000000001</ele>
        <time>2017-07-01T06:59:43Z</time>
      </trkpt>
      <trkpt lat="59.934378024190664" lon="10.872903037816286">
        <ele>117.90000000000001</ele>
        <time>2017-07-01T06:59:44Z</time>
      </trkpt>
      <trkpt lat="59.934350028634071" lon="10.872965985909104">
        <ele>118.38</ele>
        <time>2017-07-01T06:59:45Z</time>
      </trkpt>
      <trkpt lat="59.934332007542253" lon="10.873037986457348">
        <ele>118.38</ele>
        <time>2017-07-01T06:59:46Z</time>
      </trkpt>
      <trkpt lat="59.934319015592337" lon="10.87312800809741">
        <ele>118.86</ele>
        <time>2017-07-01T06:59:47Z</time>
      </trkpt>
      <trkpt lat="59.934307029470801" lon="10.873232027515769">
        <ele>118.86</ele>
        <time>2017-07-01T06:59:48Z</time>
      </trkpt>
      <trkpt lat="59.934293031692505" lon="10.873357001692057">
        <ele>119.34</ele>
        <time>2017-07-01T06:59:49Z</time>
      </trkpt>
      <trkpt lat="59.93428498506546" lon="10.87349102832377">
        <ele>119.34</ele>
        <time>2017-07-01T06:59:50Z</time>
      </trkpt>
      <trkpt lat="59.934222958981991" lon="10.875104041770101">
        <ele>118.86</ele>
        <time>2017-07-01T07:00:00Z</time>
      </trkpt>
      <trkpt lat="59.93424098007381" lon="10.875273020938039">
        <ele>118.38</ele>
        <time>2017-07-01T07:00:01Z</time>
      </trkpt>
      <trkpt lat="59.93456301279366" lon="10.876684030517936">
        <ele>115.5</ele>
        <time>2017-07-01T07:00:09Z</time>
      </trkpt>
      <trkpt lat="59.934619003906846" lon="10.8768240083009">
        <ele>115.5</ele>
        <time>2017-07-01T07:00:10Z</time>
      </trkpt>
      <trkpt lat="59.935151003301144" lon="10.878139967098832">
        <ele>116.94</ele>
        <time>2017-07-01T07:00:22Z</time>
      </trkpt>
      <trkpt lat="59.935256028547883" lon="10.878326967358589">
        <ele>116.94</ele>
        <time>2017-07-01T07:00:31Z</time>
      </trkpt>
      <trkpt lat="59.935263991355896" lon="10.878329984843731">
        <ele>116.94</ele>
        <time>2017-07-01T07:00:34Z</time>
      </trkpt>
      <trkpt lat="59.935288969427347" lon="10.87832797318697">
        <ele>116.94</ele>
        <time>2017-07-01T07:00:35Z</time>
      </trkpt>
      <trkpt lat="59.935332974418998" lon="10.878324033692479">
        <ele>116.94</ele>
        <time>2017-07-01T07:00:36Z</time>
      </trkpt>
    </trkseg>
  </trk>

  <trk>
    <name>Track vom: 01 Jul 2017 10:53</name>
    <extensions>
      <gpxx:TrackExtension>
        <gpxx:DisplayColor>DarkGray</gpxx:DisplayColor>
      </gpxx:TrackExtension>
    </extensions>
    <trkseg>
      <trkpt lat="59.935241024941206" lon="10.877666976302862">
        <ele>145.30000000000001</ele>
        <time>2017-07-01T08:53:45Z</time>
      </trkpt>
      <trkpt lat="59.93525099940598" lon="10.877655996009707">
        <ele>143.37</ele>
        <time>2017-07-01T08:54:04Z</time>
      </trkpt>
      <trkpt lat="59.935176987200975" lon="10.877370005473495">
        <ele>142.41</ele>
        <time>2017-07-01T08:54:09Z</time>
      </trkpt>
      <trkpt lat="59.935138011351228" lon="10.877261040732265">
        <ele>141.93000000000001</ele>
        <time>2017-07-01T08:54:10Z</time>
      </trkpt>
      <trkpt lat="59.934673989191651" lon="10.87624398060143">
        <ele>138.09</ele>
        <time>2017-07-01T08:54:18Z</time>
      </trkpt>
      <trkpt lat="59.934553960338235" lon="10.875937035307288">
        <ele>135.19999999999999</ele>
        <time>2017-07-01T08:54:20Z</time>
      </trkpt>
      <trkpt lat="59.934502998366952" lon="10.875765960663557">
        <ele>133.75999999999999</ele>
        <time>2017-07-01T08:54:21Z</time>
      </trkpt>
      <trkpt lat="59.934338964521885" lon="10.874859960749745">
        <ele>133.28</ele>
        <time>2017-07-01T08:54:26Z</time>
      </trkpt>
      <trkpt lat="59.93432798422873" lon="10.87467597797513">
        <ele>133.28</ele>
        <time>2017-07-01T08:54:27Z</time>
      </trkpt>
      <trkpt lat="59.93432798422873" lon="10.874484032392502">
        <ele>133.75999999999999</ele>
        <time>2017-07-01T08:54:28Z</time>
      </trkpt>
      <trkpt lat="59.934422029182315" lon="10.873162038624287">
        <ele>132.31999999999999</ele>
        <time>2017-07-01T08:54:35Z</time>
      </trkpt>
      <trkpt lat="59.934441978111863" lon="10.873051984235644">
        <ele>131.84</ele>
        <time>2017-07-01T08:54:36Z</time>
      </trkpt>
      <trkpt lat="59.934466034173965" lon="10.872973026707768">
        <ele>131.36000000000001</ele>
        <time>2017-07-01T08:54:37Z</time>
      </trkpt>
      <trkpt lat="59.934500986710191" lon="10.872906977310777">
        <ele>131.36000000000001</ele>
        <time>2017-07-01T08:54:38Z</time>
      </trkpt>
      <trkpt lat="59.934553038328886" lon="10.872862972319126">
        <ele>130.88</ele>
        <time>2017-07-01T08:54:39Z</time>
      </trkpt>
      <trkpt lat="59.934612968936563" lon="10.872817961499095">
        <ele>130.88</ele>
        <time>2017-07-01T08:54:40Z</time>
      </trkpt>
      <trkpt lat="59.934683041647077" lon="10.872790971770883">
        <ele>130.40000000000001</ele>
        <time>2017-07-01T08:54:41Z</time>
      </trkpt>
      <trkpt lat="59.934755964204669" lon="10.872778985649347">
        <ele>129.91999999999999</ele>
        <time>2017-07-01T08:54:42Z</time>
      </trkpt>
      <trkpt lat="59.934827964752913" lon="10.872782003134489">
        <ele>129.43000000000001</ele>
        <time>2017-07-01T08:54:43Z</time>
      </trkpt>
      <trkpt lat="59.934899965301156" lon="10.872796000912786">
        <ele>129.43000000000001</ele>
        <time>2017-07-01T08:54:44Z</time>
      </trkpt>
      <trkpt lat="59.935029968619347" lon="10.872775968164206">
        <ele>128.47</ele>
        <time>2017-07-01T08:54:46Z</time>
      </trkpt>
      <trkpt lat="59.935071039944887" lon="10.872708996757865">
        <ele>127.98999999999999</ele>
        <time>2017-07-01T08:54:47Z</time>
      </trkpt>
      <trkpt lat="59.935089983046055" lon="10.872616963461041">
        <ele>127.51000000000001</ele>
        <time>2017-07-01T08:54:48Z</time>
      </trkpt>
      <trkpt lat="59.935095012187958" lon="10.872510010376573">
        <ele>127.51000000000001</ele>
        <time>2017-07-01T08:54:49Z</time>
      </trkpt>
      <trkpt lat="59.935075985267758" lon="10.872405990958214">
        <ele>127.51000000000001</ele>
        <time>2017-07-01T08:54:50Z</time>
      </trkpt>
      <trkpt lat="59.935044972226024" lon="10.872295014560223">
        <ele>127.51000000000001</ele>
        <time>2017-07-01T08:54:51Z</time>
      </trkpt>
      <trkpt lat="59.934999961405993" lon="10.872178003191948">
        <ele>127.51000000000001</ele>
        <time>2017-07-01T08:54:52Z</time>
      </trkpt>
      <trkpt lat="59.934879010543227" lon="10.87166503071785">
        <ele>127.51000000000001</ele>
        <time>2017-07-01T08:54:55Z</time>
      </trkpt>
      <trkpt lat="59.934571981430054" lon="10.868857009336352">
        <ele>127.03</ele>
        <time>2017-07-01T08:55:07Z</time>
      </trkpt>
      <trkpt lat="59.934035958722234" lon="10.866542011499405">
        <ele>127.98999999999999</ele>
        <time>2017-07-01T08:55:17Z</time>
      </trkpt>
      <trkpt lat="59.933694982901216" lon="10.865226974710822">
        <ele>128.94999999999999</ele>
        <time>2017-07-01T08:55:23Z</time>
      </trkpt>
      <trkpt lat="59.933012025430799" lon="10.862974002957344">
        <ele>127.03</ele>
        <time>2017-07-01T08:55:33Z</time>
      </trkpt>
      <trkpt lat="59.932463010773063" lon="10.861077010631561">
        <ele>124.63</ele>
        <time>2017-07-01T08:55:43Z</time>
      </trkpt>
      <trkpt lat="59.932382963597775" lon="10.860732011497021">
        <ele>125.11</ele>
        <time>2017-07-01T08:55:46Z</time>
      </trkpt>
      <trkpt lat="59.93237198330462" lon="10.860631009563804">
        <ele>125.11</ele>
        <time>2017-07-01T08:55:47Z</time>
      </trkpt>
      <trkpt lat="59.932379024103284" lon="10.860529001802206">
        <ele>125.11</ele>
        <time>2017-07-01T08:55:48Z</time>
      </trkpt>
      <trkpt lat="59.932402996346354" lon="10.860419031232595">
        <ele>125.11</ele>
        <time>2017-07-01T08:55:49Z</time>
      </trkpt>
      <trkpt lat="59.932450018823147" lon="10.860318029299378">
        <ele>125.59</ele>
        <time>2017-07-01T08:55:50Z</time>
      </trkpt>
      <trkpt lat="59.932513972744346" lon="10.86023697629571">
        <ele>125.59</ele>
        <time>2017-07-01T08:55:51Z</time>
      </trkpt>
      <trkpt lat="59.932596031576395" lon="10.860182996839285">
        <ele>125.59</ele>
        <time>2017-07-01T08:55:52Z</time>
      </trkpt>
      <trkpt lat="59.932680018246174" lon="10.860136980190873">
        <ele>126.06999999999999</ele>
        <time>2017-07-01T08:55:53Z</time>
      </trkpt>
      <trkpt lat="59.933738987892866" lon="10.85980698466301">
        <ele>128.47</ele>
        <time>2017-07-01T08:56:03Z</time>
      </trkpt>
      <trkpt lat="59.935545036569238" lon="10.859325025230646">
        <ele>122.70999999999999</ele>
        <time>2017-07-01T08:56:19Z</time>
      </trkpt>
      <trkpt lat="59.935923982411623" lon="10.859235003590584">
        <ele>121.26000000000001</ele>
        <time>2017-07-01T08:56:23Z</time>
      </trkpt>
      <trkpt lat="59.936023978516459" lon="10.859251013025641">
        <ele>121.26000000000001</ele>
        <time>2017-07-01T08:56:24Z</time>
      </trkpt>
      <trkpt lat="59.936206033453345" lon="10.859237015247345">
        <ele>120.78</ele>
        <time>2017-07-01T08:56:26Z</time>
      </trkpt>
      <trkpt lat="59.936297982931137" lon="10.859160991385579">
        <ele>120.78</ele>
        <time>2017-07-01T08:56:27Z</time>
      </trkpt>
      <trkpt lat="59.936688998714089" lon="10.85881900973618">
        <ele>120.3</ele>
        <time>2017-07-01T08:56:31Z</time>
      </trkpt>
      <trkpt lat="59.938370995223522" lon="10.858228001743555">
        <ele>113.56999999999999</ele>
        <time>2017-07-01T08:56:45Z</time>
      </trkpt>
      <trkpt lat="59.938955968245864" lon="10.858151977881789">
        <ele>110.20999999999999</ele>
        <time>2017-07-01T08:56:51Z</time>
      </trkpt>
      <trkpt lat="59.939030986279249" lon="10.858176033943892">
        <ele>109.73</ele>
        <time>2017-07-01T08:56:52Z</time>
      </trkpt>
      <trkpt lat="59.939104998484254" lon="10.858220038935542">
        <ele>109.25</ele>
        <time>2017-07-01T08:56:53Z</time>
      </trkpt>
      <trkpt lat="59.939346984028816" lon="10.858318023383617">
        <ele>109.25</ele>
        <time>2017-07-01T08:56:56Z</time>
      </trkpt>
      <trkpt lat="59.939431976526976" lon="10.858267983421683">
        <ele>108.77</ele>
        <time>2017-07-01T08:56:57Z</time>
      </trkpt>
      <trkpt lat="59.939681002870202" lon="10.858185002580285">
        <ele>107.31999999999999</ele>
        <time>2017-07-01T08:57:00Z</time>
      </trkpt>
      <trkpt lat="59.940549032762647" lon="10.858439980074763">
        <ele>110.20999999999999</ele>
        <time>2017-07-01T08:57:10Z</time>
      </trkpt>
      <trkpt lat="59.941412033513188" lon="10.858594961464405">
        <ele>116.45999999999999</ele>
        <time>2017-07-01T08:57:19Z</time>
      </trkpt>
      <trkpt lat="59.941795002669096" lon="10.8585399761796">
        <ele>119.34</ele>
        <time>2017-07-01T08:57:25Z</time>
      </trkpt>
      <trkpt lat="59.941843030974269" lon="10.858481973409653">
        <ele>119.34</ele>
        <time>2017-07-01T08:57:26Z</time>
      </trkpt>
      <trkpt lat="59.941873960196972" lon="10.85836797952652">
        <ele>119.34</ele>
        <time>2017-07-01T08:57:27Z</time>
      </trkpt>
      <trkpt lat="59.941877983510494" lon="10.858233030885458">
        <ele>118.86</ele>
        <time>2017-07-01T08:57:28Z</time>
      </trkpt>
      <trkpt lat="59.941871026530862" lon="10.858072014525533">
        <ele>118.86</ele>
        <time>2017-07-01T08:57:29Z</time>
      </trkpt>
      <trkpt lat="59.941873960196972" lon="10.857522999867797">
        <ele>119.34</ele>
        <time>2017-07-01T08:57:32Z</time>
      </trkpt>
      <trkpt lat="59.941936992108822" lon="10.85692897439003">
        <ele>120.3</ele>
        <time>2017-07-01T08:57:35Z</time>
      </trkpt>
      <trkpt lat="59.941940009593964" lon="10.856740968301892">
        <ele>120.78</ele>
        <time>2017-07-01T08:57:36Z</time>
      </trkpt>
      <trkpt lat="59.941928023472428" lon="10.856572994962335">
        <ele>120.78</ele>
        <time>2017-07-01T08:57:37Z</time>
      </trkpt>
      <trkpt lat="59.941903967410326" lon="10.85641298443079">
        <ele>120.78</ele>
        <time>2017-07-01T08:57:38Z</time>
      </trkpt>
      <trkpt lat="59.941871026530862" lon="10.856264960020781">
        <ele>120.3</ele>
        <time>2017-07-01T08:57:39Z</time>
      </trkpt>
      <trkpt lat="59.941832972690463" lon="10.856138980016112">
        <ele>120.78</ele>
        <time>2017-07-01T08:57:40Z</time>
      </trkpt>
      <trkpt lat="59.941795002669096" lon="10.856045018881559">
        <ele>120.3</ele>
        <time>2017-07-01T08:57:41Z</time>
      </trkpt>
      <trkpt lat="59.94176097214222" lon="10.855976035818458">
        <ele>120.3</ele>
        <time>2017-07-01T08:57:42Z</time>
      </trkpt>
      <trkpt lat="59.941729959100485" lon="10.855942005291581">
        <ele>120.78</ele>
        <time>2017-07-01T08:57:43Z</time>
      </trkpt>
      <trkpt lat="59.941701041534543" lon="10.855910992249846">
        <ele>120.3</ele>
        <time>2017-07-01T08:57:44Z</time>
      </trkpt>
      <trkpt lat="59.941654019057751" lon="10.855924990028143">
        <ele>119.81999999999999</ele>
        <time>2017-07-01T08:57:45Z</time>
      </trkpt>
      <trkpt lat="59.941603979095817" lon="10.855978969484568">
        <ele>120.3</ele>
        <time>2017-07-01T08:57:46Z</time>
      </trkpt>
      <trkpt lat="59.941551005467772" lon="10.856075026094913">
        <ele>119.81999999999999</ele>
        <time>2017-07-01T08:57:47Z</time>
      </trkpt>
      <trkpt lat="59.941499037668109" lon="10.856200000271201">
        <ele>119.81999999999999</ele>
        <time>2017-07-01T08:57:48Z</time>
      </trkpt>
      <trkpt lat="59.941444974392653" lon="10.856334026902914">
        <ele>119.34</ele>
        <time>2017-07-01T08:57:49Z</time>
      </trkpt>
      <trkpt lat="59.941312959417701" lon="10.856598978862166">
        <ele>118.86</ele>
        <time>2017-07-01T08:57:51Z</time>
      </trkpt>
      <trkpt lat="59.941229978576303" lon="10.856721019372344">
        <ele>118.86</ele>
        <time>2017-07-01T08:57:52Z</time>
      </trkpt>
      <trkpt lat="59.941139034926891" lon="10.856830989941955">
        <ele>118.38</ele>
        <time>2017-07-01T08:57:53Z</time>
      </trkpt>
      <trkpt lat="59.941045995801687" lon="10.856917994096875">
        <ele>118.38</ele>
        <time>2017-07-01T08:57:54Z</time>
      </trkpt>
      <trkpt lat="59.940953040495515" lon="10.856979014351964">
        <ele>117.90000000000001</ele>
        <time>2017-07-01T08:57:55Z</time>
      </trkpt>
      <trkpt lat="59.940864024683833" lon="10.857006004080176">
        <ele>117.42</ele>
        <time>2017-07-01T08:57:56Z</time>
      </trkpt>
      <trkpt lat="59.940785989165306" lon="10.856996029615402">
        <ele>116.94</ele>
        <time>2017-07-01T08:57:57Z</time>
      </trkpt>
      <trkpt lat="59.940718011930585" lon="10.856938026845455">
        <ele>116.94</ele>
        <time>2017-07-01T08:57:58Z</time>
      </trkpt>
      <trkpt lat="59.940669983625412" lon="10.856825038790703">
        <ele>116.94</ele>
        <time>2017-07-01T08:57:59Z</time>
      </trkpt>
      <trkpt lat="59.940636036917567" lon="10.856669973582029">
        <ele>116.94</ele>
        <time>2017-07-01T08:58:00Z</time>
      </trkpt>
      <trkpt lat="59.940616004168987" lon="10.856483979150653">
        <ele>116.94</ele>
        <time>2017-07-01T08:58:01Z</time>
      </trkpt>
      <trkpt lat="59.940602006390691" lon="10.856278035789728">
        <ele>116.94</ele>
        <time>2017-07-01T08:58:02Z</time>
      </trkpt>
      <trkpt lat="59.940395979210734" lon="10.853867987170815">
        <ele>115.01000000000001</ele>
        <time>2017-07-01T08:58:11Z</time>
      </trkpt>
      <trkpt lat="59.939850987866521" lon="10.849224999547005">
        <ele>114.53</ele>
        <time>2017-07-01T08:58:26Z</time>
      </trkpt>
      <trkpt lat="59.93924698792398" lon="10.844107009470463">
        <ele>112.13</ele>
        <time>2017-07-01T08:58:40Z</time>
      </trkpt>
      <trkpt lat="59.938679030165076" lon="10.840189978480339">
        <ele>110.69</ele>
        <time>2017-07-01T08:58:51Z</time>
      </trkpt>
      <trkpt lat="59.937671022489667" lon="10.836441004648805">
        <ele>109.25</ele>
        <time>2017-07-01T08:59:02Z</time>
      </trkpt>
      <trkpt lat="59.936252972111106" lon="10.833298964425921">
        <ele>107.31999999999999</ele>
        <time>2017-07-01T08:59:13Z</time>
      </trkpt>
      <trkpt lat="59.934386992827058" lon="10.830649025738239">
        <ele>106.36</ele>
        <time>2017-07-01T08:59:25Z</time>
      </trkpt>
      <trkpt lat="59.932859977707267" lon="10.827989028766751">
        <ele>108.77</ele>
        <time>2017-07-01T08:59:36Z</time>
      </trkpt>
      <trkpt lat="59.931419966742396" lon="10.824365029111505">
        <ele>115.01000000000001</ele>
        <time>2017-07-01T08:59:49Z</time>
      </trkpt>
      <trkpt lat="59.9298379663378" lon="10.819961009547114">
        <ele>109.73</ele>
        <time>2017-07-01T09:00:04Z</time>
      </trkpt>
      <trkpt lat="59.928134009242058" lon="10.814625006169081">
        <ele>102.52</ele>
        <time>2017-07-01T09:00:23Z</time>
      </trkpt>
      <trkpt lat="59.927722960710526" lon="10.812032986432314">
        <ele>98.670000000000002</ele>
        <time>2017-07-01T09:00:32Z</time>
      </trkpt>
      <trkpt lat="59.92773000150919" lon="10.811752025038004">
        <ele>98.670000000000002</ele>
        <time>2017-07-01T09:00:33Z</time>
      </trkpt>
      <trkpt lat="59.92775104008615" lon="10.8114879950881">
        <ele>98.189999999999998</ele>
        <time>2017-07-01T09:00:34Z</time>
      </trkpt>
      <trkpt lat="59.927780963480473" lon="10.811235029250383">
        <ele>98.189999999999998</ele>
        <time>2017-07-01T09:00:35Z</time>
      </trkpt>
      <trkpt lat="59.927814994007349" lon="10.811009975150228">
        <ele>98.189999999999998</ele>
        <time>2017-07-01T09:00:36Z</time>
      </trkpt>
      <trkpt lat="59.927848018705845" lon="10.810813000425696">
        <ele>98.189999999999998</ele>
        <time>2017-07-01T09:00:37Z</time>
      </trkpt>
      <trkpt lat="59.92798799648881" lon="10.810035998001695">
        <ele>97.709999999999994</ele>
        <time>2017-07-01T09:00:44Z</time>
      </trkpt>
      <trkpt lat="59.928254960104823" lon="10.808924976736307">
        <ele>96.269999999999996</ele>
        <time>2017-07-01T09:00:51Z</time>
      </trkpt>
      <trkpt lat="59.928965996950865" lon="10.806700000539422">
        <ele>90.5</ele>
        <time>2017-07-01T09:01:00Z</time>
      </trkpt>
      <trkpt lat="59.929143022745848" lon="10.806175963953137">
        <ele>89.060000000000002</ele>
        <time>2017-07-01T09:01:02Z</time>
      </trkpt>
      <trkpt lat="59.936482971534133" lon="10.788058983162045">
        <ele>101.08</ele>
        <time>2017-07-01T09:02:19Z</time>
      </trkpt>
      <trkpt lat="59.936566036194563" lon="10.787844993174076">
        <ele>104.44</ele>
        <time>2017-07-01T09:02:20Z</time>
      </trkpt>
      <trkpt lat="59.937018994241953" lon="10.786760039627552">
        <ele>108.77</ele>
        <time>2017-07-01T09:02:27Z</time>
      </trkpt>
      <trkpt lat="59.937524003908038" lon="10.785407032817602">
        <ele>114.05</ele>
        <time>2017-07-01T09:02:38Z</time>
      </trkpt>
      <trkpt lat="59.937703963369131" lon="10.785217015072703">
        <ele>114.53</ele>
        <time>2017-07-01T09:02:42Z</time>
      </trkpt>
      <trkpt lat="59.937752997502685" lon="10.785135962069035">
        <ele>114.53</ele>
        <time>2017-07-01T09:02:43Z</time>
      </trkpt>
      <trkpt lat="59.937797002494335" lon="10.785035965964198">
        <ele>115.01000000000001</ele>
        <time>2017-07-01T09:02:44Z</time>
      </trkpt>
      <trkpt lat="59.937832038849592" lon="10.784915015101433">
        <ele>115.5</ele>
        <time>2017-07-01T09:02:45Z</time>
      </trkpt>
      <trkpt lat="59.937857016921043" lon="10.784769002348185">
        <ele>115.5</ele>
        <time>2017-07-01T09:02:46Z</time>
      </trkpt>
      <trkpt lat="59.937855005264282" lon="10.784617038443685">
        <ele>115.5</ele>
        <time>2017-07-01T09:02:47Z</time>
      </trkpt>
      <trkpt lat="59.937830027192831" lon="10.784477982670069">
        <ele>114.05</ele>
        <time>2017-07-01T09:02:48Z</time>
      </trkpt>
      <trkpt lat="59.937791973352432" lon="10.784355020150542">
        <ele>114.05</ele>
        <time>2017-07-01T09:02:49Z</time>
      </trkpt>
      <trkpt lat="59.937728019431233" lon="10.784262986853719">
        <ele>113.56999999999999</ele>
        <time>2017-07-01T09:02:50Z</time>
      </trkpt>
      <trkpt lat="59.937651995569468" lon="10.784161984920502">
        <ele>113.56999999999999</ele>
        <time>2017-07-01T09:02:51Z</time>
      </trkpt>
      <trkpt lat="59.937561973929405" lon="10.784054026007652">
        <ele>113.09</ele>
        <time>2017-07-01T09:02:52Z</time>
      </trkpt>
      <trkpt lat="59.937382014468312" lon="10.783774992451072">
        <ele>112.61</ele>
        <time>2017-07-01T09:02:54Z</time>
      </trkpt>
      <trkpt lat="59.937303978949785" lon="10.783605007454753">
        <ele>113.09</ele>
        <time>2017-07-01T09:02:55Z</time>
      </trkpt>
      <trkpt lat="59.936306029558182" lon="10.781537024304271">
        <ele>107.81</ele>
        <time>2017-07-01T09:03:05Z</time>
      </trkpt>
      <trkpt lat="59.935003984719515" lon="10.779536012560129">
        <ele>96.269999999999996</ele>
        <time>2017-07-01T09:03:15Z</time>
      </trkpt>
      <trkpt lat="59.933793973177671" lon="10.778660019859672">
        <ele>87.140000000000001</ele>
        <time>2017-07-01T09:03:24Z</time>
      </trkpt>
      <trkpt lat="59.933520974591374" lon="10.778481988236308">
        <ele>84.730000000000004</ele>
        <time>2017-07-01T09:03:27Z</time>
      </trkpt>
      <trkpt lat="59.933457020670176" lon="10.778409987688065">
        <ele>84.730000000000004</ele>
        <time>2017-07-01T09:03:28Z</time>
      </trkpt>
      <trkpt lat="59.93340102955699" lon="10.778321977704763">
        <ele>83.769999999999996</ele>
        <time>2017-07-01T09:03:29Z</time>
      </trkpt>
      <trkpt lat="59.933236995711923" lon="10.77807898633182">
        <ele>82.329999999999998</ele>
        <time>2017-07-01T09:03:32Z</time>
      </trkpt>
      <trkpt lat="59.933170024305582" lon="10.778048979118466">
        <ele>82.329999999999998</ele>
        <time>2017-07-01T09:03:33Z</time>
      </trkpt>
      <trkpt lat="59.93297103792429" lon="10.777941020205617">
        <ele>80.890000000000001</ele>
        <time>2017-07-01T09:03:36Z</time>
      </trkpt>
      <trkpt lat="59.932901971042156" lon="10.777858961373568">
        <ele>81.849999999999994</ele>
        <time>2017-07-01T09:03:37Z</time>
      </trkpt>
      <trkpt lat="59.932224964722991" lon="10.776650961488485">
        <ele>78</ele>
        <time>2017-07-01T09:03:47Z</time>
      </trkpt>
      <trkpt lat="59.931484004482627" lon="10.774964019656181">
        <ele>72.719999999999999</ele>
        <time>2017-07-01T09:03:57Z</time>
      </trkpt>
      <trkpt lat="59.931432036682963" lon="10.774762015789747">
        <ele>71.760000000000005</ele>
        <time>2017-07-01T09:03:58Z</time>
      </trkpt>
      <trkpt lat="59.931201031431556" lon="10.773777980357409">
        <ele>69.349999999999994</ele>
        <time>2017-07-01T09:04:04Z</time>
      </trkpt>
      <trkpt lat="59.931143028661609" lon="10.77337296679616">
        <ele>68.870000000000005</ele>
        <time>2017-07-01T09:04:12Z</time>
      </trkpt>
      <trkpt lat="59.931089971214533" lon="10.772883966565132">
        <ele>69.349999999999994</ele>
        <time>2017-07-01T09:04:26Z</time>
      </trkpt>
      <trkpt lat="59.930983018130064" lon="10.771492989733815">
        <ele>65.030000000000001</ele>
        <time>2017-07-01T09:04:34Z</time>
      </trkpt>
      <trkpt lat="59.930758969858289" lon="10.770555976778269">
        <ele>61.18</ele>
        <time>2017-07-01T09:04:39Z</time>
      </trkpt>
      <trkpt lat="59.930690992623568" lon="10.770392026752234">
        <ele>60.700000000000003</ele>
        <time>2017-07-01T09:04:40Z</time>
      </trkpt>
      <trkpt lat="59.930619997903705" lon="10.770248025655746">
        <ele>59.740000000000002</ele>
        <time>2017-07-01T09:04:41Z</time>
      </trkpt>
      <trkpt lat="59.9305459856987" lon="10.770113999024034">
        <ele>59.259999999999998</ele>
        <time>2017-07-01T09:04:42Z</time>
      </trkpt>
      <trkpt lat="59.930470967665315" lon="10.769993970170617">
        <ele>58.299999999999997</ele>
        <time>2017-07-01T09:04:43Z</time>
      </trkpt>
      <trkpt lat="59.930245997384191" lon="10.769603960216045">
        <ele>56.369999999999997</ele>
        <time>2017-07-01T09:04:47Z</time>
      </trkpt>
      <trkpt lat="59.930219007655978" lon="10.769516034051776">
        <ele>55.890000000000001</ele>
        <time>2017-07-01T09:04:48Z</time>
      </trkpt>
      <trkpt lat="59.930210039019585" lon="10.76941997744143">
        <ele>55.890000000000001</ele>
        <time>2017-07-01T09:04:49Z</time>
      </trkpt>
      <trkpt lat="59.930233005434275" lon="10.769207999110222">
        <ele>57.82</ele>
        <time>2017-07-01T09:04:51Z</time>
      </trkpt>
      <trkpt lat="59.930270975455642" lon="10.769114037975669">
        <ele>58.299999999999997</ele>
        <time>2017-07-01T09:04:52Z</time>
      </trkpt>
      <trkpt lat="59.930313974618912" lon="10.769036002457142">
        <ele>59.259999999999998</ele>
        <time>2017-07-01T09:04:53Z</time>
      </trkpt>
      <trkpt lat="59.930544979870319" lon="10.76858296059072">
        <ele>62.140000000000001</ele>
        <time>2017-07-01T09:05:00Z</time>
      </trkpt>
      <trkpt lat="59.930549003183842" lon="10.76851598918438">
        <ele>62.619999999999997</ele>
        <time>2017-07-01T09:05:01Z</time>
      </trkpt>
      <trkpt lat="59.930541962385178" lon="10.768457986414433">
        <ele>62.140000000000001</ele>
        <time>2017-07-01T09:05:02Z</time>
      </trkpt>
      <trkpt lat="59.930521007627249" lon="10.768411969766021">
        <ele>62.140000000000001</ele>
        <time>2017-07-01T09:05:03Z</time>
      </trkpt>
      <trkpt lat="59.930489994585514" lon="10.768379028886557">
        <ele>61.18</ele>
        <time>2017-07-01T09:05:04Z</time>
      </trkpt>
      <trkpt lat="59.930457975715399" lon="10.768347010016441">
        <ele>60.700000000000003</ele>
        <time>2017-07-01T09:05:05Z</time>
      </trkpt>
      <trkpt lat="59.930412964895368" lon="10.768267968669534">
        <ele>60.219999999999999</ele>
        <time>2017-07-01T09:05:07Z</time>
      </trkpt>
      <trkpt lat="59.930408019572496" lon="10.768210971727967">
        <ele>60.700000000000003</ele>
        <time>2017-07-01T09:05:08Z</time>
      </trkpt>
      <trkpt lat="59.930417994037271" lon="10.768017014488578">
        <ele>59.259999999999998</ele>
        <time>2017-07-01T09:05:11Z</time>
      </trkpt>
      <trkpt lat="59.930449007079005" lon="10.76793696731329">
        <ele>58.780000000000001</ele>
        <time>2017-07-01T09:05:12Z</time>
      </trkpt>
      <trkpt lat="59.930929038673639" lon="10.766939017921686">
        <ele>59.259999999999998</ele>
        <time>2017-07-01T09:05:25Z</time>
      </trkpt>
      <trkpt lat="59.930981006473303" lon="10.766828963533044">
        <ele>56.369999999999997</ele>
        <time>2017-07-01T09:05:35Z</time>
      </trkpt>
      <trkpt lat="59.931144034489989" lon="10.766644980758429">
        <ele>56.859999999999999</ele>
        <time>2017-07-01T09:05:41Z</time>
      </trkpt>
      <trkpt lat="59.931182004511356" lon="10.766682028770447">
        <ele>57.82</ele>
        <time>2017-07-01T09:05:42Z</time>
      </trkpt>
      <trkpt lat="59.931303039193153" lon="10.766801973804832">
        <ele>57.82</ele>
        <time>2017-07-01T09:05:45Z</time>
      </trkpt>
      <trkpt lat="59.931334974244237" lon="10.766833992674947">
        <ele>57.82</ele>
        <time>2017-07-01T09:05:46Z</time>
      </trkpt>
      <trkpt lat="59.931404963135719" lon="10.766858970746398">
        <ele>57.82</ele>
        <time>2017-07-01T09:05:48Z</time>
      </trkpt>
      <trkpt lat="59.931438993662596" lon="10.766848996281624">
        <ele>57.82</ele>
        <time>2017-07-01T09:05:49Z</time>
      </trkpt>
      <trkpt lat="59.93146900087595" lon="10.766828041523695">
        <ele>57.82</ele>
        <time>2017-07-01T09:05:50Z</time>
      </trkpt>
      <trkpt lat="59.931496996432543" lon="10.766794010996819">
        <ele>57.82</ele>
        <time>2017-07-01T09:05:51Z</time>
      </trkpt>
      <trkpt lat="59.931515017524362" lon="10.76675302349031">
        <ele>57.82</ele>
        <time>2017-07-01T09:05:52Z</time>
      </trkpt>
      <trkpt lat="59.931524991989136" lon="10.766683034598827">
        <ele>57.340000000000003</ele>
        <time>2017-07-01T09:05:53Z</time>
      </trkpt>
      <trkpt lat="59.931539995595813" lon="10.76656099408865">
        <ele>55.890000000000001</ele>
        <time>2017-07-01T09:05:55Z</time>
      </trkpt>
      <trkpt lat="59.931582994759083" lon="10.766255976632237">
        <ele>57.340000000000003</ele>
        <time>2017-07-01T09:05:58Z</time>
      </trkpt>
      <trkpt lat="59.931604033336043" lon="10.766146006062627">
        <ele>57.82</ele>
        <time>2017-07-01T09:05:59Z</time>
      </trkpt>
      <trkpt lat="59.93187996558845" lon="10.765280993655324">
        <ele>58.299999999999997</ele>
        <time>2017-07-01T09:06:07Z</time>
      </trkpt>
      <trkpt lat="59.931964036077261" lon="10.76497396454215">
        <ele>59.259999999999998</ele>
        <time>2017-07-01T09:06:10Z</time>
      </trkpt>
      <trkpt lat="59.932042993605137" lon="10.764664001762867">
        <ele>60.700000000000003</ele>
        <time>2017-07-01T09:06:14Z</time>
      </trkpt>
      <trkpt lat="59.932078029960394" lon="10.764618990942836">
        <ele>60.700000000000003</ele>
        <time>2017-07-01T09:06:15Z</time>
      </trkpt>
      <trkpt lat="59.932103008031845" lon="10.764572974294424">
        <ele>60.700000000000003</ele>
        <time>2017-07-01T09:06:16Z</time>
      </trkpt>
      <trkpt lat="59.93213796056807" lon="10.764553025364876">
        <ele>60.219999999999999</ele>
        <time>2017-07-01T09:06:17Z</time>
      </trkpt>
      <trkpt lat="59.932163022458553" lon="10.764535004273057">
        <ele>59.740000000000002</ele>
        <time>2017-07-01T09:06:18Z</time>
      </trkpt>
      <trkpt lat="59.932192023843527" lon="10.764533998444676">
        <ele>59.740000000000002</ele>
        <time>2017-07-01T09:06:19Z</time>
      </trkpt>
      <trkpt lat="59.932209961116314" lon="10.764532992616296">
        <ele>59.259999999999998</ele>
        <time>2017-07-01T09:06:20Z</time>
      </trkpt>
      <trkpt lat="59.932238040491939" lon="10.764551013708115">
        <ele>60.700000000000003</ele>
        <time>2017-07-01T09:06:24Z</time>
      </trkpt>
      <trkpt lat="59.932265030220151" lon="10.764570962637663">
        <ele>60.700000000000003</ele>
        <time>2017-07-01T09:06:25Z</time>
      </trkpt>
      <trkpt lat="59.932351028546691" lon="10.764586972072721">
        <ele>60.219999999999999</ele>
        <time>2017-07-01T09:06:34Z</time>
      </trkpt>
      <trkpt lat="59.932344993576407" lon="10.764590995386243">
        <ele>60.219999999999999</ele>
        <time>2017-07-01T09:08:12Z</time>
      </trkpt>
    </trkseg>
  </trk>

</gpx>